[[{"header":{"parameterUnit":"m.s-1","parameterCategory":1,"la1":31.0,"la2":29.5877,"lo1":-88.7671,"lo2":-86.6584,"dy":0.0162,"dx":0.0185,"nx":115,"ny":88,"refTime":"2026-04-17T12:00:00:Z","depth":0,"parameterNumber":2,"parameterNumberName":"U-component_of_WINDS"},"data":[0.0,0.0,0.0,0.0,0.0,0.0,0.0,0.0,0.0,0.0,0.0,0.0,0.0,0.0,0.0,0.0,0.0,0.0,0.0,0.0,0.0,0.0,0.0,0.0,0.0,0.0,0.0,0.0,0.0,0.0,0.0,0.0,0.0,0.0,0.0,0.0,0.0,0.0,0.0,0.0,0.0,0.0,0.0,0.0,0.0,0.0,0.0,0.0,0.0,0.0,0.0,0.0,0.0,0.0,0.0,0.0,0.0,0.0,0.0,0.0,0.0,0.0,0.0,0.0,0.0,0.0,0.0,0.0,0.0,0.0,0.0,0.0,0.0,0.0,0.0,0.0,0.0,0.0,0.0,0.0,0.0,0.0,0.0,0.0,0.0,0.0,0.0,0.0,0.0,0.0,0.0,0.0,0.0,0.0,0.0,0.0,0.0,0.0,0.0,0.0,0.0,0.0,0.0,0.0,0.0,0.0,0.0,0.0,0.0,0.0,0.0,0.0,0.0,0.0,0.0,0.0,0.0,0.0,0.0,0.0,0.0,0.0,0.0,0.0,0.0,0.0,0.0,0.0,0.0,0.0,0.0,0.0,0.0,0.0,0.0,0.0,0.0,0.0,0.0,0.0,0.0,0.0,0.0,0.0,0.0,0.0,0.0,0.0,0.0,0.0,0.0,0.0,0.0,0.0,0.0,0.0,0.0,0.0,0.0,0.0,0.0,0.0,0.0,0.0,0.0,0.0,0.0,0.0,0.0,0.0,0.0,0.0,0.0,0.0,0.0,0.0,0.0,0.0,0.0,0.0,0.0,0.0,0.0,0.0,0.0,0.0,0.0,0.0,0.0,0.0,0.0,0.0,0.0,0.0,0.0,0.0,0.0,0.0,0.0,0.0,0.0,0.0,0.0,0.0,0.0,0.0,0.0,0.0,0.0,0.0,0.0,0.0,0.0,0.0,0.0,0.0,0.0,0.0,0.0,0.0,0.0,0.0,0.0,0.0,0.0,0.0,0.0,0.0,0.0,0.0,0.0,0.0,0.0,0.0,0.0,0.0,0.0,0.0,0.0,0.0,0.0,0.0,0.0,0.0,0.0,0.0,0.0,0.0,0.0,0.0,0.0,0.0,0.0,0.0,0.0,0.0,0.0,0.0,0.0,0.0,0.0,0.0,0.0,0.0,0.0,0.0,0.0,0.0,0.0,0.0,0.0,0.0,0.0,0.0,0.0,0.0,0.0,0.0,0.0,0.0,0.0,0.0,0.0,0.0,0.0,0.0,0.0,0.0,0.0,0.0,0.0,0.0,0.0,0.0,0.0,0.0,0.0,0.0,0.0,0.0,0.0,0.0,0.0,0.0,0.0,0.0,0.0,0.0,0.0,0.0,0.0,0.0,0.0,0.0,0.0,0.0,0.0,0.0,0.0,0.0,0.0,0.0,0.0,0.0,0.0,0.0,0.0,0.0,0.0,0.0,0.0,0.0,0.0,0.0,0.0,0.0,0.0,0.0,0.0,0.0,0.0,0.0,0.0,0.0,0.0,0.0,0.0,0.0,0.0,0.0,0.0,0.0,0.0,0.0,0.0,0.0,0.0,0.0,0.0,0.0,0.0,0.0,0.0,0.0,0.0,0.0,0.0,0.0,0.0,0.0,0.0,0.0,0.0,0.0,0.0,0.0,0.0,0.0,0.0,0.0,0.0,0.0,0.0,0.0,0.0,0.0,0.0,0.0,0.0,0.0,0.0,0.0,0.0,0.0,0.0,0.0,0.0,0.0,0.0,0.0,0.0,0.0,0.0,0.0,0.0,0.0,0.0,0.0,0.0,0.0,0.0,0.0,0.0,0.0,0.0,0.0,0.0,0.0,0.0,0.0,0.0,0.0,0.0,0.0,0.0,0.0,0.0,0.0,0.0,0.0,0.0,0.0,0.0,0.0,0.0,0.0,0.0,0.0,0.0,0.0,0.0,0.0,0.0,0.0,0.0,0.0,0.0,0.0,0.0,0.0,0.0,0.0,0.0,0.0,0.0,0.0,0.0,0.0,0.0,0.0,0.0,0.0,0.0,0.0,0.0,0.0,0.0,0.0,0.0,0.0,0.0,0.0,0.0,0.0,0.0,0.0,0.0,0.0,0.0,0.0,0.0,0.0,0.0,0.0,0.0,0.0,0.0,0.0,0.0,0.0,0.0,0.0,0.0,0.0,0.0,0.0,0.0,0.0,0.0,0.0,0.0,0.0,0.0,0.0,0.0,0.0,0.0,0.0,0.0,0.0,0.0,0.0,0.0,0.0,0.0,0.0,0.0,0.0,0.0,0.0,0.0,0.0,0.0,0.0,0.0,0.0,0.0,0.0,0.0,0.0,0.0,0.0,0.0,0.0,0.0,0.0,0.0,0.0,0.0,0.0,0.0,0.0,0.0,0.0,0.0,0.0,0.0,0.0,0.0,0.0,0.0,0.0,0.0,0.0,0.0,0.0,0.0,0.0,0.0,0.0,0.0,0.0,0.0,0.0,0.0,0.0,0.0,0.0,0.0,0.0,0.0,0.0,0.0,0.0,0.0,0.0,0.0,0.0,0.0,0.0,0.0,0.0,0.0,0.0,0.0,0.0,0.0,0.0,0.0,0.0,0.0,0.0,0.0,0.0,0.0,0.0,0.0,0.0,0.0,0.0,0.0,0.0,0.0,0.0,0.0,0.0,0.0,0.0,0.0,0.0,0.0,0.0,0.0,0.0,0.0,0.0,0.0,0.0,0.0,0.0,0.0,0.0,0.0,0.0,0.0,0.0,0.0,0.0,0.0,0.0,0.0,0.0,0.0,0.0,0.0,0.0,0.0,0.0,0.0,0.0,0.0,0.0,0.0,0.0,0.0,0.0,0.0,0.0,0.0,0.0,0.0,0.0,0.0,0.0,0.0,0.0,0.0,0.0,0.0,0.0,0.0,0.0,0.0,0.0,0.0,0.0,0.0,0.0,0.0,0.0,0.0,0.0,0.0,0.0,0.0,0.0,0.0,0.0,0.0,0.0,0.0,0.0,0.0,0.0,0.0,0.0,0.0,0.0,0.0,0.0,0.0,0.0,0.0,0.0,0.0,0.0,0.0,0.0,0.0,0.0,0.0,0.0,0.0,0.0,0.0,0.0,0.0,0.0,0.0,0.0,0.0,0.0,0.0,0.0,0.0,0.0,0.0,0.0,0.0,0.0,0.0,0.0,0.0,0.0,0.0,0.0,0.0,0.0,0.0,0.0,0.0,0.0,0.0,0.0,0.0,0.0,0.0,0.0,0.0,0.0,0.0,0.0,0.0,0.0,0.0,0.0,0.0,0.0,0.0,0.0,0.0,0.0,0.0,0.0,0.0,0.0,0.0,0.0,0.0,0.0,0.0,0.0,0.0,0.0,0.0,0.0,0.0,0.0,0.0,0.0,0.0,0.0,0.0,0.0,0.0,0.0,0.0,0.0,0.0,0.0,0.0,0.0,0.0,0.0,0.0,0.0,0.0,0.0,0.0,0.0,0.0,0.0,0.0,0.0,0.0,0.0,0.0,0.0,0.0,0.0,0.0,0.0,0.0,0.0,0.0,0.0,0.0,0.0,0.0,0.0,0.0,0.0,0.0,0.0,0.0,0.0,0.0,0.0,0.0,0.0,0.0,0.0,0.0,0.0,0.0,0.0,0.0,0.0,0.0,0.0,0.0,0.0,0.0,0.0,0.0,0.0,0.0,0.0,0.0,0.0,0.0,0.0,0.0,0.0,0.0,0.0,0.0,0.0,0.0,0.0,0.0,0.0,0.0,0.0,0.0,0.0,0.0,0.0,0.0,0.0,0.0,0.0,0.0,0.0,0.0,0.0,0.0,0.0,0.0,0.0,0.0,0.0,0.0,0.0,0.0,0.0,0.0,0.0,0.0,0.0,0.0,0.0,0.0,0.0,0.0,0.0,0.0,0.0,0.0,0.0,0.0,0.0,0.0,0.0,0.0,0.0,0.0,0.0,0.0,0.0,0.0,0.0,0.0,0.0,0.0,0.0,0.0,0.0,0.0,0.0,0.0,0.0,0.0,0.0,0.0,0.0,0.0,0.0,0.0,0.0,0.0,0.0,0.0,0.0,0.0,0.0,0.0,0.0,0.0,0.0,0.0,0.0,0.0,0.0,0.0,0.0,0.0,0.0,0.0,0.0,0.0,0.0,0.0,0.0,0.0,0.0,0.0,0.0,0.0,0.0,0.0,0.0,0.0,0.0,0.0,0.0,0.0,0.0,0.0,0.0,0.0,0.0,0.0,0.0,0.0,0.0,4.1383,0.0,0.0,0.0,0.0,0.0,0.0,0.0,0.0,0.0,0.0,0.0,0.0,0.0,0.0,0.0,0.0,0.0,0.0,0.0,0.0,0.0,0.0,0.0,0.0,0.0,0.0,0.0,0.0,0.0,0.0,0.0,0.0,0.0,0.0,0.0,0.0,0.0,0.0,0.0,0.0,0.0,0.0,0.0,0.0,0.0,0.0,0.0,0.0,0.0,0.0,0.0,0.0,0.0,0.0,0.0,0.0,0.0,0.0,0.0,0.0,0.0,0.0,0.0,0.0,0.0,0.0,0.0,0.0,0.0,0.0,0.0,0.0,0.0,0.0,0.0,0.0,0.0,0.0,0.0,0.0,0.0,0.0,0.0,0.0,0.0,0.0,0.0,0.0,0.0,0.0,0.0,0.0,0.0,0.0,0.0,0.0,0.0,0.0,0.0,0.0,0.0,0.0,0.0,0.0,0.0,0.0,0.0,0.0,0.0,0.0,4.367,4.4136,4.367,4.3059,4.2261,0.0,0.0,0.0,0.0,0.0,0.0,0.0,0.0,0.0,0.0,0.0,0.0,0.0,0.0,0.0,0.0,0.0,0.0,0.0,0.0,0.0,0.0,0.0,0.0,0.0,0.0,0.0,0.0,0.0,0.0,0.0,0.0,0.0,0.0,0.0,0.0,0.0,0.0,0.0,0.0,0.0,0.0,0.0,0.0,0.0,0.0,0.0,0.0,0.0,0.0,0.0,0.0,0.0,0.0,0.0,0.0,0.0,0.0,0.0,0.0,0.0,0.0,0.0,0.0,0.0,0.0,0.0,0.0,0.0,0.0,0.0,0.0,0.0,0.0,0.0,0.0,0.0,0.0,0.0,0.0,0.0,0.0,0.0,0.0,0.0,0.0,0.0,0.0,0.0,0.0,0.0,0.0,0.0,0.0,0.0,0.0,0.0,0.0,0.0,0.0,0.0,0.0,0.0,0.0,0.0,0.0,0.0,0.0,0.0,0.0,0.0,0.0,4.5507,4.4661,4.367,0.0,0.0,0.0,0.0,0.0,0.0,0.0,0.0,0.0,0.0,0.0,0.0,0.0,0.0,0.0,0.0,0.0,0.0,0.0,0.0,0.0,0.0,0.0,0.0,0.0,0.0,0.0,0.0,0.0,0.0,0.0,0.0,0.0,0.0,0.0,0.0,0.0,0.0,0.0,0.0,0.0,0.0,0.0,0.0,0.0,0.0,0.0,0.0,0.0,0.0,0.0,0.0,0.0,0.0,0.0,0.0,0.0,0.0,0.0,0.0,0.0,0.0,0.0,0.0,0.0,0.0,0.0,0.0,0.0,0.0,0.0,0.0,0.0,0.0,0.0,0.0,0.0,0.0,0.0,0.0,0.0,0.0,0.0,0.0,0.0,0.0,0.0,0.0,0.0,0.0,0.0,0.0,0.0,0.0,0.0,0.0,0.0,0.0,0.0,0.0,0.0,0.0,0.0,0.0,0.0,0.0,0.0,0.0,0.0,0.0,4.6317,4.8684,4.8645,0.0,4.6306,0.0,0.0,0.0,0.0,0.0,0.0,0.0,0.0,0.0,0.0,0.0,0.0,0.0,0.0,0.0,0.0,0.0,0.0,0.0,0.0,0.0,0.0,0.0,0.0,0.0,0.0,0.0,0.0,0.0,0.0,0.0,0.0,0.0,0.0,0.0,0.0,0.0,0.0,0.0,0.0,0.0,0.0,0.0,0.0,0.0,0.0,0.0,0.0,0.0,0.0,0.0,0.0,0.0,0.0,0.0,0.0,0.0,0.0,0.0,0.0,0.0,0.0,0.0,0.0,0.0,0.0,0.0,0.0,0.0,0.0,0.0,0.0,0.0,0.0,0.0,0.0,0.0,0.0,0.0,0.0,0.0,0.0,0.0,0.0,0.0,0.0,0.0,0.0,0.0,0.0,0.0,0.0,0.0,0.0,0.0,0.0,0.0,0.0,0.0,0.0,0.0,0.0,0.0,0.0,0.0,0.0,0.0,0.0,0.0,0.0,0.0,4.9104,4.8108,4.7226,0.0,0.0,0.0,0.0,0.0,0.0,0.0,0.0,0.0,0.0,0.0,0.0,0.0,0.0,0.0,0.0,0.0,0.0,0.0,0.0,0.0,0.0,0.0,0.0,0.0,0.0,0.0,0.0,0.0,0.0,0.0,0.0,0.0,0.0,0.0,0.0,0.0,0.0,0.0,0.0,0.0,0.0,0.0,0.0,0.0,0.0,0.0,0.0,0.0,0.0,0.0,0.0,0.0,0.0,0.0,0.0,0.0,0.0,0.0,0.0,0.0,0.0,0.0,0.0,0.0,0.0,0.0,0.0,0.0,0.0,0.0,0.0,0.0,0.0,0.0,0.0,0.0,0.0,0.0,0.0,0.0,0.0,0.0,0.0,0.0,0.0,0.0,0.0,0.0,0.0,0.0,0.0,0.0,0.0,0.0,0.0,0.0,0.0,0.0,0.0,0.0,0.0,0.0,0.0,0.0,0.0,0.0,0.0,0.0,0.0,4.8493,0.0,4.9713,4.8793,4.7491,4.5883,0.0,0.0,0.0,0.0,0.0,0.0,0.0,0.0,0.0,0.0,0.0,0.0,0.0,0.0,0.0,0.0,0.0,0.0,0.0,0.0,0.0,0.0,0.0,0.0,0.0,0.0,0.0,0.0,0.0,0.0,0.0,0.0,0.0,0.0,0.0,0.0,0.0,0.0,0.0,0.0,0.0,0.0,0.0,0.0,0.0,0.0,0.0,0.0,0.0,0.0,0.0,0.0,0.0,0.0,0.0,0.0,0.0,0.0,0.0,0.0,0.0,0.0,0.0,0.0,0.0,0.0,0.0,0.0,0.0,0.0,0.0,0.0,0.0,0.0,0.0,0.0,0.0,0.0,0.0,0.0,0.0,0.0,0.0,0.0,0.0,0.0,0.0,0.0,0.0,0.0,0.0,0.0,0.0,0.0,0.0,0.0,0.0,0.0,0.0,0.0,0.0,0.0,0.0,0.0,0.0,0.0,0.0,0.0,0.0,5.0215,4.9868,5.1499,5.2117,4.9901,0.0,0.0,0.0,0.0,0.0,0.0,0.0,0.0,0.0,0.0,0.0,0.0,0.0,0.0,0.0,0.0,0.0,0.0,0.0,0.0,0.0,0.0,0.0,0.0,0.0,0.0,0.0,0.0,0.0,0.0,0.0,0.0,0.0,0.0,0.0,0.0,0.0,0.0,0.0,0.0,0.0,0.0,0.0,0.0,0.0,0.0,0.0,0.0,0.0,0.0,0.0,0.0,0.0,0.0,0.0,0.0,0.0,0.0,0.0,0.0,0.0,0.0,0.0,0.0,0.0,0.0,0.0,0.0,0.0,0.0,0.0,0.0,0.0,0.0,0.0,0.0,0.0,0.0,0.0,0.0,0.0,0.0,0.0,0.0,0.0,0.0,0.0,0.0,0.0,0.0,0.0,0.0,0.0,0.0,0.0,0.0,0.0,0.0,0.0,0.0,0.0,0.0,0.0,0.0,0.0,0.0,0.0,0.0,0.0,4.7919,4.8684,5.0938,5.4486,5.0932,4.8255,0.0,0.0,0.0,0.0,0.0,0.0,0.0,0.0,0.0,0.0,0.0,0.0,0.0,0.0,0.0,0.0,0.0,0.0,0.0,0.0,0.0,0.0,0.0,0.0,0.0,0.0,0.0,0.0,0.0,0.0,0.0,0.0,0.0,0.0,0.0,0.0,0.0,0.0,0.0,0.0,0.0,0.0,0.0,0.0,0.0,0.0,0.0,0.0,0.0,0.0,0.0,0.0,0.0,0.0,0.0,0.0,0.0,0.0,0.0,0.0,0.0,0.0,0.0,0.0,0.0,0.0,0.0,0.0,0.0,0.0,0.0,0.0,0.0,0.0,0.0,0.0,0.0,0.0,0.0,0.0,0.0,0.0,0.0,0.0,0.0,0.0,0.0,0.0,0.0,0.0,0.0,0.0,0.0,0.0,0.0,0.0,0.0,0.0,0.0,0.0,0.0,0.0,0.0,0.0,0.0,0.0,0.0,0.0,0.0,4.7728,0.0,5.2658,0.0,5.0588,4.757,0.0,0.0,0.0,0.0,0.0,0.0,0.0,0.0,0.0,0.0,0.0,0.0,0.0,0.0,0.0,0.0,0.0,0.0,0.0,0.0,0.0,0.0,0.0,0.0,0.0,0.0,0.0,0.0,0.0,0.0,0.0,0.0,0.0,0.0,0.0,0.0,0.0,0.0,0.0,0.0,0.0,0.0,0.0,0.0,0.0,0.0,0.0,0.0,0.0,0.0,0.0,0.0,0.0,0.0,0.0,0.0,0.0,0.0,0.0,0.0,0.0,0.0,0.0,0.0,0.0,0.0,0.0,0.0,0.0,0.0,0.0,0.0,0.0,0.0,0.0,0.0,0.0,0.0,0.0,0.0,0.0,0.0,0.0,0.0,0.0,0.0,0.0,0.0,0.0,0.0,0.0,0.0,0.0,0.0,0.0,0.0,0.0,0.0,0.0,0.0,0.0,0.0,0.0,0.0,0.0,0.0,0.0,0.0,0.0,5.2467,5.5027,5.4906,5.1879,5.1538,4.8023,0.0,0.0,0.0,0.0,0.0,0.0,0.0,0.0,0.0,0.0,0.0,0.0,0.0,0.0,0.0,0.0,0.0,0.0,0.0,0.0,0.0,0.0,0.0,0.0,0.0,0.0,0.0,0.0,0.0,0.0,0.0,0.0,0.0,0.0,0.0,0.0,0.0,0.0,0.0,0.0,0.0,0.0,0.0,0.0,0.0,0.0,0.0,0.0,0.0,0.0,0.0,0.0,0.0,0.0,0.0,0.0,0.0,0.0,0.0,0.0,0.0,0.0,0.0,0.0,0.0,0.0,0.0,0.0,0.0,0.0,0.0,0.0,0.0,0.0,0.0,0.0,0.0,0.0,0.0,0.0,0.0,0.0,0.0,0.0,0.0,0.0,0.0,0.0,0.0,0.0,0.0,0.0,0.0,0.0,0.0,0.0,0.0,0.0,0.0,0.0,0.0,0.0,0.0,0.0,0.0,0.0,0.0,0.0,0.0,5.0327,5.3304,5.5476,5.6539,5.1691,4.8711,0.0,0.0,0.0,0.0,0.0,0.0,0.0,0.0,0.0,0.0,0.0,0.0,0.0,0.0,0.0,0.0,0.0,0.0,0.0,0.0,0.0,0.0,0.0,0.0,0.0,0.0,0.0,0.0,0.0,0.0,0.0,0.0,0.0,0.0,0.0,0.0,0.0,0.0,0.0,0.0,0.0,0.0,0.0,0.0,0.0,0.0,0.0,0.0,0.0,0.0,0.0,0.0,0.0,0.0,0.0,0.0,0.0,0.0,0.0,0.0,0.0,0.0,0.0,0.0,0.0,0.0,0.0,0.0,0.0,0.0,0.0,0.0,0.0,0.0,0.0,0.0,0.0,0.0,0.0,0.0,0.0,0.0,0.0,0.0,0.0,0.0,0.0,0.0,0.0,0.0,0.0,0.0,0.0,0.0,0.0,0.0,0.0,0.0,0.0,0.0,0.0,0.0,0.0,0.0,0.0,0.0,0.0,0.0,0.0,5.4912,5.7699,5.9644,6.0474,5.4973,5.1423,5.0124,0.0,0.0,0.0,0.0,0.0,0.0,0.0,0.0,0.0,0.0,0.0,0.0,0.0,0.0,0.0,0.0,0.0,0.0,0.0,0.0,0.0,0.0,0.0,0.0,0.0,0.0,0.0,0.0,0.0,0.0,0.0,0.0,0.0,0.0,0.0,0.0,0.0,0.0,0.0,0.0,0.0,0.0,0.0,0.0,0.0,0.0,0.0,0.0,0.0,0.0,0.0,0.0,0.0,0.0,0.0,0.0,0.0,0.0,0.0,0.0,0.0,0.0,0.0,0.0,0.0,0.0,0.0,0.0,0.0,0.0,0.0,0.0,0.0,0.0,0.0,0.0,0.0,0.0,0.0,0.0,0.0,0.0,0.0,0.0,0.0,0.0,0.0,0.0,0.0,0.0,0.0,0.0,0.0,0.0,0.0,0.0,0.0,0.0,0.0,0.0,0.0,0.0,0.0,0.0,0.0,0.0,0.0,0.0,6.4596,6.7362,6.7213,6.3878,6.0821,5.5893,0.0,0.0,0.0,0.0,0.0,0.0,0.0,0.0,0.0,0.0,0.0,0.0,0.0,0.0,0.0,0.0,0.0,0.0,0.0,0.0,0.0,0.0,0.0,0.0,0.0,0.0,0.0,0.0,0.0,0.0,0.0,0.0,0.0,0.0,0.0,0.0,0.0,0.0,0.0,0.0,0.0,0.0,0.0,0.0,0.0,0.0,0.0,0.0,0.0,0.0,0.0,0.0,0.0,0.0,0.0,0.0,0.0,0.0,0.0,0.0,0.0,0.0,0.0,0.0,0.0,0.0,0.0,0.0,0.0,0.0,0.0,0.0,0.0,0.0,0.0,0.0,0.0,0.0,0.0,0.0,0.0,0.0,0.0,0.0,0.0,0.0,0.0,0.0,0.0,0.0,0.0,0.0,0.0,0.0,0.0,0.0,0.0,0.0,0.0,0.0,0.0,0.0,0.0,0.0,0.0,0.0,0.0,0.0,0.0,7.0201,7.6619,7.7793,7.3132,6.583,6.0095,0.0,0.0,0.0,0.0,0.0,0.0,0.0,0.0,0.0,0.0,0.0,0.0,0.0,0.0,0.0,0.0,0.0,0.0,0.0,0.0,0.0,0.0,0.0,0.0,0.0,0.0,0.0,0.0,0.0,0.0,0.0,0.0,0.0,0.0,0.0,0.0,0.0,0.0,0.0,0.0,0.0,0.0,0.0,0.0,0.0,0.0,0.0,0.0,0.0,0.0,0.0,0.0,0.0,0.0,0.0,0.0,0.0,0.0,0.0,0.0,0.0,0.0,0.0,0.0,0.0,0.0,0.0,0.0,0.0,0.0,0.0,0.0,0.0,0.0,0.0,0.0,0.0,0.0,0.0,0.0,0.0,0.0,0.0,0.0,0.0,0.0,0.0,0.0,0.0,0.0,0.0,0.0,0.0,0.0,0.0,0.0,0.0,0.0,0.0,0.0,0.0,0.0,0.0,0.0,0.0,0.0,0.0,0.0,6.8743,7.5038,8.2695,8.5294,8.2351,7.3284,6.5681,0.0,0.0,0.0,0.0,0.0,0.0,0.0,0.0,0.0,0.0,0.0,0.0,0.0,0.0,0.0,0.0,0.0,0.0,0.0,0.0,0.0,0.0,0.0,0.0,0.0,0.0,0.0,0.0,0.0,0.0,0.0,0.0,0.0,0.0,0.0,0.0,0.0,0.0,0.0,0.0,0.0,0.0,0.0,0.0,0.0,0.0,0.0,0.0,0.0,0.0,0.0,0.0,0.0,0.0,0.0,0.0,0.0,0.0,0.0,0.0,0.0,0.0,0.0,0.0,0.0,0.0,0.0,0.0,0.0,0.0,0.0,0.0,0.0,0.0,0.0,0.0,0.0,0.0,0.0,0.0,0.0,0.0,0.0,0.0,0.0,0.0,0.0,0.0,0.0,0.0,0.0,0.0,0.0,0.0,0.0,0.0,0.0,0.0,0.0,0.0,0.0,0.0,0.0,0.0,0.0,0.0,0.0,0.0,7.2853,7.9028,8.6517,9.0349,9.0044,8.0954,7.135,0.0,0.0,0.0,0.0,0.0,0.0,0.0,0.0,0.0,0.0,0.0,0.0,0.0,0.0,0.0,0.0,0.0,0.0,0.0,0.0,0.0,0.0,0.0,0.0,0.0,0.0,0.0,0.0,0.0,0.0,0.0,0.0,0.0,0.0,0.0,0.0,0.0,0.0,0.0,0.0,0.0,0.0,0.0,0.0,0.0,0.0,0.0,0.0,0.0,0.0,0.0,0.0,0.0,0.0,0.0,0.0,0.0,0.0,0.0,0.0,0.0,0.0,0.0,0.0,0.0,0.0,0.0,0.0,0.0,0.0,0.0,0.0,0.0,0.0,0.0,0.0,0.0,0.0,0.0,0.0,0.0,0.0,0.0,0.0,0.0,0.0,0.0,0.0,0.0,0.0,0.0,0.0,0.0,0.0,0.0,0.0,0.0,0.0,0.0,0.0,0.0,0.0,0.0,0.0,0.0,0.0,0.0,0.0,7.5007,8.1152,8.8864,9.2691,9.2186,8.1281,7.221,0.0,0.0,0.0,0.0,0.0,0.0,0.0,0.0,0.0,0.0,0.0,0.0,0.0,0.0,0.0,0.0,0.0,0.0,0.0,0.0,0.0,0.0,0.0,0.0,0.0,0.0,0.0,0.0,0.0,0.0,0.0,0.0,0.0,0.0,0.0,0.0,0.0,0.0,0.0,0.0,0.0,0.0,0.0,0.0,0.0,0.0,0.0,0.0,4.984,0.0,0.0,0.0,0.0,0.0,0.0,0.0,0.0,0.0,0.0,0.0,0.0,0.0,0.0,0.0,0.0,0.0,0.0,0.0,0.0,0.0,0.0,0.0,0.0,0.0,0.0,0.0,0.0,0.0,0.0,0.0,0.0,0.0,0.0,0.0,0.0,0.0,0.0,0.0,0.0,0.0,0.0,0.0,0.0,0.0,0.0,0.0,0.0,0.0,0.0,0.0,0.0,0.0,0.0,0.0,0.0,0.0,0.0,0.0,7.7551,8.3625,8.931,9.2262,9.199,8.2942,7.4948,0.0,0.0,0.0,0.0,0.0,0.0,0.0,0.0,0.0,0.0,0.0,0.0,0.0,0.0,0.0,0.0,0.0,0.0,0.0,0.0,0.0,0.0,0.0,0.0,0.0,0.0,0.0,0.0,0.0,0.0,0.0,0.0,0.0,0.0,0.0,0.0,0.0,0.0,0.0,0.0,0.0,0.0,0.0,0.0,0.0,0.0,0.0,0.0,0.0,0.0,0.0,0.0,0.0,0.0,0.0,0.0,0.0,0.0,0.0,0.0,0.0,0.0,0.0,0.0,0.0,0.0,0.0,0.0,0.0,0.0,0.0,0.0,0.0,0.0,0.0,0.0,0.0,0.0,0.0,0.0,0.0,0.0,0.0,0.0,0.0,0.0,0.0,0.0,0.0,0.0,0.0,0.0,0.0,0.0,0.0,0.0,0.0,0.0,0.0,0.0,0.0,0.0,0.0,0.0,0.0,0.0,0.0,7.1333,7.9585,8.647,8.9381,9.1207,9.1987,8.5143,7.8067,0.0,0.0,0.0,0.0,0.0,0.0,0.0,0.0,0.0,0.0,0.0,0.0,0.0,0.0,0.0,0.0,0.0,0.0,0.0,0.0,0.0,0.0,0.0,0.0,0.0,0.0,0.0,0.0,0.0,0.0,0.0,0.0,0.0,0.0,0.0,0.0,0.0,0.0,0.0,4.4475,4.73,0.0,0.0,0.0,0.0,0.0,0.0,0.0,0.0,5.0891,0.0,0.0,0.0,0.0,0.0,0.0,0.0,0.0,0.0,0.0,0.0,0.0,0.0,0.0,0.0,0.0,0.0,0.0,0.0,0.0,0.0,0.0,0.0,0.0,0.0,0.0,0.0,0.0,0.0,0.0,0.0,0.0,0.0,0.0,0.0,0.0,0.0,0.0,0.0,0.0,0.0,0.0,0.0,0.0,0.0,0.0,0.0,0.0,0.0,0.0,0.0,0.0,0.0,0.0,0.0,0.0,7.0177,7.251,7.9179,9.0463,9.1326,9.2244,9.3377,8.6753,7.9525,7.2101,0.0,0.0,0.0,0.0,0.0,0.0,0.0,0.0,0.0,0.0,0.0,0.0,0.0,0.0,0.0,0.0,0.0,0.0,0.0,0.0,0.0,0.0,0.0,0.0,0.0,0.0,0.0,0.0,0.0,0.0,0.0,0.0,0.0,0.0,0.0,0.0,0.0,0.0,0.0,5.4368,5.5708,0.0,0.0,0.0,0.0,0.0,0.0,0.0,0.0,5.1553,0.0,0.0,0.0,0.0,0.0,0.0,0.0,0.0,0.0,0.0,0.0,0.0,0.0,0.0,0.0,0.0,0.0,0.0,0.0,0.0,0.0,0.0,0.0,0.0,0.0,0.0,0.0,0.0,0.0,0.0,0.0,0.0,0.0,0.0,0.0,0.0,0.0,0.0,0.0,0.0,0.0,0.0,0.0,0.0,0.0,0.0,0.0,0.0,0.0,0.0,0.0,0.0,0.0,0.0,0.0,7.0014,7.6071,8.292,9.0713,9.1125,9.1629,9.2336,8.4113,7.7231,0.0,0.0,0.0,0.0,0.0,0.0,0.0,0.0,0.0,0.0,0.0,0.0,0.0,0.0,0.0,0.0,0.0,0.0,0.0,0.0,0.0,0.0,0.0,0.0,0.0,0.0,0.0,0.0,0.0,0.0,0.0,0.0,0.0,0.0,0.0,0.0,0.0,0.0,0.0,0.0,5.7386,5.8994,6.2047,0.0,0.0,0.0,0.0,0.0,0.0,5.5024,5.3419,0.0,0.0,0.0,0.0,0.0,0.0,0.0,0.0,0.0,0.0,0.0,0.0,0.0,0.0,0.0,0.0,0.0,0.0,0.0,0.0,0.0,0.0,0.0,0.0,0.0,0.0,0.0,0.0,0.0,0.0,0.0,0.0,0.0,0.0,0.0,0.0,0.0,0.0,0.0,0.0,0.0,0.0,0.0,0.0,0.0,0.0,0.0,0.0,0.0,0.0,0.0,0.0,0.0,0.0,0.0,6.8744,7.8389,8.5799,9.052,9.0585,9.0703,9.0949,8.1886,7.524,0.0,0.0,0.0,0.0,0.0,0.0,0.0,0.0,0.0,0.0,0.0,0.0,0.0,0.0,0.0,0.0,0.0,0.0,0.0,0.0,0.0,0.0,0.0,0.0,0.0,0.0,0.0,0.0,0.0,0.0,0.0,0.0,0.0,0.0,0.0,0.0,0.0,0.0,0.0,0.0,0.0,6.2388,6.5677,6.2277,0.0,0.0,0.0,0.0,5.8577,5.8769,0.0,0.0,0.0,0.0,0.0,0.0,0.0,0.0,0.0,0.0,0.0,0.0,0.0,0.0,0.0,0.0,0.0,0.0,0.0,0.0,0.0,0.0,0.0,0.0,0.0,0.0,0.0,0.0,0.0,0.0,0.0,0.0,0.0,0.0,0.0,0.0,0.0,0.0,0.0,0.0,0.0,0.0,0.0,0.0,0.0,0.0,0.0,0.0,0.0,0.0,0.0,0.0,0.0,0.0,0.0,0.0,6.8975,7.5787,8.3551,9.1911,9.091,9.0357,9.0801,8.3769,7.672,0.0,0.0,0.0,0.0,0.0,0.0,0.0,0.0,0.0,0.0,0.0,0.0,0.0,0.0,0.0,0.0,0.0,0.0,0.0,0.0,0.0,0.0,0.0,0.0,0.0,0.0,0.0,0.0,0.0,0.0,0.0,0.0,0.0,0.0,0.0,0.0,0.0,0.0,0.0,0.0,0.0,6.7171,6.481,6.45,6.369,0.0,0.0,0.0,6.6224,6.8398,0.0,0.0,0.0,0.0,0.0,0.0,0.0,0.0,0.0,0.0,0.0,0.0,0.0,0.0,0.0,0.0,0.0,0.0,0.0,0.0,0.0,0.0,0.0,0.0,0.0,0.0,0.0,0.0,0.0,0.0,0.0,0.0,0.0,0.0,0.0,0.0,0.0,0.0,0.0,0.0,0.0,0.0,0.0,0.0,0.0,0.0,0.0,0.0,0.0,0.0,0.0,0.0,0.0,0.0,0.0,0.0,6.9847,7.9415,8.6728,9.1469,9.1041,9.047,9.0041,8.1046,7.3869,0.0,0.0,0.0,0.0,0.0,0.0,0.0,0.0,0.0,0.0,0.0,0.0,0.0,0.0,0.0,0.0,0.0,0.0,0.0,0.0,0.0,0.0,0.0,0.0,0.0,0.0,0.0,0.0,0.0,0.0,0.0,0.0,0.0,0.0,0.0,0.0,0.0,0.0,0.0,0.0,0.0,0.0,6.9124,6.9506,0.0,0.0,0.0,6.813,6.92,0.0,0.0,0.0,0.0,0.0,0.0,0.0,0.0,0.0,0.0,0.0,0.0,0.0,0.0,0.0,0.0,0.0,0.0,0.0,0.0,0.0,0.0,0.0,0.0,0.0,0.0,0.0,0.0,0.0,0.0,0.0,0.0,0.0,0.0,0.0,0.0,0.0,0.0,0.0,0.0,0.0,0.0,0.0,0.0,0.0,0.0,0.0,0.0,0.0,0.0,0.0,0.0,0.0,0.0,0.0,0.0,0.0,7.0262,8.2172,8.9175,9.0834,9.1213,9.0643,8.8961,8.0155,0.0,0.0,0.0,0.0,0.0,0.0,0.0,0.0,0.0,0.0,0.0,0.0,0.0,0.0,0.0,0.0,0.0,0.0,0.0,0.0,0.0,0.0,0.0,0.0,0.0,0.0,0.0,3.6602,0.0,0.0,0.0,0.0,0.0,0.0,0.0,0.0,0.0,0.0,0.0,0.0,0.0,0.0,6.9697,7.2024,7.3633,7.4741,0.0,0.0,7.2474,7.2936,7.5161,7.3628,0.0,0.0,0.0,0.0,0.0,0.0,0.0,0.0,0.0,0.0,0.0,0.0,0.0,0.0,0.0,0.0,0.0,0.0,0.0,0.0,0.0,0.0,0.0,0.0,0.0,0.0,0.0,0.0,0.0,0.0,0.0,0.0,0.0,0.0,0.0,0.0,0.0,0.0,0.0,0.0,0.0,0.0,0.0,0.0,0.0,0.0,0.0,0.0,0.0,0.0,0.0,0.0,0.0,0.0,0.0,6.9944,8.1321,8.8435,9.0815,9.1482,9.0637,8.8316,8.3972,7.7039,0.0,0.0,0.0,0.0,0.0,0.0,0.0,0.0,0.0,0.0,0.0,0.0,0.0,0.0,0.0,0.0,0.0,0.0,0.0,0.0,0.0,0.0,0.0,0.0,0.0,0.0,0.0,0.0,0.0,0.0,0.0,0.0,0.0,0.0,0.0,0.0,0.0,0.0,0.0,0.0,0.0,7.1229,7.0644,7.5314,7.9441,0.0,0.0,7.8022,7.9589,8.383,8.2383,6.8581,0.0,0.0,0.0,0.0,0.0,0.0,0.0,0.0,0.0,0.0,0.0,0.0,0.0,0.0,0.0,0.0,0.0,0.0,0.0,0.0,0.0,0.0,0.0,0.0,0.0,0.0,0.0,0.0,0.0,0.0,0.0,0.0,0.0,0.0,0.0,0.0,0.0,0.0,0.0,0.0,0.0,0.0,0.0,0.0,0.0,0.0,0.0,0.0,0.0,0.0,0.0,0.0,0.0,6.4494,7.1083,8.2114,8.8981,9.1343,9.1708,9.0644,8.8244,8.4859,7.7956,0.0,0.0,0.0,0.0,0.0,0.0,0.0,0.0,0.0,0.0,0.0,0.0,0.0,0.0,0.0,0.0,0.0,0.0,0.0,0.0,0.0,0.0,0.0,0.0,0.0,0.0,0.0,0.0,4.4669,4.5089,4.3558,0.0,0.0,0.0,0.0,0.0,0.0,0.0,0.0,0.0,0.0,7.3862,7.764,8.1003,0.0,0.0,8.3176,8.2111,8.2765,8.3147,8.0124,7.0529,6.5681,0.0,0.0,0.0,0.0,0.0,0.0,0.0,0.0,0.0,0.0,0.0,0.0,0.0,0.0,0.0,0.0,0.0,0.0,0.0,0.0,0.0,0.0,0.0,0.0,0.0,0.0,0.0,0.0,0.0,0.0,0.0,0.0,0.0,0.0,0.0,0.0,0.0,0.0,0.0,0.0,0.0,0.0,0.0,0.0,0.0,0.0,0.0,0.0,0.0,0.0,0.0,0.0,6.4949,7.1434,8.2523,8.9268,9.1378,9.1668,9.0762,8.857,8.5511,7.9171,0.0,0.0,0.0,0.0,0.0,0.0,0.0,0.0,0.0,0.0,0.0,0.0,0.0,0.0,0.0,0.0,0.0,0.0,0.0,0.0,0.0,0.0,0.0,0.0,0.0,0.0,0.0,0.0,4.7076,4.7155,4.5127,0.0,0.0,0.0,0.0,0.0,0.0,0.0,0.0,0.0,0.0,7.6384,8.1509,8.3911,8.543,8.6265,8.4365,8.2994,8.3491,8.2034,7.8596,7.1871,0.0,0.0,0.0,0.0,0.0,0.0,0.0,0.0,0.0,0.0,0.0,0.0,0.0,0.0,0.0,0.0,0.0,0.0,0.0,0.0,0.0,0.0,0.0,0.0,0.0,0.0,0.0,0.0,0.0,0.0,0.0,0.0,0.0,0.0,0.0,0.0,0.0,0.0,0.0,0.0,0.0,0.0,0.0,0.0,0.0,0.0,0.0,0.0,0.0,0.0,0.0,0.0,0.0,0.0,7.0577,8.2224,8.8978,9.0618,9.1378,9.1016,8.936,8.6353,8.1201,7.3732,0.0,0.0,0.0,0.0,0.0,0.0,0.0,0.0,0.0,0.0,0.0,0.0,0.0,0.0,0.0,0.0,0.0,0.0,0.0,0.0,0.0,0.0,0.0,0.0,0.0,0.0,4.4314,4.4895,4.5127,0.0,0.0,0.0,0.0,0.0,0.0,0.0,0.0,0.0,0.0,7.1519,7.8519,8.0391,8.2765,8.4747,8.5545,8.2225,8.0095,8.1767,8.1767,7.9474,0.0,0.0,0.0,0.0,0.0,0.0,0.0,0.0,0.0,0.0,0.0,0.0,0.0,0.0,0.0,0.0,0.0,0.0,0.0,0.0,0.0,0.0,0.0,0.0,0.0,0.0,0.0,0.0,4.7046,0.0,0.0,0.0,0.0,0.0,0.0,0.0,0.0,0.0,0.0,0.0,6.0332,6.1805,0.0,0.0,0.0,0.0,0.0,0.0,0.0,0.0,0.0,0.0,0.0,0.0,6.5344,7.2929,8.2487,8.8761,9.1306,9.1658,9.1016,8.9422,8.7855,8.1663,7.0328,0.0,0.0,0.0,0.0,0.0,0.0,0.0,0.0,0.0,0.0,0.0,0.0,0.0,0.0,0.0,0.0,0.0,0.0,0.0,0.0,0.0,0.0,0.0,0.0,0.0,4.6459,0.0,0.0,0.0,0.0,0.0,0.0,0.0,0.0,0.0,0.0,0.0,6.1818,6.7939,7.4087,7.924,8.2531,8.4704,8.6653,0.0,0.0,0.0,0.0,0.0,0.0,0.0,0.0,0.0,0.0,0.0,0.0,0.0,0.0,6.9078,5.9599,5.7807,5.7734,5.7466,0.0,0.0,0.0,0.0,0.0,0.0,0.0,0.0,0.0,0.0,0.0,0.0,0.0,0.0,0.0,0.0,5.3269,0.0,0.0,0.0,0.0,0.0,0.0,0.0,0.0,6.2708,6.6163,6.7949,6.968,6.9325,0.0,6.5205,5.9865,0.0,0.0,0.0,0.0,0.0,0.0,0.0,0.0,6.6671,7.3672,8.2749,8.8626,9.0825,9.1233,9.0762,8.9396,8.7285,8.1192,7.0791,6.533,5.9687,0.0,0.0,0.0,0.0,0.0,0.0,0.0,0.0,0.0,0.0,0.0,0.0,0.0,0.0,0.0,0.0,0.0,0.0,0.0,0.0,0.0,0.0,0.0,4.8831,0.0,0.0,0.0,0.0,0.0,0.0,0.0,0.0,0.0,5.7584,6.2242,6.7863,7.3938,7.8137,8.1423,8.3529,0.0,0.0,0.0,0.0,0.0,0.0,0.0,7.7836,7.6986,7.5343,7.4545,7.5849,7.787,7.8939,7.7798,0.0,0.0,6.8466,6.6216,6.6025,6.6067,6.6716,6.7519,6.836,7.0312,7.1951,0.0,0.0,0.0,0.0,0.0,0.0,0.0,0.0,6.2643,6.2093,0.0,5.9579,0.0,0.0,0.0,0.0,0.0,0.0,0.0,0.0,7.2879,7.6275,7.4384,7.652,7.6412,0.0,7.4701,7.1414,6.4489,5.6322,0.0,0.0,0.0,0.0,0.0,0.0,6.8054,7.308,8.2921,8.8543,8.9432,9.0157,9.0193,8.9287,8.4878,8.0196,7.5389,7.0718,6.5656,6.0043,5.455,0.0,0.0,0.0,0.0,0.0,0.0,0.0,0.0,0.0,0.0,0.0,0.0,0.0,0.0,0.0,0.0,0.0,0.0,0.0,0.0,5.0124,0.0,0.0,0.0,0.0,0.0,0.0,0.0,0.0,0.0,0.0,6.4695,6.9506,7.4894,7.9742,0.0,0.0,0.0,0.0,8.5965,8.3759,8.1924,8.127,8.2187,8.276,8.2841,8.2149,0.0,0.0,8.276,8.2149,8.1805,8.0095,8.3109,8.4628,8.127,7.7139,7.5076,7.6456,7.5004,7.4359,7.6498,7.8409,7.9823,7.2307,0.0,0.0,0.0,0.0,6.6757,6.9619,7.3913,7.3913,7.1849,6.8408,6.7945,0.0,0.0,0.0,0.0,0.0,0.0,6.6627,7.0943,7.4863,7.7805,7.9942,8.1174,8.1101,7.987,7.8367,7.6022,7.2814,6.8686,6.1364,5.1321,0.0,0.0,0.0,0.0,7.0219,7.613,8.3012,8.7467,8.935,8.9603,8.935,8.8543,8.5619,8.2296,7.8657,7.5551,7.1096,6.5011,6.0484,0.0,0.0,0.0,0.0,0.0,0.0,0.0,0.0,0.0,0.0,0.0,0.0,0.0,0.0,0.0,0.0,0.0,0.0,0.0,4.8413,5.0973,5.2311,0.0,0.0,0.0,0.0,0.0,0.0,0.0,0.0,0.0,7.4516,7.4821,7.6197,0.0,0.0,8.2455,8.1351,8.4408,8.7198,8.8257,0.0,0.0,0.0,8.7498,8.6041,8.6996,8.9676,9.0861,8.8486,8.906,8.9523,8.8382,8.8683,8.8787,8.7799,8.478,8.2794,8.352,8.2832,8.2569,8.4446,8.6161,8.734,8.1055,7.4869,7.2001,7.174,7.3241,7.3885,7.661,8.0621,8.0594,7.8955,7.6203,7.5261,7.145,6.562,6.3599,0.0,0.0,0.0,7.174,7.681,7.8086,8.0304,8.3211,8.4071,8.4035,8.3211,8.1789,8.0268,7.8647,7.6275,7.0328,0.0,0.0,0.0,6.0919,6.7431,7.3152,7.7977,8.3483,8.7032,8.8408,8.8444,8.8217,8.7747,8.5475,8.3166,8.092,7.824,7.4726,7.0255,6.5366,6.0026,0.0,0.0,0.0,0.0,0.0,0.0,0.0,0.0,0.0,0.0,0.0,4.3573,0.0,0.0,0.0,0.0,4.6762,4.9829,5.3037,5.4936,0.0,0.0,0.0,0.0,0.0,0.0,0.0,6.6083,7.1602,7.6713,8.0791,8.0378,8.0838,8.4073,8.4971,8.4976,8.4098,0.0,8.9223,9.0435,9.0626,9.1046,9.2351,9.0746,8.9862,9.151,9.2727,9.3421,9.2804,9.3186,9.3535,9.3311,9.2886,9.258,9.258,9.0626,8.8792,8.8367,8.7603,8.7727,8.9676,9.0893,9.1772,8.7118,8.3909,7.8414,7.6884,7.828,7.9791,8.1789,8.3926,8.3963,8.389,8.3637,8.1309,7.8512,7.5281,7.1756,0.0,0.0,7.4194,7.7019,8.1409,8.2152,8.3311,8.4796,8.5556,8.552,8.4796,8.4723,8.3926,8.2405,8.0159,7.7462,7.4347,7.0762,6.8734,6.8553,7.2855,7.6403,7.8919,8.4017,8.6805,8.6977,8.7022,8.7022,8.6986,8.4651,8.3021,8.2161,7.9181,7.6774,7.51,6.935,6.4251,6.0115,0.0,0.0,0.0,0.0,0.0,0.0,0.0,0.0,0.0,0.0,0.0,0.0,0.0,0.0,0.0,5.278,0.0,5.966,6.0644,0.0,0.0,0.0,5.9983,6.2636,6.5912,6.9123,7.2263,0.0,0.0,0.0,0.0,8.7493,9.0383,9.0655,9.0282,8.9409,9.0708,9.1739,9.1156,9.1156,9.1543,9.2695,9.3109,9.3835,9.5102,9.5096,9.4829,9.5222,9.4834,9.4752,9.514,9.5407,9.5255,9.5331,9.4332,9.3568,9.1123,9.0124,9.0287,9.2307,9.3,9.3459,8.8521,8.6673,8.5217,8.4265,8.3755,8.465,8.6199,8.7964,8.7983,8.7331,8.6126,8.4361,8.178,7.8729,7.8403,7.8584,7.9128,7.9942,8.1572,8.3782,8.4035,8.4651,8.5583,8.5801,8.5801,8.5583,8.4968,8.4506,8.4071,8.2948,8.102,7.8548,7.7498,7.4935,7.0943,7.4211,7.7507,8.0504,8.3048,8.5221,8.695,8.7022,8.6733,8.6199,8.3863,8.2188,8.1382,7.8883,7.7036,7.5985,7.2219,6.83,6.4323,5.6428,0.0,0.0,0.0,0.0,0.0,0.0,0.0,0.0,0.0,5.0522,4.3473,0.0,5.2605,0.0,5.5557,5.9711,6.1629,6.2093,0.0,0.0,6.4569,6.5243,6.9621,7.249,7.4685,7.6087,8.1007,8.4715,8.5712,8.8652,9.1017,9.1934,9.1219,9.0282,8.9518,9.1925,9.3721,9.3628,9.4932,9.6357,9.639,9.6733,9.6701,9.6592,9.6401,9.6172,9.568,9.4949,9.4485,9.4605,9.4108,9.3764,9.3764,9.353,9.33,9.2656,9.2351,9.2345,9.3,9.3612,9.4026,8.8353,8.7292,8.727,8.7136,8.6834,8.6641,8.7597,8.9225,8.8886,8.8476,8.8046,8.6805,8.4886,8.2677,8.3401,8.3718,8.3763,8.4207,8.5076,8.6226,8.6262,8.6479,8.6914,8.6914,8.6733,8.637,8.5945,8.5547,8.5185,8.4434,8.3347,8.2034,8.1672,7.9752,7.6501,7.7362,7.8955,8.1083,8.3057,8.4832,8.6452,8.6515,8.5801,8.4325,8.2659,8.073,7.8503,7.6456,7.4835,7.3676,7.0951,6.809,6.512,5.8854,5.382,0.0,0.0,0.0,0.0,0.0,0.0,0.0,0.0,0.0,0.0,0.0,5.6643,0.0,0.0,0.0,6.6321,6.6973,6.8421,7.1318,7.1119,7.218,7.5742,7.8012,7.9891,8.1435,8.474,8.7338,8.8421,9.0524,9.211,9.2577,9.2254,9.1931,9.2025,9.4025,9.5596,9.5628,9.701,9.7956,9.7618,9.7236,9.6854,9.6439,9.633,9.6133,9.568,9.5255,9.4949,9.4905,9.4529,9.4223,9.4223,9.4223,9.4223,9.4228,9.4223,9.407,9.3759,9.4065,9.4294,8.7719,8.7028,8.7028,8.751,8.8115,8.6974,8.7489,8.916,8.8472,8.853,8.913,8.8316,8.7257,8.6063,8.6561,8.6918,8.7148,8.6899,8.7279,8.8162,8.8054,8.8064,8.8198,8.8198,8.7846,8.7158,8.7158,8.6805,8.6163,8.5412,8.4895,8.4687,8.389,8.3066,8.2115,8.0839,8.054,8.1264,8.3519,8.5049,8.5728,8.5547,8.4325,8.2088,8.102,7.8693,7.4955,7.3442,7.1994,7.046,6.8496,6.6714,6.5163,6.052,5.6862,0.0,5.1679,0.0,0.0,0.0,0.0,0.0,0.0,0.0,0.0,5.9535,6.1305,6.4019,6.5962,6.8481,7.1888,7.3045,7.4603,7.7009,7.7929,7.9032,8.0644,8.2416,8.4352,8.6519,8.7601,8.9097,9.0914,9.1643,9.2208,9.281,9.3603,9.416,9.4841,9.5824,9.6593,9.6941,9.7389,9.7225,9.6684,9.6007,9.5544,9.5421,9.545,9.5456,9.5321,9.5295,9.5318,9.5306,9.5189,9.5219,9.5335,9.5274,9.5341,9.5299,9.5209,9.5013,9.4675,9.4561,9.4791,8.8463,8.782,8.7786,8.7572,8.7165,8.6925,8.791,8.9753,8.9577,8.8943,8.7916,8.7103,8.665,8.6494,8.5889,8.6488,8.7857,8.634,8.6549,8.8178,8.7336,8.7433,8.8178,8.8198,8.8135,8.799,8.7954,8.7882,8.7747,8.695,8.5936,8.4687,8.389,8.2767,0.0,0.0,0.0,0.0,8.3818,8.4796,8.4868,8.3637,8.2152,8.0404,7.8312,0.0,7.3333,7.2855,7.1957,7.0532,7.0524,0.0,0.0,0.0,0.0,0.0,0.0,0.0,0.0,0.0,0.0,0.0,6.2917,6.2538,6.1584,6.4404,6.7014,6.869,7.0573,7.2761,7.5295,7.6593,7.7916,7.9417,8.0642,8.1716,8.2574,8.4738,8.6456,8.6861,8.8774,9.0236,9.0813,9.2343,9.3376,9.3221,9.4675,9.5655,9.5384,9.5438,9.5606,9.6124,9.6132,9.5558,9.5296,9.5195,9.4881,9.4323,9.4655,9.4766,9.4318,9.4115,9.4087,9.4146,9.4067,9.4101,9.4094,9.406,9.4318,9.4788,9.4452,9.4316,9.5156,9.5364,9.5407,8.956,0.0,8.8937,8.8666,0.0,0.0,8.8579,8.9515,8.9255,8.8998,8.8685,8.7936,8.7653,8.7661,8.6833,8.6973,8.7875,8.6895,8.6973,8.785,8.7371,8.7678,8.8639,8.813,8.7947,8.8008,8.7547,8.7112,8.6787,8.6819,8.6457,8.5676,8.5374,8.4813,8.4053,8.4415,8.4424,8.4071,8.5221,8.6054,8.637,8.561,8.3881,8.1174,0.0,0.0,0.0,0.0,0.0,0.0,0.0,0.0,0.0,0.0,0.0,6.491,6.3503,6.2776,6.3225,6.4698,6.6613,6.9006,7.0975,7.0757,6.765,6.9916,7.2296,7.4191,7.5345,7.6941,7.9231,8.003,8.0826,8.196,8.3319,8.4299,8.4856,8.6608,8.8059,8.8625,8.9705,9.0768,9.1721,9.2735,9.3588,9.3722,9.4614,9.5441,9.5552,9.5965,9.6554,9.7228,9.6659,9.6148,9.6066,9.5353,9.4812,9.4421,9.4309,9.4309,9.4309,9.3971,9.3791,9.4121,9.3971,9.3678,9.3678,9.3678,9.381,9.4074,9.394,9.3882,9.4551,9.4654,9.4654,9.0608,8.956,9.0154,9.0053,8.9492,8.9357,8.9221,8.9054,0.0,0.0,0.0,8.8797,8.8558,8.8644,8.7731,8.7466,8.7784,8.7291,8.7256,8.7597,8.741,8.7863,8.879,8.7989,8.766,8.7819,8.6992,8.6322,8.5749,8.6508,8.6933,8.69,8.7134,8.724,8.7194,8.7348,8.7131,8.6561,8.6841,8.7302,8.7954,8.7737,8.5909,8.2378,8.1382,7.844,7.3333,7.2046,7.0633,6.8952,6.8481,6.8517,6.9024,6.9053,6.9358,6.9952,7.017,7.0532,7.1213,7.2183,7.3523,7.5253,7.7796,7.776,7.4058,7.5208,7.7019,7.9173,7.9465,8.0532,8.293,8.3165,8.3574,8.4654,8.5837,8.6611,8.6821,8.8079,8.9311,9.0099,9.0492,9.1225,9.2739,9.3335,9.3712,9.4373,9.4787,9.4923,9.566,9.6657,9.7474,9.7885,9.7225,9.6935,9.6818,9.5753,9.4822,9.4451,9.3967,9.3857,9.4268,9.3932,9.3745,9.4293,9.3887,9.3399,9.3348,9.3428,9.3604,9.374,9.3776,9.3791,9.377,9.3821,9.3882,9.1169,9.1014,9.1102,9.1068,9.0932,9.029,8.9681,8.9066,8.8372,8.8116,8.8232,8.747,8.7641,8.8366,8.6763,8.7004,8.8438,8.6138,8.5946,0.0,8.6728,8.6826,8.7783,8.7667,8.7608,8.7653,8.748,8.7386,8.7315,8.7572,8.7718,8.7753,8.7927,8.8027,8.8099,8.8724,8.9034,8.8889,8.7638,8.7049,8.7158,8.5863,8.4289,8.2378,8.0911,7.844,7.4955,7.5225,7.44,7.2211,7.3253,7.3687,7.3108,7.308,7.3108,7.3261,7.3913,7.4303,7.4484,7.6456,7.8702,8.0848,8.1545,8.0666,7.8195,7.9309,8.0685,8.1681,8.1834,8.2813,8.506,8.5489,8.6026,8.7301,8.8056,8.8369,8.8192,8.9178,8.9902,9.0168,9.1271,9.2243,9.2954,9.4054,9.4899,9.5353,9.5768,9.6355,9.6448,9.6698,9.6858,9.6851,9.6299,9.5811,9.5892,9.5055,9.4316,9.3444,9.3395,9.3401,9.3668,9.3013,9.2791,9.3277,9.2913,9.2324,9.2224,9.2671,9.3272,9.3772,9.4006,9.4114,9.3999,9.4091,9.4077,9.2063,9.1406,9.1696,9.1677,9.1271,9.0932,9.0594,9.0222,8.9512,8.897,8.8545,8.782,8.777,8.8053,8.6935,8.6884,8.7685,8.6416,8.6326,8.7156,8.6751,8.7066,8.7904,8.7477,8.7295,8.7376,8.6868,8.6397,8.6037,8.6598,8.7197,8.7752,8.8496,8.8833,8.8869,8.9205,8.9613,9.0038,8.9314,8.8942,8.8951,8.8263,8.7141,8.5547,8.399,8.207,7.9752,7.8738,7.776,7.6674,7.6882,7.7063,7.7136,7.7172,7.7353,7.7779,7.815,7.854,7.8955,8.0449,8.197,8.3456,8.3999,8.399,8.3292,8.2677,8.2903,8.4108,8.4252,8.504,8.6914,8.7208,8.7517,8.8109,8.8754,8.9085,8.9163,9.0209,9.1006,9.1232,9.2269,9.3326,9.4004,9.4824,9.5607,9.6042,9.6539,9.6722,9.6722,9.6722,9.6722,9.6695,9.6392,9.6171,9.6088,9.5465,9.485,9.4437,9.4042,9.3969,9.4217,9.3712,9.3565,9.4107,9.3382,9.2611,9.2501,9.2794,9.3198,9.3407,9.3978,9.4191,9.4216,9.4228,9.4196,9.2909,9.1894,9.2455,9.2237,9.1575,9.1541,9.1474,9.1237,9.0696,9.0121,8.9526,8.8632,8.826,8.8158,8.7482,8.713,8.713,8.6961,8.6893,8.6893,8.6893,8.73,8.7944,8.7253,8.6981,8.7108,8.641,8.5723,8.5289,8.5956,8.6926,8.7931,8.8872,8.9513,8.9929,8.9939,9.0255,9.0835,9.0871,9.0762,9.0618,9.0628,8.9883,8.8543,8.7322,8.5919,8.4316,8.2496,8.1445,8.1228,8.0476,8.0332,8.0911,8.0802,8.0975,8.1554,8.1626,8.207,8.3057,8.3673,8.447,8.5402,8.6054,8.667,8.7022,8.5619,8.504,8.6199,8.638,8.6986,8.8181,8.8435,8.8534,8.8715,8.9449,8.9985,9.0084,9.1233,9.2117,9.237,9.3158,9.4064,9.4904,9.5408,9.589,9.65,9.6722,9.6722,9.6722,9.6722,9.6722,9.6722,9.6722,9.6649,9.6649,9.6015,9.5501,9.5501,9.4777,9.4666,9.4997,9.4777,9.4666,9.5024,9.4299,9.3492,9.3382,9.3602,9.3731,9.3933,9.4511,9.4942,9.498,9.4741,9.4458,9.3484,9.3383,9.3451,9.303,9.2339,9.2305,9.1933,9.1372,9.1203,9.1169,9.0932,8.9627,8.9018,8.8883,8.8226,8.7955,8.7854,8.7198,8.6961,8.6961,8.6893,8.6961,8.7145,8.6982,8.6914,8.6969,8.6846,8.6724,8.6589,8.6971,8.7786,8.885,8.9078,8.9962,9.1339,9.1529,9.1585,9.1694,9.1668,9.1342,9.0654,9.0628,9.0193,8.9324,8.9133,8.8336,8.6696,8.6479,8.6008,8.5366,8.4533,8.4144,8.4171,8.36,8.3202,8.3311,8.3311,8.3926,8.5366,8.5656,8.6308,8.7701,8.7918,8.8063,8.8171,8.7954,8.7809,8.8063,8.8063,8.8398,8.9169,8.935,8.9712,9.0354,9.1042,9.1595,9.1632,9.2356,9.2899,9.2909,9.368,9.4337,9.4913,9.5506,9.6093,9.6581,9.6794,9.6776,9.6722,9.6795,9.6759,9.6722,9.6722,9.6722,9.6612,9.6015,9.5685,9.552,9.4896,9.4887,9.5254,9.507,9.4593,9.5428,9.4887,9.4263,9.4336,9.4694,9.5134,9.5024,9.5575,9.6392,9.6355,9.5868,9.5228,9.3601,9.3601,9.3601,9.3417,9.3131,9.3098,9.2928,9.2638,9.2136,9.1933,9.1831,9.0865,9.0169,8.9782,8.9884,8.9526,8.868,8.8801,8.8632,8.8226,8.8192,8.8206,8.8192,8.8206,8.7989,8.7583,8.755,8.7313,8.7084,8.7588,8.8206,8.8702,8.9249,9.0276,9.1466,9.1577,9.1868,9.247,9.2491,9.2346,9.1947,9.1088,9.0446,9.011,8.964,8.9133,8.8444,8.799,8.7566,8.7276,8.695,8.6769,8.6769,8.6443,8.6262,8.6262,8.6298,8.6552,8.7203,8.7276,8.7747,8.8833,8.9386,8.9811,9.0318,9.0752,9.1032,9.0923,9.0173,8.9956,9.069,9.1233,9.1668,9.1994,9.2346,9.2491,9.2527,9.3215,9.3722,9.3768,9.4534,9.513,9.5361,9.5711,9.613,9.6516,9.6868,9.709,9.683,9.7089,9.7163,9.6832,9.6722,9.6722,9.6685,9.6502,9.6208,9.6135,9.5951,9.5951,9.5988,9.5988,9.5878,9.6125,9.5501,9.5024,9.5024,9.5171,9.5501,9.5685,9.6125,9.6722,9.6722,9.6465,9.5914,9.4026,9.4195,9.4195,9.4195,9.4195,9.3992,9.3924,9.3774,9.3049,9.2745,9.2677,9.215,9.1508,9.0918,9.1169,9.071,8.9864,9.0256,9.0222,8.9729,8.9695,8.9681,8.9695,8.9695,8.9323,8.8714,8.8632,8.8125,8.7395,8.7881,8.8337,8.8493,8.9143,9.0246,9.159,9.1749,9.2259,9.3241,9.3324,9.3251,9.2889,9.1885,9.1269,9.1197,9.0473,9.0048,9.0048,8.9268,8.8859,8.8869,8.8642,8.8543,8.8543,8.8316,8.8198,8.8198,8.8198,8.8425,8.8797,8.8869,8.9304,9.0292,9.0943,9.1523,9.2102,9.2672,9.2961,9.2853,9.2102,9.1849,9.2066,9.2636,9.2961,9.2998,9.3143,9.3324,9.3396,9.4048,9.4529,9.4612,9.5115,9.5742,9.6006,9.6243,9.6528,9.7024,9.7273,9.7522,9.7168,9.7308,9.7161,9.6841,9.6695,9.656,9.6657,9.6649,9.6722,9.6722,9.6575,9.6575,9.6722,9.6685,9.6685,9.6392,9.6015,9.5868,9.5832,9.5832,9.5832,9.5942,9.6318,9.6722,9.6722,9.6685,9.6465,9.506,9.565,9.5669,9.5635,9.5635,9.4958,9.4639,9.462,9.3842,9.3552,9.3552,9.3451,9.303,9.2237,9.1711,9.1285,9.1184,9.1203,9.1217,9.1068,9.1102,9.1169,9.1217,9.1184,9.0797,9.0039,8.9903,8.9241,8.8037,8.8052,8.8143,8.8433,8.8558,8.9895,9.2029,9.2398,9.3061,9.3922,9.4079,9.3831,9.3179,9.2961,9.2889,9.2817,9.2102,9.1632,9.1595,9.0907,9.0509,9.0509,8.9857,8.9432,8.935,8.8761,8.8425,8.8389,8.8353,8.8978,9.0292,9.0509,9.1088,9.2454,9.2708,9.2889,9.2925,9.3117,9.3215,9.307,9.3613,9.365,9.3143,9.3215,9.3215,9.3215,9.3758,9.412,9.4157,9.4783,9.5264,9.5336,9.5549,9.5995,9.6754,9.7054,9.7428,9.7807,9.7671,9.7519,9.7878,9.7102,9.682,9.6903,9.6668,9.618,9.6579,9.6684,9.6693,9.6722,9.6722,9.6722,9.6722,9.6722,9.6722,9.6722,9.6539,9.6502,9.6612,9.6612,9.6539,9.6539,9.6502,9.6722,9.6722,9.6722,9.6465,9.5567,9.5804,9.5804,9.5804,9.577,9.5499,9.5398,9.533,9.462,9.4315,9.4214,9.3823,9.3436,9.318,9.2909,9.2232,9.1406,9.1778,9.1764,9.1338,9.1305,9.1305,9.1305,9.1305,9.1203,9.0899,9.0425,8.9681,8.8815,8.8714,8.8773,8.8817,8.8845,8.973,9.1229,9.2064,9.2918,9.3883,9.4564,9.4819,9.4539,9.4539,9.4529,9.4467,9.3261,9.2563,9.2573,9.2273,9.2139,9.2139,9.1849,9.1694,9.1704,9.144,9.1296,9.1286,9.1259,9.1513,9.2056,9.2139,9.2346,9.2925,9.3468,9.3794,9.3867,9.4203,9.4529,9.4602,9.4757,9.4793,9.4638,9.4539,9.4539,9.4576,9.4793,9.5,9.501,9.5228,9.559,9.6097,9.6568,9.7118,9.7327,9.7557,9.7761,9.8141,9.8391,9.849,9.8422,9.8224,9.7948,9.7323,9.6978,9.6704,9.6433,9.6492,9.6521,9.6674,9.6722,9.6722,9.6759,9.6722,9.6722,9.6722,9.6722,9.6722,9.6685,9.6685,9.6722,9.6722,9.6722,9.6722,9.6722,9.6722,9.6465,9.6394,9.621,9.6413,9.6514,9.648,9.6259,9.6157,9.6041,9.5398,9.506,9.4909,9.4282,9.406,9.4229,9.4093,9.3571,9.2774,9.2827,9.2522,9.2049,9.2029,9.2063,9.2015,9.2063,9.1913,9.1575,9.0932,9.029,8.9864,8.9796,8.9796,8.9811,8.9796,9.0364,9.1385,9.2256,9.3164,9.4151,9.4976,9.5409,9.5409,9.5409,9.5409,9.5264,9.4322,9.365,9.3396,9.3143,9.2998,9.2998,9.2998,9.2998,9.2998,9.2998,9.2998,9.2998,9.2961,9.3251,9.366,9.3541,9.3722,9.4482,9.4783,9.5026,9.5315,9.5869,9.6133,9.6169,9.6169,9.6169,9.6169,9.6169,9.6071,9.5916,9.6025,9.6169,9.6169,9.6169,9.6459,9.693,9.7365,9.7836,9.8125,9.8198,9.8408,9.8682,9.9102,9.9043,9.9113,9.8853,9.889,9.7954,9.7559,9.7325,9.7207,9.7221,9.7163,9.7247,9.7078,9.7014,9.6886,9.6813,9.6712,9.6722,9.6722,9.6722,9.6722,9.6722,9.6722,9.6722,9.6722,9.6722,9.6722,9.6722,9.6502,9.7514,9.7037,9.7664,9.7852,9.7717,9.7172,9.6902,9.6766,9.6123,9.5804,9.5702,9.5026,9.5026,9.5432,9.4958,9.4992,9.5127,9.4229,9.362,9.3484,9.3451,9.3417,9.3383,9.3364,9.2962,9.2305,9.1643,9.1271,9.1102,9.1082,9.1102,9.1203,9.1116,9.1478,9.2739,9.2993,9.3807,9.4666,9.5198,9.5469,9.5445,9.559,9.5626,9.559,9.5445,9.5109,9.4374,9.3613,9.3324,9.3251,9.3287,9.3106,9.3324,9.3324,9.3189,9.3334,9.3215,9.395,9.5119,9.4772,9.5435,9.6738,9.693,9.6749,9.7209,9.751,9.7582,9.751,9.7582,9.7655,9.7618,9.7655,9.7401,9.6821,9.7147,9.751,9.7618,9.7763,9.7799,9.7825,9.797,9.8198,9.8767,9.902,9.9259,9.9658,9.9535,9.9401,9.9734,9.9129,9.8484,9.8556,9.8306,9.79,9.7989,9.8089,9.8018,9.7964,9.7704,9.7486,9.7295,9.7158,9.6747,9.6693,9.6722,9.6722,9.6722,9.6722,9.6722,9.6722,9.6722,9.6722,9.6722,9.6722,9.6722,9.7666,9.7683,9.7886,9.7987,9.7953,9.7766,9.7664,9.7563,9.6868,9.6563,9.6413,9.577,9.5616,9.5702,9.5533,9.5567,9.5736,9.5263,9.4857,9.4349,9.3857,9.3654,9.362,9.3634,9.318,9.2508,9.217,9.1764,9.1406,9.1338,9.1305,9.1305,9.1338,9.1457,9.1945,9.2642,9.3575,9.4669,9.5495,9.6221,9.6953,9.7028,9.7028,9.7064,9.7075,9.6894,9.6666,9.5905,9.5507,9.5435,9.6025,9.605,9.5579,9.5481,9.5471,9.5543,9.6014,9.6449,9.6894,9.6811,9.6883,9.7608,9.7582,9.7535,9.7763,9.7872,9.7908,9.7872,9.7799,9.7799,9.7872,9.8332,9.826,9.751,9.7644,9.7908,9.8017,9.8332,9.8585,9.8694,9.9093,9.9563,9.9744,9.9781,9.9853,10.0096,9.9926,9.9951,9.9987,9.9708,9.9201,9.9056,9.8716,9.8542,9.8551,9.872,9.8869,9.8639,9.8323,9.8174,9.7931,9.7337,9.6936,9.6664,9.6703,9.6703,9.6703,9.6703,9.6684,9.6712,9.6712,9.6712,9.6722,9.6722,9.6722,9.7521,9.7817,9.7817,9.7817,9.7833,9.7941,9.7987,9.7935,9.7529,9.7308,9.7172,9.6529,9.6379,9.6514,9.6345,9.6379,9.6582,9.6345,9.5954,9.5466,9.477,9.4432,9.4364,9.4127,9.3774,9.3286,9.2981,9.2624,9.2199,9.215,9.2165,9.2165,9.2165,9.2199,9.2213,9.2906,9.372,9.4472,9.5493,9.645,9.7088,9.7579,9.7799,9.7799,9.7799,9.797,9.8151,9.7752,9.7365,9.7173,9.7535,9.751,9.7075,9.7003,9.7039,9.7147,9.7463,9.7861,9.8162,9.7872,9.8151,9.8513,9.8694,9.8694,9.8767,9.8875,9.9056,9.873,9.873,9.8694,9.8803,9.9093,9.9165,9.8767,9.873,9.8694,9.8767,9.9129,9.9419,9.9527,9.9853,10.0143,10.0168,10.0168,10.0168,10.0168,10.0168,10.0168,10.0168,10.0168,9.9817,9.9563,9.9502,9.9303,9.9038,9.9273,9.9643,9.9341,9.8953,9.8909,9.8789,9.7768,9.7085,9.6753,9.6664,9.6541,9.6531,9.6541,9.6541,9.6589,9.6608,9.6628,9.6655,9.6703,9.6657,9.7175,9.744,9.7456,9.7523,9.7638,9.7952,9.8061,9.8058,9.8055,9.8003,9.78,9.724,9.7292,9.7664,9.7191,9.7258,9.7766,9.7258,9.6935,9.6699,9.621,9.5838,9.5499,9.4992,9.4721,9.4571,9.4045,9.374,9.3687,9.3586,9.3654,9.3552,9.3417,9.3518,9.3472,9.3823,9.4131,9.4559,9.5611,9.634,9.6635,9.7462,9.8013,9.8093,9.8234,9.8585,9.9129,9.9274,9.8875,9.8115,9.7934,9.7825,9.7836,9.7872,9.7861,9.7908,9.7934,9.8549,9.8839,9.8922,9.902,10.0179,10.0324,10.0324,10.0396,10.0795,10.0903,10.0396,10.0324,10.0324,10.0324,10.0396,10.0396,10.0349,10.0059,9.9998,10.0132,10.0179,10.0168,10.0143,10.0215,10.0252,10.0252,10.0168,10.024,10.0313,10.0313,10.0252,10.036,10.0396,10.024,10.0107,9.9962,9.9875,9.9553,9.9636,9.9923,9.9807,9.9474,9.9385,9.9244,9.8256,9.7549,9.7156,9.6822,9.667,9.6511,9.6657,9.6511,9.6365,9.6414,9.6492,9.6568,9.6568,9.6594,9.6825,9.7111,9.7127,9.7462,9.793,9.8297,9.8439,9.8471,9.8706,9.8497,9.8055,9.78,9.7852,9.7969,9.7834,9.7818,9.7969,9.7834,9.7698,9.7698,9.7563,9.6751,9.5973,9.5635,9.5514,9.5466,9.5195,9.5195,9.5176,9.4654,9.4417,9.4368,9.3924,9.3668,9.367,9.4243,9.4938,9.5695,9.6545,9.7624,9.8501,9.8932,9.9266,9.9581,10.0096,10.0458,10.082,10.1338,10.0951,9.96,9.8368,9.8078,9.8694,9.8803,9.885,9.8948,9.9817,10.0458,10.0722,10.1023,10.1494,10.1856,10.1856,10.1965,10.1965,10.2146,10.2182,10.1965,10.1965,10.1929,10.1929,10.1893,10.1929,10.182,10.0976,10.036,10.0385,10.0711,10.0892,10.0396,10.0759,10.0759,10.0505,10.024,10.0458,10.082,10.0711,10.0505,10.0831,10.0722,10.0577,10.0288,10.0143,10.0179,10.0107,10.0143,10.0154,10.014,9.9937,9.972,9.9384,9.8651,9.8275,9.8002,9.7694,9.7461,9.7159,9.7059,9.6721,9.6502,9.6568,9.6777,9.6442,9.6339,9.6459,9.6938,9.7245,9.7245,9.7679,9.8346,9.8719,9.8864,9.8862,9.9038,9.901,9.8733,9.8715,9.8794,9.8901,9.8612,9.8664,9.8867,9.8596,9.863,9.8867,9.8612,9.7834,9.692,9.6496,9.6259,9.6225,9.5939,9.577,9.5702,9.5364,9.5195,9.5093,9.4736,9.4533,9.4635,9.492,9.544,9.6205,9.7375,9.8624,9.9375,10.0434,10.094,10.1235,10.1664,10.1918,10.1954,10.2363,10.211,10.1204,10.0335,10.0045,10.0444,10.0516,10.0516,10.0541,10.1447,10.1881,10.1954,10.2363,10.2592,10.2653,10.2834,10.2834,10.2737,10.2834,10.3015,10.2581,10.2617,10.2581,10.2581,10.2581,10.2581,10.2436,10.1748,10.1193,10.1229,10.1628,10.1664,10.141,10.1302,10.1447,10.1121,10.0686,10.0867,10.1374,10.1218,10.141,10.1664,10.1302,10.094,10.0686,10.0577,10.065,10.0385,10.0288,10.0252,10.0215,10.0154,9.9977,9.9596,9.9046,9.8797,9.8594,9.8396,9.8162,9.7809,9.7554,9.7481,9.7314,9.7159,9.7069,9.6932,9.6733,9.677,9.7409,9.7671,9.7671,9.8104,9.8753,9.9098,9.9262,9.9262,9.9359,9.9454,9.9513,9.9579,9.9555,10.0041,9.9222,9.9417,9.9942,9.9237,9.9501,9.9602,9.9381,9.8669,9.7987,9.7292,9.7037,9.6969,9.6311,9.621,9.621,9.6041,9.5905,9.5838,9.5785,9.5736,9.5601,9.5804,9.592,9.6336,9.7826,9.8952,9.9621,10.094,10.1781,10.2307,10.2581,10.2798,10.2871,10.2979,10.2871,10.2871,10.2701,10.2338,10.2436,10.252,10.2447,10.24,10.2508,10.2726,10.2907,10.3124,10.3233,10.3523,10.3982,10.3728,10.3559,10.3812,10.3837,10.3197,10.2871,10.3052,10.3052,10.2943,10.3052,10.3088,10.2871,10.2846,10.2846,10.2762,10.2689,10.2617,10.1954,10.2099,10.1965,10.1603,10.1048,10.2352,10.2099,10.1918,10.2135,10.2037,10.1628,10.1229,10.1157,10.1193,10.0831,10.0433,10.0324,10.0288,10.0215,10.0089,9.9847,9.9438,9.9212,9.9062,9.9096,9.8814,9.8306,9.816,9.8124,9.7896,9.7632,9.7798,9.799,9.7715,9.7621,9.799,9.8056,9.8056,9.8487,9.9168,9.9536,9.9668,9.9702,9.9949,9.9763,9.9442,9.9341,9.9439,9.9503,9.9367,9.9269,9.9602,9.9417,9.9432,9.9739,9.9706,9.9323,9.8786,9.8138,9.78,9.7664,9.7597,9.748,9.736,9.6886,9.6665,9.6597,9.6225,9.5838,9.5973,9.6563,9.6665,9.6873,9.7834,9.9075,10.0097,10.0758,10.1742,10.2738,10.3341,10.3873,10.4308,10.4417,10.4417,10.4127,10.3414,10.2979,10.2871,10.2798,10.2871,10.3088,10.3378,10.3801,10.4344,10.4924,10.5576,10.5926,10.5998,10.618,10.5455,10.5394,10.5166,10.4598,10.4417,10.4308,10.4199,10.4344,10.4272,10.4199,10.4236,10.4272,10.4272,10.3837,10.3294,10.2907,10.2979,10.304,10.2701,10.2411,10.2436,10.3149,10.3004,10.2545,10.2617,10.2798,10.2472,10.2026,10.2026,10.2026,10.1483,10.1121,10.1012,10.0903,10.0759,10.065,10.0409,10.0162,10.009,9.9974,9.9879,9.947,9.8944,9.8803,9.8788,9.8443,9.8169,9.834,9.847,9.8395,9.8463,9.8702,9.8718,9.8718,9.9132,9.9746,9.9965,10.0033,10.0083,10.0218,10.0202,10.0051,10.0017,10.01,10.0181,9.9913,9.988,10.023,10.0411,10.0356,10.0382,10.0376,10.0163,9.9665,9.9171,9.8765,9.819,9.7953,9.7987,9.7852,9.7664,9.7394,9.7394,9.7022,9.7191,9.7292,9.7698,9.8153,9.856,9.9049,10.0199,10.1635,10.2171,10.3097,10.4464,10.5177,10.5636,10.5998,10.6035,10.6035,10.5817,10.5213,10.4609,10.4272,10.4247,10.4392,10.4851,10.5141,10.5528,10.6107,10.6397,10.6795,10.7266,10.7302,10.7073,10.6759,10.6687,10.6288,10.5709,10.5419,10.5347,10.496,10.4887,10.4887,10.4887,10.4887,10.4887,10.4851,10.4489,10.4163,10.3728,10.3692,10.3765,10.3559,10.316,10.3341,10.3873,10.3584,10.3221,10.3801,10.391,10.3439,10.3113,10.304,10.2823,10.2255,10.1929,10.1856,10.1784,10.1711,10.1675,10.1611,10.1346,10.1082,10.0733,10.0263,10.0081,9.9643,9.9563,9.9455,9.9364,9.9191,9.906,9.9045,9.9255,9.9339,9.9464,9.9464,9.9464,9.9778,10.0242,10.0308,10.0292,10.0275,10.0308,10.043,10.0733,10.0817,10.0718,10.0986,10.0519,10.0702,10.1036,10.1302,10.095,10.0779,10.1054,10.081,10.0347,10.0138,9.9678,9.8461,9.8495,9.8495,9.8461,9.8326,9.8461,9.8359,9.8359,9.8544,9.9085,9.9254,9.939,9.9838,10.0193,10.1233,10.2903,10.3672,10.4888,10.6534,10.6904,10.694,10.7049,10.7085,10.7194,10.7302,10.7302,10.7012,10.665,10.6324,10.6542,10.7146,10.6976,10.7085,10.7266,10.7447,10.7556,10.7592,10.7737,10.7628,10.7556,10.7447,10.7049,10.6542,10.6107,10.5745,10.5177,10.496,10.4924,10.4887,10.4887,10.4887,10.4887,10.4887,10.4779,10.4706,10.4344,10.4236,10.4163,10.3957,10.4236,10.4417,10.4091,10.3982,10.4525,10.4743,10.4163,10.3873,10.3765,10.3511,10.2968,10.2363,10.2363,10.2436,10.2447,10.2472,10.2472,10.2146,10.1664,10.094,10.0505,10.0396,10.0215,9.9962,9.9962,10.0168,10.007,9.9694,9.9839,10.0143,10.0096,10.0142,10.0142,10.0142,10.0209,10.0308,10.0308,10.0308,10.0308,10.0308,10.0342,10.0393,10.041,10.0461,10.0446,10.0429,10.0396,10.0581,10.075,10.0802,10.0919,10.1201,10.1095,10.0882,10.0989,10.0644,10.0084,9.9814,9.9814,9.9712,9.9848,9.9577,9.9746,9.9712,9.9848,9.9949,10.0001,10.0118,10.0423,10.056,10.1292,10.256,10.3929,10.5367,10.7293,10.7592,10.7519,10.7447,10.7375,10.7302,10.7302,10.7302,10.7592,10.7785,10.7483,10.7327,10.7447,10.7556,10.7809,10.8219,10.8292,10.8654,10.9089,10.9125,10.8799,10.8473,10.8268,10.7894,10.7194,10.6542,10.6035,10.5926,10.5455,10.4996,10.4924,10.5069,10.4996,10.496,10.496,10.496,10.4887,10.4743,10.4634,10.4525,10.4453,10.4598,10.467,10.4525,10.4199,10.4272,10.4561,10.4489,10.4344,10.4308,10.4018,10.3656,10.3052,10.2726,10.2871,10.2907,10.2907,10.2834,10.2653,10.2146,10.17,10.1218,10.1001,10.0784,10.0541,10.0396,10.0541,10.0396,10.0277,10.0433,10.0614,10.0458,10.0308,10.0308,10.0308,10.0308,10.0308,10.0308,10.0308,10.0308,10.0308,10.0308,10.0308,10.0308,10.0308,10.0308,10.0308,10.0308,10.0342,10.053,10.0732,10.0969,10.1203,10.1451,10.1343,10.1587,10.1597,10.1423,10.137,10.0896,10.0272,10.0152,10.0287,10.0186,10.022,10.0389,10.0727,10.0811,10.1031,10.1167,10.1077,10.1607,10.3249,10.4878,10.6848,10.8013,10.8509,10.8545,10.8533,10.8545,10.8545,10.8582,10.8545,10.8763,10.8835,10.8799,10.8497,10.8509,10.8509,10.8654,10.9016,10.9137,10.9318,10.9596,10.9704,10.9572,10.9246,10.9065,10.869,10.8002,10.7194,10.6542,10.6107,10.6071,10.5793,10.5238,10.5564,10.5636,10.5274,10.5358,10.5238,10.5021,10.484,10.4815,10.4815,10.4815,10.4851,10.4887,10.4887,10.4634,10.4272,10.4417,10.467,10.467,10.4598,10.4489,10.4236,10.3837,10.3414,10.345,10.3486,10.3523,10.3595,10.3523,10.3258,10.2859,10.2413,10.1943,10.1773,10.1675,10.1302,10.0976,10.1229,10.1338,10.1121,10.1012,10.0976,10.0308,10.0308,10.0308,10.0308,10.0308,10.0308,10.0308,10.0308,10.0308,10.0308,10.0308,10.0308,10.0308,10.0308,10.0308,10.0308,10.0325,10.0614,10.0732,10.0834,10.1187,10.1535,10.1717,10.2012,10.2124,10.2233,10.2283,10.1877,10.1065,10.0862,10.0727,10.0862,10.0727,10.093,10.1487,10.1589,10.2062,10.2096,10.2043,10.2688,10.4917,10.7129,10.885,10.98,10.9922,10.9813,10.9523,10.9487,10.9523,10.9523,10.956,10.9668,10.9704,10.9704,10.9789,10.9898,10.9789,10.9704,10.968,10.9644,10.9608,10.9704,10.9704,10.9717,10.968,10.9535,10.9342,10.8739,10.8002,10.7338,10.694,10.7012,10.6614,10.6143,10.6469,10.6904,10.6071,10.5745,10.5684,10.5419,10.5093,10.4985,10.5021,10.4887,10.4887,10.4887,10.4887,10.4887,10.4598,10.467,10.4815,10.4851,10.4851,10.4851,10.4743,10.467,10.438,10.4308,10.4308,10.4344,10.4489,10.4634,10.4236,10.3765,10.362,10.3185,10.3015,10.2617,10.2074,10.1929,10.2291,10.2291,10.1929,10.182,10.1893,10.0308,10.0308,10.0308,10.0308,10.0308,10.0308,10.0308,10.0308,10.0308,10.0308,10.0308,10.0308,10.0308,10.0308,10.0308,10.0308,10.0325,10.0376,10.0427,10.053,10.1002,10.1337,10.1552,10.216,10.2258,10.2437,10.247,10.2468,10.2012,10.1978,10.2114,10.2046,10.1978,10.2249,10.2164,10.2198,10.2418,10.2502,10.2468,10.3859,10.6623,10.8767,10.9917,11.0568,11.0719,11.0477,10.997,10.9861,10.9813,10.9704,10.9704,10.9704,10.9704,10.9704,11.0139,11.032,11.0175,10.9741,10.9849,10.9886,10.9849,10.9861,10.9753,10.9704,10.9704,10.9704,10.9632,10.9596,10.8835,10.8256,10.7857,10.7628,10.7266,10.7121,10.723,10.7375,10.6904,10.6578,10.6445,10.6035,10.5781,10.5383,10.5202,10.5021,10.4887,10.4887,10.4887,10.4924,10.4887,10.4887,10.4887,10.4887,10.4887,10.4887,10.4887,10.4887,10.4887,10.4887,10.4887,10.4887,10.4887,10.4887,10.4887,10.4489,10.438,10.4018,10.3475,10.3052,10.2689,10.2726,10.2979,10.2834,10.2545,10.2592,10.2846,10.0308,10.0308,10.0308,10.0308,10.0308,10.0308,10.0308,10.0308,10.0308,10.0308,10.0308,10.0308,10.0308,10.0308,10.0308,10.0308,10.0308,10.0308,10.0308,10.0341,10.0699,10.0952,10.1203,10.1635,10.1948,10.2294,10.2389,10.252,10.252,10.2553,10.252,10.2536,10.252,10.2418,10.2671,10.252,10.2773,10.3111,10.3694,10.5192,10.7383,10.8846,11.0009,11.1477,11.1575,11.1117,11.0574,11.0393,11.0103,10.9849,10.9704,10.997,11.0115,11.0115,11.0224,11.1407,11.0827,11.0646,11.0936,11.0646,11.0429,11.0224,11.0006,10.9704,10.9704,10.9704,10.9704,10.9668,10.9378,10.9028,10.8739,10.8618,10.8063,10.7845,10.8063,10.7809,10.7701,10.7712,10.7459,10.6952,10.6469,10.6143,10.589,10.5817,10.5612,10.5274,10.5274,10.5347,10.5129,10.4887,10.4887,10.4887,10.4887,10.4887,10.4887,10.4887,10.4887,10.4887,10.4887,10.4887,10.4887,10.4887,10.4887,10.4887,10.4706,10.4308,10.3837,10.3765,10.3692,10.362,10.3595,10.345,10.3378,10.3776,10.3849,10.0142,10.0308,10.0308,10.0308,10.0308,10.0308,10.0308,10.0308,10.0308,10.0308,10.0308,10.0308,10.0308,10.0308,10.0308,10.0308,10.0308,10.0308,10.0308,10.0358,10.0626,10.0981,10.1419,10.1738,10.224,10.2287,10.2903,10.3034,10.3032,10.3046,10.3111,10.2806,10.3179,10.3179,10.3111,10.3212,10.3483,10.3888,10.4988,10.6592,10.8413,10.936,11.0713,11.1806,11.23,11.201,11.1334,11.1189,11.0827,11.0574,11.0465,11.0755,11.1008,11.0863,11.1153,11.2022,11.1841,11.1986,11.2131,11.1914,11.137,11.0936,11.0501,11.0103,11.003,10.9922,10.9704,10.9704,10.9668,10.9318,10.9101,10.9354,10.898,10.8799,10.8908,10.8545,10.8256,10.8219,10.8123,10.7676,10.7278,10.7049,10.6868,10.6831,10.6481,10.5817,10.5673,10.5745,10.5564,10.531,10.5347,10.5491,10.5383,10.5238,10.4924,10.4924,10.4924,10.4996,10.4996,10.496,10.496,10.4924,10.4887,10.4887,10.4887,10.4743,10.4344,10.455,10.4731,10.4453,10.4236,10.4272,10.438,10.4743,10.4743,9.9712,10.0308,10.0308,10.0308,10.0308,10.0308,10.0308,10.0308,10.0308,10.0308,10.0308,10.0308,10.0308,10.0308,10.0308,10.0341,10.0324,10.0308,10.044,10.0775,10.1279,10.1681,10.2068,10.2606,10.3228,10.3329,10.3498,10.3682,10.4034,10.413,10.3959,10.3686,10.4007,10.4379,10.4447,10.4311,10.4396,10.4965,10.6093,10.7777,10.952,11.0831,11.2255,11.2924,11.3169,11.2843,11.2095,11.2022,11.1841,11.166,11.1588,11.172,11.1878,11.1696,11.2095,11.2855,11.2915,11.3133,11.3422,11.2819,11.2131,11.1769,11.1334,11.0755,11.0574,11.003,10.9813,10.9741,10.9704,10.9668,10.9572,10.9608,10.9451,10.9415,10.9378,10.927,10.8944,10.8702,10.8557,10.8304,10.8111,10.7954,10.7954,10.793,10.7302,10.6614,10.6252,10.6288,10.6397,10.6252,10.6252,10.6288,10.6107,10.5745,10.5093,10.5093,10.5467,10.5491,10.5455,10.525,10.5105,10.5032,10.5166,10.4887,10.4887,10.4887,10.4887,10.484,10.484,10.4887,10.4815,10.467,10.4634,10.4815,10.4887,10.0076,10.0308,10.0308,10.0308,10.0308,10.0308,10.0308,10.0308,10.0308,10.0308,10.0308,10.0308,10.0308,10.0308,10.0341,10.0556,10.0854,10.0456,10.0887,10.1302,10.1738,10.1923,10.236,10.2899,10.3238,10.3424,10.3663,10.3918,10.4136,10.4775,10.5076,10.4973,10.4904,10.465,10.4751,10.5191,10.5344,10.5646,10.6663,10.8115,11.0127,11.0905,11.2266,11.3935,11.4038,11.3603,11.2988,11.2843,11.2566,11.2276,11.2203,11.2457,11.2662,11.2457,11.2892,11.3712,11.3603,11.3785,11.4183,11.3471,11.2711,11.2131,11.1769,11.1443,11.1081,11.0574,11.0151,10.9934,10.9704,10.9704,10.9704,10.9717,10.9668,10.9704,10.9704,10.9704,10.9572,10.9209,10.9101,10.892,10.898,10.9016,10.9016,10.9065,10.8256,10.7447,10.7121,10.6868,10.7012,10.7157,10.7194,10.7085,10.6904,10.6469,10.5817,10.589,10.6107,10.6035,10.5962,10.5854,10.572,10.5673,10.5673,10.5274,10.496,10.496,10.496,10.4924,10.4887,10.4887,10.4887,10.4851,10.4887,10.4887,10.4887,9.9944,10.0258,10.0076,10.0109,10.0308,10.0308,10.0308,10.0308,10.0308,10.0308,10.0308,10.0308,10.0308,10.0308,10.0341,10.0739,10.1053,10.102,10.1516,10.1964,10.2262,10.2344,10.2847,10.3352,10.3792,10.3662,10.3939,10.4332,10.4587,10.5279,10.5634,10.5701,10.5598,10.5479,10.5563,10.58,10.6122,10.6291,10.6745,10.7874,10.9861,11.064,11.1567,11.3635,11.411,11.4219,11.3785,11.364,11.3459,11.3133,11.2988,11.3181,11.3278,11.335,11.3495,11.3893,11.411,11.3966,11.4147,11.4002,11.3422,11.3096,11.2589,11.2095,11.1479,11.1044,11.0465,10.9813,10.9704,10.9741,10.9741,10.9704,10.9704,10.9704,10.9704,10.9704,10.9704,10.9499,10.956,10.9523,10.956,10.9523,10.9487,10.9427,10.8847,10.8328,10.8328,10.8002,10.7785,10.793,10.8075,10.793,10.7676,10.7157,10.665,10.6723,10.6795,10.6687,10.6614,10.6687,10.6578,10.6505,10.618,10.5709,10.5383,10.5166,10.5021,10.4948,10.4912,10.4887,10.4887,10.4887,10.4887,10.4887,10.4887,9.9099,10.0175,9.9612,9.9745,10.0308,10.0308,10.0308,10.0308,10.0308,10.0308,10.0308,10.0308,10.0308,10.0308,10.0308,10.0805,10.1384,10.1417,10.1848,10.2642,10.3057,10.3406,10.3738,10.414,10.4326,10.469,10.4772,10.4867,10.5155,10.5658,10.6086,10.6376,10.6376,10.6544,10.6764,10.6832,10.6883,10.6883,10.6883,10.7776,10.8974,11.0133,11.1482,11.2786,11.3966,11.4351,11.4292,11.4255,11.411,11.4002,11.4002,11.411,11.4183,11.4219,11.4292,11.44,11.4436,11.4436,11.4473,11.4473,11.4292,11.4074,11.3495,11.2915,11.2131,11.1479,11.0755,11.0211,11.003,10.9898,10.9825,10.9849,10.9958,10.9886,10.9922,10.9777,10.9813,10.9704,10.9704,10.9994,10.9898,10.9717,10.9717,10.9608,10.9246,10.9065,10.9354,10.9173,10.8702,10.8618,10.8763,10.869,10.8437,10.7966,10.7519,10.7447,10.7447,10.7338,10.7411,10.7556,10.7483,10.7302,10.6868,10.6252,10.5854,10.5636,10.531,10.4985,10.5021,10.5032,10.4924,10.4887,10.4887,10.4924,10.4996,9.9199,9.9645,9.9844,10.0109,10.0308,10.0308,10.0308,10.0308,10.0308,10.0308,10.0308,10.0308,10.0308,10.0308,10.0474,10.0953,10.1881,10.1583,10.2013,10.3786,10.3804,10.397,10.4268,10.45,10.4699,10.4749,10.491,10.5104,10.5267,10.5666,10.6013,10.6322,10.6663,10.6883,10.69,10.69,10.69,10.69,10.7,10.7532,10.88,11.0093,11.1374,11.2672,11.3909,11.452,11.4509,11.4509,11.4509,11.4509,11.4509,11.4509,11.4509,11.4509,11.4509,11.4509,11.4509,11.4509,11.4509,11.4473,11.4509,11.4364,11.4183,11.364,11.2964,11.2711,11.1805,11.0972,11.09,11.0827,11.0682,11.1117,11.1189,11.0682,11.0465,11.0139,11.0006,10.9825,10.9825,11.0356,11.0501,11.0429,11.0405,11.0043,10.9644,10.9391,10.9572,10.9608,10.9234,10.927,10.9378,10.9378,10.9209,10.8763,10.8437,10.8364,10.8219,10.8147,10.8364,10.869,10.8545,10.8183,10.7628,10.7049,10.6578,10.6143,10.6035,10.5817,10.5347,10.5177,10.5274,10.5166,10.5093,10.5129,10.5166,9.9199,9.9645,9.9894,10.0109,10.0308,10.0308,10.0308,10.0308,10.0341,10.0423,10.0606,10.0456,10.049,10.0639,10.0788,10.1251,10.2411,10.2377,10.2759,10.4533,10.4268,10.4334,10.4548,10.4699,10.4699,10.4699,10.4716,10.4841,10.5036,10.5228,10.5718,10.6288,10.6629,10.6765,10.6832,10.69,10.69,10.7017,10.7317,10.8208,10.9504,11.0828,11.2248,11.3188,11.4103,11.4799,11.4581,11.4509,11.4509,11.4509,11.4509,11.4509,11.4509,11.4509,11.4509,11.4509,11.4509,11.4509,11.4509,11.4509,11.4509,11.4473,11.4509,11.411,11.3495,11.3169,11.2493,11.1914,11.1986,11.1733,11.1552,11.2046,11.1914,11.137,11.1189,11.0863,11.0719,11.0622,11.0646,11.1153,11.1298,11.1226,11.0972,11.055,11.0079,10.9898,10.9704,10.9704,10.9704,10.9704,10.9704,10.968,10.968,10.9306,10.9137,10.9246,10.9101,10.8956,10.9137,10.9391,10.9318,10.8871,10.8401,10.7918,10.7568,10.7278,10.7049,10.6759,10.6324,10.6071,10.6071,10.5817,10.5419,10.5528,10.5745,9.9,10.0059,9.9546,9.9712,10.0242,10.0308,10.0308,10.0308,10.0308,10.0655,10.1251,10.049,10.0556,10.1185,10.1318,10.1781,10.251,10.3091,10.387,10.4467,10.4533,10.4648,10.4648,10.4699,10.4699,10.4699,10.4699,10.4716,10.4752,10.5122,10.5683,10.6219,10.6408,10.6646,10.6816,10.69,10.69,10.7117,10.799,10.8761,10.9737,11.1959,11.3021,11.3891,11.4708,11.5072,11.4956,11.4739,11.4617,11.4581,11.4581,11.4545,11.4509,11.4509,11.4509,11.4509,11.4509,11.4509,11.4509,11.4509,11.4509,11.4509,11.4509,11.4038,11.3712,11.3531,11.3024,11.2638,11.2493,11.2348,11.2227,11.2348,11.2421,11.224,11.2155,11.1986,11.1878,11.1841,11.1878,11.2059,11.2131,11.1986,11.1515,11.1044,11.0537,11.0175,10.9922,10.9704,10.9704,10.9704,10.9704,10.9704,10.9704,10.9704,10.9668,10.9644,10.9572,10.9282,10.9391,10.9596,10.956,10.9499,10.9053,10.869,10.8582,10.8256,10.7519,10.7338,10.7302,10.7085,10.6868,10.665,10.6324,10.6542,10.6795,9.8254,9.953,9.9364,9.9696,10.0275,10.0308,10.0308,10.0308,10.0308,10.0456,10.0589,10.039,10.049,10.0622,10.1152,10.1848,10.251,10.3256,10.397,10.4467,10.4699,10.4699,10.4699,10.4699,10.4699,10.4699,10.4699,10.4699,10.477,10.5104,10.5474,10.5893,10.6219,10.6561,10.6782,10.69,10.6934,10.7254,10.8298,10.9137,11.008,11.2083,11.3205,11.4276,11.5115,11.535,11.5258,11.5186,11.4992,11.4581,11.5065,11.5137,11.4509,11.4509,11.4509,11.4509,11.4509,11.4509,11.4509,11.4509,11.4509,11.4509,11.4509,11.4473,11.4219,11.4002,11.3676,11.335,11.329,11.3241,11.3133,11.3169,11.3133,11.3024,11.2952,11.2807,11.2711,11.2566,11.2638,11.2879,11.2964,11.2747,11.2276,11.1552,11.1044,11.0574,11.0175,10.9922,10.9704,10.9704,10.9704,10.9704,10.9704,10.9704,10.9704,10.968,10.9668,10.9668,10.9704,10.9704,10.9668,10.9596,10.9523,10.9391,10.9173,10.8437,10.7483,10.7592,10.8075,10.7773,10.7519,10.7375,10.7338,10.7556,10.7773,9.7956,9.9232,9.9298,9.9679,10.0242,10.0308,10.0308,10.0308,10.0308,10.0423,10.0688,10.0423,10.0456,10.0887,10.1549,10.2113,10.2576,10.3621,10.4367,10.4566,10.4699,10.4699,10.4699,10.4699,10.4699,10.4699,10.4699,10.4699,10.4785,10.4945,10.5281,10.5806,10.6099,10.6476,10.6849,10.717,10.717,10.7508,10.8212,10.9385,11.0818,11.2253,11.3582,11.4799,11.563,11.5495,11.5367,11.5318,11.4956,11.4581,11.5101,11.5028,11.4509,11.4509,11.4509,11.4509,11.4509,11.4509,11.4509,11.4509,11.4509,11.4509,11.4509,11.4473,11.4473,11.4328,11.4147,11.3929,11.4183,11.4328,11.4219,11.411,11.3966,11.3821,11.3676,11.3567,11.335,11.3169,11.335,11.3676,11.3676,11.3544,11.3036,11.224,11.1479,11.0936,11.0465,11.0139,10.9886,10.9704,10.9704,10.9704,10.9704,10.9704,10.9704,10.9704,10.9704,10.9704,10.9704,10.9704,10.9704,10.9668,10.9632,10.9632,10.9632,10.8908,10.8244,10.8545,10.8871,10.8545,10.8401,10.8437,10.8473,10.857,10.8763,9.7857,9.9199,9.9265,9.9629,10.0175,10.0275,10.0308,10.0308,10.0308,10.0655,10.102,10.0589,10.0589,10.1053,10.1748,10.2212,10.2775,10.372,10.4367,10.4699,10.4699,10.4699,10.4699,10.4699,10.4699,10.4699,10.4699,10.4699,10.4699,10.4856,10.5157,10.572,10.5824,10.6169,10.6782,10.7306,10.7306,10.717,10.8084,10.9339,11.1743,11.3411,11.4624,11.6084,11.603,11.5499,11.498,11.4726,11.4617,11.4617,11.4654,11.4726,11.4545,11.4509,11.4509,11.4509,11.4509,11.4509,11.4509,11.4509,11.4509,11.4509,11.4509,11.4509,11.4509,11.4509,11.4328,11.4292,11.4436,11.4473,11.4364,11.4328,11.4255,11.4183,11.4147,11.4074,11.3966,11.3857,11.3929,11.4183,11.4147,11.4002,11.3712,11.2915,11.2385,11.1552,11.0803,11.0429,11.0175,10.9886,10.9741,10.9741,10.9704,10.9704,10.9704,10.9704,10.9704,10.9704,10.9704,10.9704,10.9704,10.9704,10.9704,10.9704,10.9704,10.9704,10.9415,10.9463,10.9427,10.9378,10.9306,10.9523,10.9596,10.9415,10.9378,9.7128,9.852,9.9066,9.9397,9.9596,10.0109,10.0308,10.0308,10.0308,10.0407,10.0523,10.044,10.0407,10.0721,10.1516,10.2046,10.2709,10.3621,10.4168,10.4566,10.4699,10.4699,10.4699,10.4699,10.4699,10.4699,10.4699,10.4699,10.4699,10.4785,10.4945,10.5404,10.5631,10.6065,10.6544,10.7069,10.7069,10.695,10.7418,10.8941,11.1212,11.2767,11.4051,11.5349,11.5621,11.5838,11.5572,11.5536,11.5463,11.5403,11.5391,11.5101,11.4545,11.4509,11.4509,11.4509,11.4509,11.4509,11.4509,11.4509,11.4509,11.4509,11.4509,11.4509,11.4509,11.4509,11.4509,11.4509,11.4509,11.4509,11.4509,11.4509,11.4509,11.4509,11.4509,11.4509,11.4509,11.4509,11.4509,11.4509,11.4509,11.4328,11.4074,11.3712,11.3205,11.2385,11.1334,11.0755,11.0501,11.0211,10.9825,10.9741,10.9704,10.9704,10.9704,10.9704,10.9704,10.9704,10.9704,10.9704,10.9704,10.9704,10.9704,10.9704,10.9704,10.9704,10.9704,10.9668,10.9668,10.9704,10.9704,10.9704,10.9704,10.956,10.9632,9.6664,9.7807,9.8867,9.9298,9.943,10.001,10.0308,10.0308,10.0308,10.0308,10.0308,10.0308,10.0308,10.054,10.1384,10.198,10.2642,10.3654,10.4268,10.4632,10.4699,10.4699,10.4699,10.4699,10.4699,10.4699,10.4699,10.4699,10.4699,10.4767,10.4927,10.5246,10.5544,10.5857,10.6339,10.6595,10.6765,10.6866,10.69,10.8309,11.0393,11.1707,11.3433,11.4754,11.5512,11.5644,11.5463,11.5354,11.5246,11.5137,11.5065,11.4956,11.4581,11.4509,11.4509,11.4509,11.4509,11.4509,11.4509,11.4509,11.4509,11.4509,11.4509,11.4509,11.4509,11.4509,11.4509,11.4509,11.4509,11.4509,11.4509,11.4509,11.4509,11.4509,11.4509,11.4509,11.4509,11.4509,11.4509,11.4509,11.4509,11.4473,11.4292,11.4255,11.3712,11.3169,11.2131,11.1334,11.1008,11.0537,11.0139,10.9825,10.9789,10.9741,10.9704,10.9704,10.9704,10.9704,10.9704,10.9704,10.9704,10.9704,10.9704,10.9704,10.9704,10.9704,10.9704,10.9704,10.9704,10.9704,10.9704,10.9704,10.9741,10.9777,10.9741,9.6366,9.7161,9.8536,9.9165,9.9265,9.9977,10.0308,10.0308,10.0308,10.0308,10.0308,10.0308,10.0308,10.0805,10.1483,10.2079,10.2709,10.3389,10.4118,10.4665,10.4699,10.4699,10.4699,10.4699,10.4699,10.4699,10.4699,10.4699,10.4699,10.4749,10.4874,10.5175,10.5386,10.5614,10.6082,10.6391,10.6544,10.6731,10.7134,10.8298,10.9564,11.0763,11.2739,11.4168,11.492,11.4581,11.4617,11.4594,11.4581,11.4654,11.4726,11.4581,11.4545,11.4509,11.4509,11.4509,11.4509,11.4509,11.4509,11.4509,11.4509,11.4509,11.4509,11.4509,11.4509,11.4509,11.4509,11.4509,11.4509,11.4509,11.4509,11.4509,11.4509,11.4509,11.4509,11.4509,11.4509,11.4509,11.4509,11.4509,11.4509,11.4509,11.4509,11.4473,11.4183,11.3603,11.3024,11.2348,11.166,11.1044,11.0501,11.0103,10.9898,10.9825,10.9741,10.9704,10.9704,10.9704,10.9704,10.9704,10.9704,10.9704,10.9704,10.9704,10.9704,10.9704,10.9704,10.9704,10.9704,10.9886,11.003,11.0175,11.0139,11.0139,10.9922,9.6051,9.6333,9.7807,9.842,9.8602,9.9778,10.0308,10.0308,10.0308,10.0308,10.0308,10.0308,10.0308,10.0324,10.049,10.1251,10.2576,10.3206,10.3919,10.4533,10.4699,10.4699,10.4699,10.4699,10.4699,10.4699,10.4699,10.4699,10.4699,10.4699,10.4716,10.4874,10.5193,10.5386,10.5526,10.5909,10.6357,10.6561,10.7001,10.7914,10.952,11.0838,11.2237,11.3519,11.4581,11.492,11.5101,11.4811,11.4992,11.5065,11.4871,11.4581,11.4509,11.4509,11.4509,11.4509,11.4509,11.4509,11.4509,11.4509,11.4509,11.4509,11.4509,11.4509,11.4509,11.4509,11.4509,11.4509,11.4509,11.4509,11.4509,11.4509,11.4509,11.4509,11.4509,11.4509,11.4509,11.4509,11.4509,11.4509,11.4509,11.4509,11.4509,11.4509,11.4473,11.4002,11.3603,11.2964,11.2566,11.1769,11.0972,11.0574,11.0224,10.9861,10.9704,10.9704,10.9704,10.9704,10.9849,11.0067,11.0067,10.9741,10.9741,10.997,10.9825,10.9753,10.9717,10.9849,11.0211,11.0465,11.061,11.0719,11.0682,11.0574,11.0465]},{"header":{"parameterUnit":"m.s-1","parameterCategory":1,"la1":31.0,"la2":29.5877,"lo1":-88.7671,"lo2":-86.6584,"dy":0.0162,"dx":0.0185,"nx":115,"ny":88,"refTime":"2026-04-17T12:00:00:Z","depth":0,"parameterNumber":3,"parameterNumberName":"V-component_of_WINDS"},"data":[0.0,0.0,0.0,0.0,0.0,0.0,0.0,0.0,0.0,0.0,0.0,0.0,0.0,0.0,0.0,0.0,0.0,0.0,0.0,0.0,0.0,0.0,0.0,0.0,0.0,0.0,0.0,0.0,0.0,0.0,0.0,0.0,0.0,0.0,0.0,0.0,0.0,0.0,0.0,0.0,0.0,0.0,0.0,0.0,0.0,0.0,0.0,0.0,0.0,0.0,0.0,0.0,0.0,0.0,0.0,0.0,0.0,0.0,0.0,0.0,0.0,0.0,0.0,0.0,0.0,0.0,0.0,0.0,0.0,0.0,0.0,0.0,0.0,0.0,0.0,0.0,0.0,0.0,0.0,0.0,0.0,0.0,0.0,0.0,0.0,0.0,0.0,0.0,0.0,0.0,0.0,0.0,0.0,0.0,0.0,0.0,0.0,0.0,0.0,0.0,0.0,0.0,0.0,0.0,0.0,0.0,0.0,0.0,0.0,0.0,0.0,0.0,0.0,0.0,0.0,0.0,0.0,0.0,0.0,0.0,0.0,0.0,0.0,0.0,0.0,0.0,0.0,0.0,0.0,0.0,0.0,0.0,0.0,0.0,0.0,0.0,0.0,0.0,0.0,0.0,0.0,0.0,0.0,0.0,0.0,0.0,0.0,0.0,0.0,0.0,0.0,0.0,0.0,0.0,0.0,0.0,0.0,0.0,0.0,0.0,0.0,0.0,0.0,0.0,0.0,0.0,0.0,0.0,0.0,0.0,0.0,0.0,0.0,0.0,0.0,0.0,0.0,0.0,0.0,0.0,0.0,0.0,0.0,0.0,0.0,0.0,0.0,0.0,0.0,0.0,0.0,0.0,0.0,0.0,0.0,0.0,0.0,0.0,0.0,0.0,0.0,0.0,0.0,0.0,0.0,0.0,0.0,0.0,0.0,0.0,0.0,0.0,0.0,0.0,0.0,0.0,0.0,0.0,0.0,0.0,0.0,0.0,0.0,0.0,0.0,0.0,0.0,0.0,0.0,0.0,0.0,0.0,0.0,0.0,0.0,0.0,0.0,0.0,0.0,0.0,0.0,0.0,0.0,0.0,0.0,0.0,0.0,0.0,0.0,0.0,0.0,0.0,0.0,0.0,0.0,0.0,0.0,0.0,0.0,0.0,0.0,0.0,0.0,0.0,0.0,0.0,0.0,0.0,0.0,0.0,0.0,0.0,0.0,0.0,0.0,0.0,0.0,0.0,0.0,0.0,0.0,0.0,0.0,0.0,0.0,0.0,0.0,0.0,0.0,0.0,0.0,0.0,0.0,0.0,0.0,0.0,0.0,0.0,0.0,0.0,0.0,0.0,0.0,0.0,0.0,0.0,0.0,0.0,0.0,0.0,0.0,0.0,0.0,0.0,0.0,0.0,0.0,0.0,0.0,0.0,0.0,0.0,0.0,0.0,0.0,0.0,0.0,0.0,0.0,0.0,0.0,0.0,0.0,0.0,0.0,0.0,0.0,0.0,0.0,0.0,0.0,0.0,0.0,0.0,0.0,0.0,0.0,0.0,0.0,0.0,0.0,0.0,0.0,0.0,0.0,0.0,0.0,0.0,0.0,0.0,0.0,0.0,0.0,0.0,0.0,0.0,0.0,0.0,0.0,0.0,0.0,0.0,0.0,0.0,0.0,0.0,0.0,0.0,0.0,0.0,0.0,0.0,0.0,0.0,0.0,0.0,0.0,0.0,0.0,0.0,0.0,0.0,0.0,0.0,0.0,0.0,0.0,0.0,0.0,0.0,0.0,0.0,0.0,0.0,0.0,0.0,0.0,0.0,0.0,0.0,0.0,0.0,0.0,0.0,0.0,0.0,0.0,0.0,0.0,0.0,0.0,0.0,0.0,0.0,0.0,0.0,0.0,0.0,0.0,0.0,0.0,0.0,0.0,0.0,0.0,0.0,0.0,0.0,0.0,0.0,0.0,0.0,0.0,0.0,0.0,0.0,0.0,0.0,0.0,0.0,0.0,0.0,0.0,0.0,0.0,0.0,0.0,0.0,0.0,0.0,0.0,0.0,0.0,0.0,0.0,0.0,0.0,0.0,0.0,0.0,0.0,0.0,0.0,0.0,0.0,0.0,0.0,0.0,0.0,0.0,0.0,0.0,0.0,0.0,0.0,0.0,0.0,0.0,0.0,0.0,0.0,0.0,0.0,0.0,0.0,0.0,0.0,0.0,0.0,0.0,0.0,0.0,0.0,0.0,0.0,0.0,0.0,0.0,0.0,0.0,0.0,0.0,0.0,0.0,0.0,0.0,0.0,0.0,0.0,0.0,0.0,0.0,0.0,0.0,0.0,0.0,0.0,0.0,0.0,0.0,0.0,0.0,0.0,0.0,0.0,0.0,0.0,0.0,0.0,0.0,0.0,0.0,0.0,0.0,0.0,0.0,0.0,0.0,0.0,0.0,0.0,0.0,0.0,0.0,0.0,0.0,0.0,0.0,0.0,0.0,0.0,0.0,0.0,0.0,0.0,0.0,0.0,0.0,0.0,0.0,0.0,0.0,0.0,0.0,0.0,0.0,0.0,0.0,0.0,0.0,0.0,0.0,0.0,0.0,0.0,0.0,0.0,0.0,0.0,0.0,0.0,0.0,0.0,0.0,0.0,0.0,0.0,0.0,0.0,0.0,0.0,0.0,0.0,0.0,0.0,0.0,0.0,0.0,0.0,0.0,0.0,0.0,0.0,0.0,0.0,0.0,0.0,0.0,0.0,0.0,0.0,0.0,0.0,0.0,0.0,0.0,0.0,0.0,0.0,0.0,0.0,0.0,0.0,0.0,0.0,0.0,0.0,0.0,0.0,0.0,0.0,0.0,0.0,0.0,0.0,0.0,0.0,0.0,0.0,0.0,0.0,0.0,0.0,0.0,0.0,0.0,0.0,0.0,0.0,0.0,0.0,0.0,0.0,0.0,0.0,0.0,0.0,0.0,0.0,0.0,0.0,0.0,0.0,0.0,0.0,0.0,0.0,0.0,0.0,0.0,0.0,0.0,0.0,0.0,0.0,0.0,0.0,0.0,0.0,0.0,0.0,0.0,0.0,0.0,0.0,0.0,0.0,0.0,0.0,0.0,0.0,0.0,0.0,0.0,0.0,0.0,0.0,0.0,0.0,0.0,0.0,0.0,0.0,0.0,0.0,0.0,0.0,0.0,0.0,0.0,0.0,0.0,0.0,0.0,0.0,0.0,0.0,0.0,0.0,0.0,0.0,0.0,0.0,0.0,0.0,0.0,0.0,0.0,0.0,0.0,0.0,0.0,0.0,0.0,0.0,0.0,0.0,0.0,0.0,0.0,0.0,0.0,0.0,0.0,0.0,0.0,0.0,0.0,0.0,0.0,0.0,0.0,0.0,0.0,0.0,0.0,0.0,0.0,0.0,0.0,0.0,0.0,0.0,0.0,0.0,0.0,0.0,0.0,0.0,0.0,0.0,0.0,0.0,0.0,0.0,0.0,0.0,0.0,0.0,0.0,0.0,0.0,0.0,0.0,0.0,0.0,0.0,0.0,0.0,0.0,0.0,0.0,0.0,0.0,0.0,0.0,0.0,0.0,0.0,0.0,0.0,0.0,0.0,0.0,0.0,0.0,0.0,0.0,0.0,0.0,0.0,0.0,0.0,0.0,0.0,0.0,0.0,0.0,0.0,0.0,0.0,0.0,0.0,0.0,0.0,0.0,0.0,0.0,0.0,0.0,0.0,0.0,0.0,0.0,0.0,0.0,0.0,0.0,0.0,0.0,0.0,0.0,0.0,0.0,0.0,0.0,0.0,0.0,0.0,0.0,0.0,0.0,0.0,0.0,0.0,0.0,0.0,0.0,0.0,0.0,0.0,0.0,0.0,0.0,0.0,0.0,0.0,0.0,0.0,0.0,0.0,0.0,0.0,0.0,0.0,0.0,0.0,0.0,0.0,0.0,0.0,0.0,0.0,0.0,0.0,0.0,0.0,0.0,0.0,0.0,0.0,0.0,0.0,0.0,0.0,0.0,0.0,0.0,0.0,0.0,0.0,0.0,0.0,0.0,0.0,0.0,0.0,0.0,0.0,0.0,0.0,0.0,0.0,0.0,0.0,0.0,0.0,0.0,0.0,0.0,0.0,0.0,0.0,0.0,0.0,0.0,0.0,0.0,0.0,0.0,0.0,0.0,0.0,0.0,0.0,0.0,0.0,0.0,0.0,0.0,0.0,0.0,0.0,0.0,0.0,0.0,0.0,0.0,0.0,0.0,0.0,0.0,0.0,0.0,0.0,0.0,0.8784,0.0,0.0,0.0,0.0,0.0,0.0,0.0,0.0,0.0,0.0,0.0,0.0,0.0,0.0,0.0,0.0,0.0,0.0,0.0,0.0,0.0,0.0,0.0,0.0,0.0,0.0,0.0,0.0,0.0,0.0,0.0,0.0,0.0,0.0,0.0,0.0,0.0,0.0,0.0,0.0,0.0,0.0,0.0,0.0,0.0,0.0,0.0,0.0,0.0,0.0,0.0,0.0,0.0,0.0,0.0,0.0,0.0,0.0,0.0,0.0,0.0,0.0,0.0,0.0,0.0,0.0,0.0,0.0,0.0,0.0,0.0,0.0,0.0,0.0,0.0,0.0,0.0,0.0,0.0,0.0,0.0,0.0,0.0,0.0,0.0,0.0,0.0,0.0,0.0,0.0,0.0,0.0,0.0,0.0,0.0,0.0,0.0,0.0,0.0,0.0,0.0,0.0,0.0,0.0,0.0,0.0,0.0,0.0,0.0,0.0,0.9295,0.9356,0.9295,0.9165,0.8971,0.0,0.0,0.0,0.0,0.0,0.0,0.0,0.0,0.0,0.0,0.0,0.0,0.0,0.0,0.0,0.0,0.0,0.0,0.0,0.0,0.0,0.0,0.0,0.0,0.0,0.0,0.0,0.0,0.0,0.0,0.0,0.0,0.0,0.0,0.0,0.0,0.0,0.0,0.0,0.0,0.0,0.0,0.0,0.0,0.0,0.0,0.0,0.0,0.0,0.0,0.0,0.0,0.0,0.0,0.0,0.0,0.0,0.0,0.0,0.0,0.0,0.0,0.0,0.0,0.0,0.0,0.0,0.0,0.0,0.0,0.0,0.0,0.0,0.0,0.0,0.0,0.0,0.0,0.0,0.0,0.0,0.0,0.0,0.0,0.0,0.0,0.0,0.0,0.0,0.0,0.0,0.0,0.0,0.0,0.0,0.0,0.0,0.0,0.0,0.0,0.0,0.0,0.0,0.0,0.0,0.0,0.0,0.0,0.0,0.0,0.0,0.0,0.9673,0.9518,0.9295,0.0,0.0,0.0,0.0,0.0,0.0,0.0,0.0,0.0,0.0,0.0,0.0,0.0,0.0,0.0,0.0,0.0,0.0,0.0,0.0,0.0,0.0,0.0,0.0,0.0,0.0,0.0,0.0,0.0,0.0,0.0,0.0,0.0,0.0,0.0,0.0,0.0,0.0,0.0,0.0,0.0,0.0,0.0,0.0,0.0,0.0,0.0,0.0,0.0,0.0,0.0,0.0,0.0,0.0,0.0,0.0,0.0,0.0,0.0,0.0,0.0,0.0,0.0,0.0,0.0,0.0,0.0,0.0,0.0,0.0,0.0,0.0,0.0,0.0,0.0,0.0,0.0,0.0,0.0,0.0,0.0,0.0,0.0,0.0,0.0,0.0,0.0,0.0,0.0,0.0,0.0,0.0,0.0,0.0,0.0,0.0,0.0,0.0,0.0,0.0,0.0,0.0,0.0,0.0,0.0,0.0,0.0,0.0,0.0,0.0,0.9805,1.032,1.0312,0.0,0.9856,0.0,0.0,0.0,0.0,0.0,0.0,0.0,0.0,0.0,0.0,0.0,0.0,0.0,0.0,0.0,0.0,0.0,0.0,0.0,0.0,0.0,0.0,0.0,0.0,0.0,0.0,0.0,0.0,0.0,0.0,0.0,0.0,0.0,0.0,0.0,0.0,0.0,0.0,0.0,0.0,0.0,0.0,0.0,0.0,0.0,0.0,0.0,0.0,0.0,0.0,0.0,0.0,0.0,0.0,0.0,0.0,0.0,0.0,0.0,0.0,0.0,0.0,0.0,0.0,0.0,0.0,0.0,0.0,0.0,0.0,0.0,0.0,0.0,0.0,0.0,0.0,0.0,0.0,0.0,0.0,0.0,0.0,0.0,0.0,0.0,0.0,0.0,0.0,0.0,0.0,0.0,0.0,0.0,0.0,0.0,0.0,0.0,0.0,0.0,0.0,0.0,0.0,0.0,0.0,0.0,0.0,0.0,0.0,0.0,0.0,0.0,1.0409,1.0212,1.0038,0.0,0.0,0.0,0.0,0.0,0.0,0.0,0.0,0.0,0.0,0.0,0.0,0.0,0.0,0.0,0.0,0.0,0.0,0.0,0.0,0.0,0.0,0.0,0.0,0.0,0.0,0.0,0.0,0.0,0.0,0.0,0.0,0.0,0.0,0.0,0.0,0.0,0.0,0.0,0.0,0.0,0.0,0.0,0.0,0.0,0.0,0.0,0.0,0.0,0.0,0.0,0.0,0.0,0.0,0.0,0.0,0.0,0.0,0.0,0.0,0.0,0.0,0.0,0.0,0.0,0.0,0.0,0.0,0.0,0.0,0.0,0.0,0.0,0.0,0.0,0.0,0.0,0.0,0.0,0.0,0.0,0.0,0.0,0.0,0.0,0.0,0.0,0.0,0.0,0.0,0.0,0.0,0.0,0.0,0.0,0.0,0.0,0.0,0.0,0.0,0.0,0.0,0.0,0.0,0.0,0.0,0.0,0.0,0.0,0.0,1.028,0.0,1.0553,1.0371,1.0108,0.9779,0.0,0.0,0.0,0.0,0.0,0.0,0.0,0.0,0.0,0.0,0.0,0.0,0.0,0.0,0.0,0.0,0.0,0.0,0.0,0.0,0.0,0.0,0.0,0.0,0.0,0.0,0.0,0.0,0.0,0.0,0.0,0.0,0.0,0.0,0.0,0.0,0.0,0.0,0.0,0.0,0.0,0.0,0.0,0.0,0.0,0.0,0.0,0.0,0.0,0.0,0.0,0.0,0.0,0.0,0.0,0.0,0.0,0.0,0.0,0.0,0.0,0.0,0.0,0.0,0.0,0.0,0.0,0.0,0.0,0.0,0.0,0.0,0.0,0.0,0.0,0.0,0.0,0.0,0.0,0.0,0.0,0.0,0.0,0.0,0.0,0.0,0.0,0.0,0.0,0.0,0.0,0.0,0.0,0.0,0.0,0.0,0.0,0.0,0.0,0.0,0.0,0.0,0.0,0.0,0.0,0.0,0.0,0.0,0.0,1.0631,1.0571,1.0976,1.1078,1.0607,0.0,0.0,0.0,0.0,0.0,0.0,0.0,0.0,0.0,0.0,0.0,0.0,0.0,0.0,0.0,0.0,0.0,0.0,0.0,0.0,0.0,0.0,0.0,0.0,0.0,0.0,0.0,0.0,0.0,0.0,0.0,0.0,0.0,0.0,0.0,0.0,0.0,0.0,0.0,0.0,0.0,0.0,0.0,0.0,0.0,0.0,0.0,0.0,0.0,0.0,0.0,0.0,0.0,0.0,0.0,0.0,0.0,0.0,0.0,0.0,0.0,0.0,0.0,0.0,0.0,0.0,0.0,0.0,0.0,0.0,0.0,0.0,0.0,0.0,0.0,0.0,0.0,0.0,0.0,0.0,0.0,0.0,0.0,0.0,0.0,0.0,0.0,0.0,0.0,0.0,0.0,0.0,0.0,0.0,0.0,0.0,0.0,0.0,0.0,0.0,0.0,0.0,0.0,0.0,0.0,0.0,0.0,0.0,0.0,1.0158,1.032,1.0798,1.1581,1.0826,1.0271,0.0,0.0,0.0,0.0,0.0,0.0,0.0,0.0,0.0,0.0,0.0,0.0,0.0,0.0,0.0,0.0,0.0,0.0,0.0,0.0,0.0,0.0,0.0,0.0,0.0,0.0,0.0,0.0,0.0,0.0,0.0,0.0,0.0,0.0,0.0,0.0,0.0,0.0,0.0,0.0,0.0,0.0,0.0,0.0,0.0,0.0,0.0,0.0,0.0,0.0,0.0,0.0,0.0,0.0,0.0,0.0,0.0,0.0,0.0,0.0,0.0,0.0,0.0,0.0,0.0,0.0,0.0,0.0,0.0,0.0,0.0,0.0,0.0,0.0,0.0,0.0,0.0,0.0,0.0,0.0,0.0,0.0,0.0,0.0,0.0,0.0,0.0,0.0,0.0,0.0,0.0,0.0,0.0,0.0,0.0,0.0,0.0,0.0,0.0,0.0,0.0,0.0,0.0,0.0,0.0,0.0,0.0,0.0,0.0,1.0118,0.0,1.1163,0.0,1.0753,1.0111,0.0,0.0,0.0,0.0,0.0,0.0,0.0,0.0,0.0,0.0,0.0,0.0,0.0,0.0,0.0,0.0,0.0,0.0,0.0,0.0,0.0,0.0,0.0,0.0,0.0,0.0,0.0,0.0,0.0,0.0,0.0,0.0,0.0,0.0,0.0,0.0,0.0,0.0,0.0,0.0,0.0,0.0,0.0,0.0,0.0,0.0,0.0,0.0,0.0,0.0,0.0,0.0,0.0,0.0,0.0,0.0,0.0,0.0,0.0,0.0,0.0,0.0,0.0,0.0,0.0,0.0,0.0,0.0,0.0,0.0,0.0,0.0,0.0,0.0,0.0,0.0,0.0,0.0,0.0,0.0,0.0,0.0,0.0,0.0,0.0,0.0,0.0,0.0,0.0,0.0,0.0,0.0,0.0,0.0,0.0,0.0,0.0,0.0,0.0,0.0,0.0,0.0,0.0,0.0,0.0,0.0,0.0,0.0,0.0,1.1122,1.1665,1.1671,1.1071,1.0984,1.0235,0.0,0.0,0.0,0.0,0.0,0.0,0.0,0.0,0.0,0.0,0.0,0.0,0.0,0.0,0.0,0.0,0.0,0.0,0.0,0.0,0.0,0.0,0.0,0.0,0.0,0.0,0.0,0.0,0.0,0.0,0.0,0.0,0.0,0.0,0.0,0.0,0.0,0.0,0.0,0.0,0.0,0.0,0.0,0.0,0.0,0.0,0.0,0.0,0.0,0.0,0.0,0.0,0.0,0.0,0.0,0.0,0.0,0.0,0.0,0.0,0.0,0.0,0.0,0.0,0.0,0.0,0.0,0.0,0.0,0.0,0.0,0.0,0.0,0.0,0.0,0.0,0.0,0.0,0.0,0.0,0.0,0.0,0.0,0.0,0.0,0.0,0.0,0.0,0.0,0.0,0.0,0.0,0.0,0.0,0.0,0.0,0.0,0.0,0.0,0.0,0.0,0.0,0.0,0.0,0.0,0.0,0.0,0.0,0.0,1.0669,1.1315,1.1808,1.2066,1.1017,1.0382,0.0,0.0,0.0,0.0,0.0,0.0,0.0,0.0,0.0,0.0,0.0,0.0,0.0,0.0,0.0,0.0,0.0,0.0,0.0,0.0,0.0,0.0,0.0,0.0,0.0,0.0,0.0,0.0,0.0,0.0,0.0,0.0,0.0,0.0,0.0,0.0,0.0,0.0,0.0,0.0,0.0,0.0,0.0,0.0,0.0,0.0,0.0,0.0,0.0,0.0,0.0,0.0,0.0,0.0,0.0,0.0,0.0,0.0,0.0,0.0,0.0,0.0,0.0,0.0,0.0,0.0,0.0,0.0,0.0,0.0,0.0,0.0,0.0,0.0,0.0,0.0,0.0,0.0,0.0,0.0,0.0,0.0,0.0,0.0,0.0,0.0,0.0,0.0,0.0,0.0,0.0,0.0,0.0,0.0,0.0,0.0,0.0,0.0,0.0,0.0,0.0,0.0,0.0,0.0,0.0,0.0,0.0,0.0,0.0,1.1641,1.2248,1.2678,1.2906,1.1732,1.096,1.0683,0.0,0.0,0.0,0.0,0.0,0.0,0.0,0.0,0.0,0.0,0.0,0.0,0.0,0.0,0.0,0.0,0.0,0.0,0.0,0.0,0.0,0.0,0.0,0.0,0.0,0.0,0.0,0.0,0.0,0.0,0.0,0.0,0.0,0.0,0.0,0.0,0.0,0.0,0.0,0.0,0.0,0.0,0.0,0.0,0.0,0.0,0.0,0.0,0.0,0.0,0.0,0.0,0.0,0.0,0.0,0.0,0.0,0.0,0.0,0.0,0.0,0.0,0.0,0.0,0.0,0.0,0.0,0.0,0.0,0.0,0.0,0.0,0.0,0.0,0.0,0.0,0.0,0.0,0.0,0.0,0.0,0.0,0.0,0.0,0.0,0.0,0.0,0.0,0.0,0.0,0.0,0.0,0.0,0.0,0.0,0.0,0.0,0.0,0.0,0.0,0.0,0.0,0.0,0.0,0.0,0.0,0.0,0.0,1.3804,1.4318,1.4267,1.3614,1.2963,1.1912,0.0,0.0,0.0,0.0,0.0,0.0,0.0,0.0,0.0,0.0,0.0,0.0,0.0,0.0,0.0,0.0,0.0,0.0,0.0,0.0,0.0,0.0,0.0,0.0,0.0,0.0,0.0,0.0,0.0,0.0,0.0,0.0,0.0,0.0,0.0,0.0,0.0,0.0,0.0,0.0,0.0,0.0,0.0,0.0,0.0,0.0,0.0,0.0,0.0,0.0,0.0,0.0,0.0,0.0,0.0,0.0,0.0,0.0,0.0,0.0,0.0,0.0,0.0,0.0,0.0,0.0,0.0,0.0,0.0,0.0,0.0,0.0,0.0,0.0,0.0,0.0,0.0,0.0,0.0,0.0,0.0,0.0,0.0,0.0,0.0,0.0,0.0,0.0,0.0,0.0,0.0,0.0,0.0,0.0,0.0,0.0,0.0,0.0,0.0,0.0,0.0,0.0,0.0,0.0,0.0,0.0,0.0,0.0,0.0,1.6308,1.6789,1.6535,1.5545,1.4011,1.2808,0.0,0.0,0.0,0.0,0.0,0.0,0.0,0.0,0.0,0.0,0.0,0.0,0.0,0.0,0.0,0.0,0.0,0.0,0.0,0.0,0.0,0.0,0.0,0.0,0.0,0.0,0.0,0.0,0.0,0.0,0.0,0.0,0.0,0.0,0.0,0.0,0.0,0.0,0.0,0.0,0.0,0.0,0.0,0.0,0.0,0.0,0.0,0.0,0.0,0.0,0.0,0.0,0.0,0.0,0.0,0.0,0.0,0.0,0.0,0.0,0.0,0.0,0.0,0.0,0.0,0.0,0.0,0.0,0.0,0.0,0.0,0.0,0.0,0.0,0.0,0.0,0.0,0.0,0.0,0.0,0.0,0.0,0.0,0.0,0.0,0.0,0.0,0.0,0.0,0.0,0.0,0.0,0.0,0.0,0.0,0.0,0.0,0.0,0.0,0.0,0.0,0.0,0.0,0.0,0.0,0.0,0.0,0.0,1.6861,1.969,2.081,2.1044,2.0413,1.7362,1.522,0.0,0.0,0.0,0.0,0.0,0.0,0.0,0.0,0.0,0.0,0.0,0.0,0.0,0.0,0.0,0.0,0.0,0.0,0.0,0.0,0.0,0.0,0.0,0.0,0.0,0.0,0.0,0.0,0.0,0.0,0.0,0.0,0.0,0.0,0.0,0.0,0.0,0.0,0.0,0.0,0.0,0.0,0.0,0.0,0.0,0.0,0.0,0.0,0.0,0.0,0.0,0.0,0.0,0.0,0.0,0.0,0.0,0.0,0.0,0.0,0.0,0.0,0.0,0.0,0.0,0.0,0.0,0.0,0.0,0.0,0.0,0.0,0.0,0.0,0.0,0.0,0.0,0.0,0.0,0.0,0.0,0.0,0.0,0.0,0.0,0.0,0.0,0.0,0.0,0.0,0.0,0.0,0.0,0.0,0.0,0.0,0.0,0.0,0.0,0.0,0.0,0.0,0.0,0.0,0.0,0.0,0.0,0.0,2.014,2.3269,2.5217,2.6308,2.6379,2.1763,1.8349,0.0,0.0,0.0,0.0,0.0,0.0,0.0,0.0,0.0,0.0,0.0,0.0,0.0,0.0,0.0,0.0,0.0,0.0,0.0,0.0,0.0,0.0,0.0,0.0,0.0,0.0,0.0,0.0,0.0,0.0,0.0,0.0,0.0,0.0,0.0,0.0,0.0,0.0,0.0,0.0,0.0,0.0,0.0,0.0,0.0,0.0,0.0,0.0,0.0,0.0,0.0,0.0,0.0,0.0,0.0,0.0,0.0,0.0,0.0,0.0,0.0,0.0,0.0,0.0,0.0,0.0,0.0,0.0,0.0,0.0,0.0,0.0,0.0,0.0,0.0,0.0,0.0,0.0,0.0,0.0,0.0,0.0,0.0,0.0,0.0,0.0,0.0,0.0,0.0,0.0,0.0,0.0,0.0,0.0,0.0,0.0,0.0,0.0,0.0,0.0,0.0,0.0,0.0,0.0,0.0,0.0,0.0,0.0,2.2129,2.5417,2.6375,2.7621,2.926,2.4053,2.0408,0.0,0.0,0.0,0.0,0.0,0.0,0.0,0.0,0.0,0.0,0.0,0.0,0.0,0.0,0.0,0.0,0.0,0.0,0.0,0.0,0.0,0.0,0.0,0.0,0.0,0.0,0.0,0.0,0.0,0.0,0.0,0.0,0.0,0.0,0.0,0.0,0.0,0.0,0.0,0.0,0.0,0.0,0.0,0.0,0.0,0.0,0.0,0.0,1.0324,0.0,0.0,0.0,0.0,0.0,0.0,0.0,0.0,0.0,0.0,0.0,0.0,0.0,0.0,0.0,0.0,0.0,0.0,0.0,0.0,0.0,0.0,0.0,0.0,0.0,0.0,0.0,0.0,0.0,0.0,0.0,0.0,0.0,0.0,0.0,0.0,0.0,0.0,0.0,0.0,0.0,0.0,0.0,0.0,0.0,0.0,0.0,0.0,0.0,0.0,0.0,0.0,0.0,0.0,0.0,0.0,0.0,0.0,0.0,2.5011,2.8412,2.9396,3.0423,3.1478,2.7626,2.4172,0.0,0.0,0.0,0.0,0.0,0.0,0.0,0.0,0.0,0.0,0.0,0.0,0.0,0.0,0.0,0.0,0.0,0.0,0.0,0.0,0.0,0.0,0.0,0.0,0.0,0.0,0.0,0.0,0.0,0.0,0.0,0.0,0.0,0.0,0.0,0.0,0.0,0.0,0.0,0.0,0.0,0.0,0.0,0.0,0.0,0.0,0.0,0.0,0.0,0.0,0.0,0.0,0.0,0.0,0.0,0.0,0.0,0.0,0.0,0.0,0.0,0.0,0.0,0.0,0.0,0.0,0.0,0.0,0.0,0.0,0.0,0.0,0.0,0.0,0.0,0.0,0.0,0.0,0.0,0.0,0.0,0.0,0.0,0.0,0.0,0.0,0.0,0.0,0.0,0.0,0.0,0.0,0.0,0.0,0.0,0.0,0.0,0.0,0.0,0.0,0.0,0.0,0.0,0.0,0.0,0.0,0.0,2.3414,2.7549,3.1392,3.2532,3.3225,3.3594,3.1042,2.7981,0.0,0.0,0.0,0.0,0.0,0.0,0.0,0.0,0.0,0.0,0.0,0.0,0.0,0.0,0.0,0.0,0.0,0.0,0.0,0.0,0.0,0.0,0.0,0.0,0.0,0.0,0.0,0.0,0.0,0.0,0.0,0.0,0.0,0.0,0.0,0.0,0.0,0.0,0.0,0.9453,1.0067,0.0,0.0,0.0,0.0,0.0,0.0,0.0,0.0,1.0832,0.0,0.0,0.0,0.0,0.0,0.0,0.0,0.0,0.0,0.0,0.0,0.0,0.0,0.0,0.0,0.0,0.0,0.0,0.0,0.0,0.0,0.0,0.0,0.0,0.0,0.0,0.0,0.0,0.0,0.0,0.0,0.0,0.0,0.0,0.0,0.0,0.0,0.0,0.0,0.0,0.0,0.0,0.0,0.0,0.0,0.0,0.0,0.0,0.0,0.0,0.0,0.0,0.0,0.0,0.0,0.0,2.1372,2.3713,2.7529,3.287,3.324,3.3802,3.468,3.187,2.9117,2.6667,0.0,0.0,0.0,0.0,0.0,0.0,0.0,0.0,0.0,0.0,0.0,0.0,0.0,0.0,0.0,0.0,0.0,0.0,0.0,0.0,0.0,0.0,0.0,0.0,0.0,0.0,0.0,0.0,0.0,0.0,0.0,0.0,0.0,0.0,0.0,0.0,0.0,0.0,0.0,1.1572,1.1841,0.0,0.0,0.0,0.0,0.0,0.0,0.0,0.0,1.0914,0.0,0.0,0.0,0.0,0.0,0.0,0.0,0.0,0.0,0.0,0.0,0.0,0.0,0.0,0.0,0.0,0.0,0.0,0.0,0.0,0.0,0.0,0.0,0.0,0.0,0.0,0.0,0.0,0.0,0.0,0.0,0.0,0.0,0.0,0.0,0.0,0.0,0.0,0.0,0.0,0.0,0.0,0.0,0.0,0.0,0.0,0.0,0.0,0.0,0.0,0.0,0.0,0.0,0.0,0.0,2.1635,2.5753,2.972,3.3438,3.3336,3.3775,3.4897,3.1239,2.8564,0.0,0.0,0.0,0.0,0.0,0.0,0.0,0.0,0.0,0.0,0.0,0.0,0.0,0.0,0.0,0.0,0.0,0.0,0.0,0.0,0.0,0.0,0.0,0.0,0.0,0.0,0.0,0.0,0.0,0.0,0.0,0.0,0.0,0.0,0.0,0.0,0.0,0.0,0.0,0.0,1.2214,1.254,1.3206,0.0,0.0,0.0,0.0,0.0,0.0,1.168,1.1339,0.0,0.0,0.0,0.0,0.0,0.0,0.0,0.0,0.0,0.0,0.0,0.0,0.0,0.0,0.0,0.0,0.0,0.0,0.0,0.0,0.0,0.0,0.0,0.0,0.0,0.0,0.0,0.0,0.0,0.0,0.0,0.0,0.0,0.0,0.0,0.0,0.0,0.0,0.0,0.0,0.0,0.0,0.0,0.0,0.0,0.0,0.0,0.0,0.0,0.0,0.0,0.0,0.0,0.0,0.0,2.1902,2.7422,3.152,3.3844,3.3559,3.3913,3.5026,3.0947,2.8201,0.0,0.0,0.0,0.0,0.0,0.0,0.0,0.0,0.0,0.0,0.0,0.0,0.0,0.0,0.0,0.0,0.0,0.0,0.0,0.0,0.0,0.0,0.0,0.0,0.0,0.0,0.0,0.0,0.0,0.0,0.0,0.0,0.0,0.0,0.0,0.0,0.0,0.0,0.0,0.0,0.0,1.3296,1.3979,1.3255,0.0,0.0,0.0,0.0,1.2434,1.2475,0.0,0.0,0.0,0.0,0.0,0.0,0.0,0.0,0.0,0.0,0.0,0.0,0.0,0.0,0.0,0.0,0.0,0.0,0.0,0.0,0.0,0.0,0.0,0.0,0.0,0.0,0.0,0.0,0.0,0.0,0.0,0.0,0.0,0.0,0.0,0.0,0.0,0.0,0.0,0.0,0.0,0.0,0.0,0.0,0.0,0.0,0.0,0.0,0.0,0.0,0.0,0.0,0.0,0.0,0.0,0.0,2.3204,2.6814,3.0617,3.4364,3.4471,3.4826,3.5624,3.2366,2.9474,0.0,0.0,0.0,0.0,0.0,0.0,0.0,0.0,0.0,0.0,0.0,0.0,0.0,0.0,0.0,0.0,0.0,0.0,0.0,0.0,0.0,0.0,0.0,0.0,0.0,0.0,0.0,0.0,0.0,0.0,0.0,0.0,0.0,0.0,0.0,0.0,0.0,0.0,0.0,0.0,0.0,1.4278,1.3739,1.3692,1.3556,0.0,0.0,0.0,1.4038,1.4519,0.0,0.0,0.0,0.0,0.0,0.0,0.0,0.0,0.0,0.0,0.0,0.0,0.0,0.0,0.0,0.0,0.0,0.0,0.0,0.0,0.0,0.0,0.0,0.0,0.0,0.0,0.0,0.0,0.0,0.0,0.0,0.0,0.0,0.0,0.0,0.0,0.0,0.0,0.0,0.0,0.0,0.0,0.0,0.0,0.0,0.0,0.0,0.0,0.0,0.0,0.0,0.0,0.0,0.0,0.0,0.0,2.4157,2.9076,3.2831,3.5198,3.5004,3.5182,3.5951,3.1823,2.8726,0.0,0.0,0.0,0.0,0.0,0.0,0.0,0.0,0.0,0.0,0.0,0.0,0.0,0.0,0.0,0.0,0.0,0.0,0.0,0.0,0.0,0.0,0.0,0.0,0.0,0.0,0.0,0.0,0.0,0.0,0.0,0.0,0.0,0.0,0.0,0.0,0.0,0.0,0.0,0.0,0.0,0.0,1.4673,1.4754,0.0,0.0,0.0,1.4462,1.4689,0.0,0.0,0.0,0.0,0.0,0.0,0.0,0.0,0.0,0.0,0.0,0.0,0.0,0.0,0.0,0.0,0.0,0.0,0.0,0.0,0.0,0.0,0.0,0.0,0.0,0.0,0.0,0.0,0.0,0.0,0.0,0.0,0.0,0.0,0.0,0.0,0.0,0.0,0.0,0.0,0.0,0.0,0.0,0.0,0.0,0.0,0.0,0.0,0.0,0.0,0.0,0.0,0.0,0.0,0.0,0.0,0.0,2.5097,3.1184,3.4846,3.5752,3.5643,3.5705,3.5914,3.1953,0.0,0.0,0.0,0.0,0.0,0.0,0.0,0.0,0.0,0.0,0.0,0.0,0.0,0.0,0.0,0.0,0.0,0.0,0.0,0.0,0.0,0.0,0.0,0.0,0.0,0.0,0.0,0.779,0.0,0.0,0.0,0.0,0.0,0.0,0.0,0.0,0.0,0.0,0.0,0.0,0.0,0.0,1.4795,1.5309,1.563,1.5865,0.0,0.0,1.5446,1.5524,1.5955,1.565,0.0,0.0,0.0,0.0,0.0,0.0,0.0,0.0,0.0,0.0,0.0,0.0,0.0,0.0,0.0,0.0,0.0,0.0,0.0,0.0,0.0,0.0,0.0,0.0,0.0,0.0,0.0,0.0,0.0,0.0,0.0,0.0,0.0,0.0,0.0,0.0,0.0,0.0,0.0,0.0,0.0,0.0,0.0,0.0,0.0,0.0,0.0,0.0,0.0,0.0,0.0,0.0,0.0,0.0,0.0,2.6303,3.2085,3.5338,3.5802,3.6556,3.6562,3.5738,3.3874,3.0906,0.0,0.0,0.0,0.0,0.0,0.0,0.0,0.0,0.0,0.0,0.0,0.0,0.0,0.0,0.0,0.0,0.0,0.0,0.0,0.0,0.0,0.0,0.0,0.0,0.0,0.0,0.0,0.0,0.0,0.0,0.0,0.0,0.0,0.0,0.0,0.0,0.0,0.0,0.0,0.0,0.0,1.51,1.5036,1.5987,1.6863,0.0,0.0,1.6584,1.6917,1.7819,1.7488,1.4597,0.0,0.0,0.0,0.0,0.0,0.0,0.0,0.0,0.0,0.0,0.0,0.0,0.0,0.0,0.0,0.0,0.0,0.0,0.0,0.0,0.0,0.0,0.0,0.0,0.0,0.0,0.0,0.0,0.0,0.0,0.0,0.0,0.0,0.0,0.0,0.0,0.0,0.0,0.0,0.0,0.0,0.0,0.0,0.0,0.0,0.0,0.0,0.0,0.0,0.0,0.0,0.0,0.0,2.5242,2.7375,3.2734,3.5866,3.6587,3.6936,3.6651,3.5709,3.4285,3.1348,0.0,0.0,0.0,0.0,0.0,0.0,0.0,0.0,0.0,0.0,0.0,0.0,0.0,0.0,0.0,0.0,0.0,0.0,0.0,0.0,0.0,0.0,0.0,0.0,0.0,0.0,0.0,0.0,0.9482,0.9571,0.9259,0.0,0.0,0.0,0.0,0.0,0.0,0.0,0.0,0.0,0.0,1.5679,1.6503,1.7218,0.0,0.0,1.7703,1.7453,1.7569,1.765,1.7031,1.5012,1.3961,0.0,0.0,0.0,0.0,0.0,0.0,0.0,0.0,0.0,0.0,0.0,0.0,0.0,0.0,0.0,0.0,0.0,0.0,0.0,0.0,0.0,0.0,0.0,0.0,0.0,0.0,0.0,0.0,0.0,0.0,0.0,0.0,0.0,0.0,0.0,0.0,0.0,0.0,0.0,0.0,0.0,0.0,0.0,0.0,0.0,0.0,0.0,0.0,0.0,0.0,0.0,0.0,2.5686,2.7981,3.308,3.6095,3.6919,3.7036,3.667,3.5841,3.4549,3.1887,0.0,0.0,0.0,0.0,0.0,0.0,0.0,0.0,0.0,0.0,0.0,0.0,0.0,0.0,0.0,0.0,0.0,0.0,0.0,0.0,0.0,0.0,0.0,0.0,0.0,0.0,0.0,0.0,0.9993,0.9996,0.9579,0.0,0.0,0.0,0.0,0.0,0.0,0.0,0.0,0.0,0.0,1.6214,1.7279,1.7812,1.8183,1.8385,1.7932,1.7617,1.7723,1.7437,1.6706,1.5277,0.0,0.0,0.0,0.0,0.0,0.0,0.0,0.0,0.0,0.0,0.0,0.0,0.0,0.0,0.0,0.0,0.0,0.0,0.0,0.0,0.0,0.0,0.0,0.0,0.0,0.0,0.0,0.0,0.0,0.0,0.0,0.0,0.0,0.0,0.0,0.0,0.0,0.0,0.0,0.0,0.0,0.0,0.0,0.0,0.0,0.0,0.0,0.0,0.0,0.0,0.0,0.0,0.0,0.0,2.8024,3.309,3.5978,3.6612,3.6919,3.6773,3.6075,3.4862,3.2807,2.9813,0.0,0.0,0.0,0.0,0.0,0.0,0.0,0.0,0.0,0.0,0.0,0.0,0.0,0.0,0.0,0.0,0.0,0.0,0.0,0.0,0.0,0.0,0.0,0.0,0.0,0.0,0.9457,0.9543,0.9579,0.0,0.0,0.0,0.0,0.0,0.0,0.0,0.0,0.0,0.0,1.5243,1.669,1.7088,1.7569,1.8014,1.8207,1.7478,1.6979,1.738,1.738,1.6893,0.0,0.0,0.0,0.0,0.0,0.0,0.0,0.0,0.0,0.0,0.0,0.0,0.0,0.0,0.0,0.0,0.0,0.0,0.0,0.0,0.0,0.0,0.0,0.0,0.0,0.0,0.0,0.0,1.8695,0.0,0.0,0.0,0.0,0.0,0.0,0.0,0.0,0.0,0.0,0.0,2.3443,2.4501,0.0,0.0,0.0,0.0,0.0,0.0,0.0,0.0,0.0,0.0,0.0,0.0,2.6173,2.8981,3.317,3.589,3.689,3.7061,3.6773,3.6129,3.5524,3.302,2.8437,0.0,0.0,0.0,0.0,0.0,0.0,0.0,0.0,0.0,0.0,0.0,0.0,0.0,0.0,0.0,0.0,0.0,0.0,0.0,0.0,0.0,0.0,0.0,0.0,0.0,0.9888,0.0,0.0,0.0,0.0,0.0,0.0,0.0,0.0,0.0,0.0,0.0,1.3157,1.4422,1.5748,1.6866,1.7543,1.8029,1.8443,0.0,0.0,0.0,0.0,0.0,0.0,0.0,0.0,0.0,0.0,0.0,0.0,0.0,0.0,1.4703,1.2702,1.2304,1.2272,1.2215,0.0,0.0,0.0,0.0,0.0,0.0,0.0,0.0,0.0,0.0,0.0,0.0,0.0,0.0,0.0,0.0,2.1336,0.0,0.0,0.0,0.0,0.0,0.0,0.0,0.0,2.4978,2.6334,2.6809,2.7954,2.7789,0.0,2.5994,2.3884,0.0,0.0,0.0,0.0,0.0,0.0,0.0,0.0,2.6852,2.9439,3.3354,3.5807,3.6724,3.6861,3.667,3.609,3.5266,3.2829,2.8646,2.6416,2.4115,0.0,0.0,0.0,0.0,0.0,0.0,0.0,0.0,0.0,0.0,0.0,0.0,0.0,0.0,0.0,0.0,0.0,0.0,0.0,0.0,0.0,0.0,0.0,1.0379,0.0,0.0,0.0,0.0,0.0,0.0,0.0,0.0,0.0,1.2223,1.323,1.4405,1.5695,1.6609,1.7307,1.7731,0.0,0.0,0.0,0.0,0.0,0.0,0.0,1.6522,1.6386,1.6036,1.5845,1.6101,1.6552,1.6779,1.6514,0.0,0.0,1.4572,1.4075,1.4034,1.4024,1.4162,1.4332,1.4511,1.4905,1.5273,0.0,0.0,0.0,0.0,0.0,0.0,0.0,0.0,2.5349,2.5146,0.0,2.4071,0.0,0.0,0.0,0.0,0.0,0.0,0.0,0.0,2.9422,3.0817,3.0077,3.094,3.0897,0.0,3.0229,2.8876,2.5994,2.2221,0.0,0.0,0.0,0.0,0.0,0.0,2.7495,2.9549,3.3555,3.5802,3.6105,3.6397,3.6412,3.6046,3.4239,3.2376,3.0507,2.8617,2.6548,2.4278,2.2022,0.0,0.0,0.0,0.0,0.0,0.0,0.0,0.0,0.0,0.0,0.0,0.0,0.0,0.0,0.0,0.0,0.0,0.0,0.0,0.0,1.0683,0.0,0.0,0.0,0.0,0.0,0.0,0.0,0.0,0.0,0.0,1.3714,1.4754,1.5898,1.695,0.0,0.0,0.0,0.0,1.8297,1.778,1.739,1.7274,1.7469,1.7591,1.7585,1.7461,0.0,0.0,1.7591,1.7461,1.7388,1.6979,1.7642,1.8012,1.7274,1.6418,1.5979,1.6251,1.5943,1.5784,1.6238,1.6644,1.6944,2.9168,0.0,0.0,0.0,0.0,2.695,2.8106,2.9886,2.9886,2.9052,2.766,2.7452,0.0,0.0,0.0,0.0,0.0,0.0,2.6856,2.8685,3.0246,3.1411,3.2273,3.2771,3.2741,3.2244,3.1687,3.0715,2.9373,2.7599,2.4657,2.0735,0.0,0.0,0.0,0.0,2.8393,3.0759,3.3539,3.5339,3.61,3.6202,3.61,3.5802,3.4592,3.3224,3.1804,3.0525,2.8725,2.6266,2.4437,0.0,0.0,0.0,0.0,0.0,0.0,0.0,0.0,0.0,0.0,0.0,0.0,0.0,0.0,0.0,0.0,0.0,0.0,0.0,1.0277,1.082,1.1104,0.0,0.0,0.0,0.0,0.0,0.0,0.0,0.0,0.0,1.5796,1.5861,1.6153,0.0,0.0,1.7526,1.7269,1.7917,1.851,1.8785,0.0,0.0,0.0,1.8598,1.8313,1.8516,1.9061,1.9313,1.8834,1.8956,1.9029,1.8761,1.885,1.8923,1.8687,1.8045,1.7622,1.7776,1.763,1.7551,1.7926,1.8314,1.859,3.5665,3.2943,2.9916,2.9008,2.9568,2.9851,3.0928,3.2573,3.2537,3.19,3.0788,3.0407,2.889,2.6533,2.5696,0.0,0.0,0.0,2.9008,3.1058,3.1549,3.242,3.3567,3.394,3.3926,3.3567,3.3019,3.2405,3.1725,3.0817,2.8437,0.0,0.0,0.0,2.4613,2.7265,2.9579,3.1505,3.3729,3.5163,3.5719,3.5734,3.567,3.548,3.4534,3.3575,3.2668,3.1586,3.0168,2.8407,2.643,2.4214,0.0,0.0,0.0,0.0,0.0,0.0,0.0,0.0,0.0,0.0,0.0,1.1396,0.0,0.0,0.0,0.0,1.17,1.215,1.2336,1.262,0.0,0.0,0.0,0.0,0.0,0.0,0.0,1.5218,1.649,1.7622,1.8536,1.8418,1.8153,1.799,1.8085,1.8062,1.7875,0.0,1.8939,1.9248,1.9289,1.9378,1.963,1.9289,1.9126,1.9451,1.9736,1.9857,1.9753,1.9834,1.9882,1.9807,1.9743,1.9678,1.9678,1.9289,1.8899,1.8833,1.867,1.8647,1.9061,1.9346,1.9533,4.2637,4.084,3.4197,3.1601,3.1901,3.2542,3.3227,3.3882,3.3896,3.3867,3.3765,3.2851,3.1746,3.0463,2.8968,0.0,0.0,3.0024,3.1166,3.2917,3.3165,3.3633,3.4233,3.454,3.4525,3.4233,3.4204,3.3882,3.3268,3.2361,3.1321,3.0062,2.8612,2.7792,2.7719,2.9481,3.0917,3.1885,3.3972,3.5099,3.5196,3.5187,3.5187,3.5172,3.4174,3.3516,3.3143,3.1966,3.1043,3.039,2.8041,2.5959,2.4307,0.0,0.0,0.0,0.0,0.0,0.0,0.0,0.0,0.0,0.0,0.0,0.0,0.0,0.0,0.0,1.5744,0.0,1.5655,1.5595,0.0,0.0,0.0,1.581,1.6472,1.7065,1.7756,1.8562,0.0,0.0,0.0,0.0,2.1258,2.0038,1.9528,1.9216,1.9004,1.9281,1.95,1.9428,1.9428,1.9484,1.9703,1.9818,1.9972,2.0214,2.024,2.0184,2.0213,2.0158,2.0167,2.0223,2.0279,2.0247,2.0263,2.0078,1.9915,1.9395,1.9208,1.9191,1.9647,1.9768,1.9865,4.3324,4.239,4.0646,3.8624,3.6608,3.6999,3.6562,3.5568,3.552,3.5256,3.4797,3.4057,3.3041,3.1834,3.1702,3.1775,3.1995,3.2273,3.2931,3.3823,3.3926,3.4174,3.4578,3.4666,3.4666,3.4578,3.4329,3.4116,3.394,3.3487,3.2734,3.176,3.1336,3.0276,2.8685,2.9983,3.1315,3.2551,3.3554,3.4432,3.5158,3.5187,3.507,3.4827,3.383,3.318,3.288,3.1871,3.1124,3.07,2.9178,2.7617,2.5988,2.2798,0.0,0.0,0.0,0.0,0.0,0.0,0.0,0.0,0.0,1.5115,1.3188,0.0,1.4512,0.0,1.7218,1.806,1.8328,1.8135,0.0,0.0,1.8992,1.9055,2.0087,2.0851,2.1416,2.1773,2.3037,2.3992,2.4198,2.3366,2.3274,2.4553,2.1637,1.9216,1.9053,1.9565,1.9948,2.0008,2.026,2.0509,2.0543,2.0616,2.0582,2.0531,2.0491,2.0442,2.031,2.0182,2.011,2.0109,2.0003,1.993,1.993,1.9907,1.9858,1.9695,1.963,1.9655,1.9768,1.9898,2.0013,4.667,4.617,4.6128,4.4608,4.2059,4.0834,3.9316,3.773,3.753,3.6789,3.5573,3.5099,3.4323,3.343,3.3723,3.3877,3.3869,3.4022,3.4373,3.4865,3.4879,3.4967,3.5143,3.5143,3.507,3.4923,3.4724,3.4563,3.4417,3.4087,3.3648,3.3144,3.2997,3.2222,3.0884,3.1256,3.19,3.2785,3.3531,3.4247,3.4929,3.4982,3.4666,3.4043,3.337,3.2617,3.1767,3.089,3.0211,2.9744,2.8666,2.751,2.631,2.3779,2.1745,0.0,0.0,0.0,0.0,0.0,0.0,0.0,0.0,0.0,0.0,0.0,1.7673,0.0,0.0,0.0,2.1649,2.1539,2.1758,2.2572,2.268,2.2953,2.3609,2.42,2.4735,2.5164,2.611,2.6832,2.7165,2.6546,2.6548,2.8,2.5016,2.2681,2.2625,2.233,2.196,2.1995,2.1368,2.0877,2.0777,2.0696,2.0614,2.0499,2.0448,2.0434,2.031,2.0247,2.0182,2.02,2.0093,2.0028,2.0028,2.0028,2.0028,2.0002,2.0028,1.9995,1.9956,2.0021,2.007,5.0644,5.0278,5.0278,4.9196,4.7284,4.4495,4.2141,4.0222,3.9941,3.8753,3.6947,3.6666,3.6059,3.5264,3.5799,3.5753,3.5293,3.58,3.5902,3.5704,3.5968,3.5944,3.5718,3.5718,3.5548,3.5269,3.5269,3.5099,3.4812,3.4481,3.43,3.4189,3.3867,3.3508,3.3151,3.2661,3.2566,3.2859,3.3744,3.4335,3.4636,3.4563,3.4043,3.3114,3.2734,3.1819,3.0331,2.9696,2.911,2.8423,2.7652,2.6954,2.6307,2.4452,2.2974,0.0,2.0683,0.0,0.0,0.0,0.0,0.0,0.0,0.0,0.0,2.2019,2.2068,2.1149,2.3663,2.5307,2.5302,2.5307,2.5461,2.5907,2.6477,2.6876,2.6983,2.7351,2.7841,2.8504,2.8966,2.9542,3.0144,3.0053,2.996,3.038,2.8785,2.7612,2.7925,2.6181,2.4644,2.4704,2.3044,2.2195,2.1933,2.1559,2.1483,2.1318,2.1543,2.1162,2.1405,2.1345,2.1241,2.1293,2.1457,2.1328,2.1163,2.1258,2.1137,2.0964,2.1189,2.1173,2.034,2.0127,2.0175,5.1074,5.0703,5.0683,5.0273,4.9567,4.8961,4.6589,4.3201,4.3117,4.2543,4.161,4.1226,3.9889,3.8143,3.9766,3.8733,3.5831,3.9063,3.8789,3.5766,3.7382,3.7254,3.5766,3.5718,3.5665,3.5606,3.5592,3.5562,3.548,3.5158,3.4748,3.4189,3.3867,3.3414,0.0,0.0,0.0,0.0,3.3838,3.4233,3.4262,3.3765,3.3165,3.2485,3.1615,0.0,2.9652,2.9481,2.9095,2.8452,2.8471,0.0,0.0,0.0,0.0,0.0,0.0,0.0,0.0,0.0,0.0,0.0,2.4982,2.4772,2.4103,2.5471,2.5766,2.4388,2.6518,2.8341,2.9045,2.8708,2.8962,3.0187,2.97,2.949,3.0105,3.0554,3.0855,3.0999,3.1682,3.2232,3.2242,3.129,3.1158,3.2697,3.1707,3.1484,3.3018,2.9463,2.6964,2.6997,2.6237,2.5968,2.6037,2.5814,2.5479,2.5743,2.5862,2.5753,2.5465,2.5466,2.5569,2.5502,2.5645,2.5517,2.5543,2.5671,2.4859,2.3331,2.4345,2.4557,2.1068,2.0297,2.0279,5.1675,0.0,5.1348,5.1191,0.0,0.0,4.9606,4.7564,4.6124,4.4737,4.3434,4.3008,4.2161,4.1052,4.1883,4.1135,3.9268,4.1301,4.1135,3.9228,4.0192,3.9611,3.7711,3.8692,3.8526,3.7499,3.8465,3.887,3.864,3.7497,3.6754,3.6395,3.5091,3.4294,3.3986,3.4133,3.411,3.394,3.4432,3.4768,3.4923,3.4616,3.389,3.2771,0.0,0.0,0.0,0.0,0.0,0.0,0.0,0.0,0.0,0.0,0.0,2.6205,2.5516,2.5124,2.5264,2.5894,2.6681,2.764,2.8608,2.852,2.7139,2.8204,2.8775,2.8433,2.9348,3.0308,3.121,3.1097,3.1203,3.1847,3.1905,3.1964,3.2149,3.2597,3.2842,3.2778,3.3122,3.3402,3.3412,3.2782,3.2711,3.3852,3.3446,3.333,3.4189,3.179,2.9289,2.8253,2.7831,2.7627,2.7632,2.7426,2.7327,2.7131,2.7098,2.7098,2.7098,2.7001,2.6922,2.7044,2.7001,2.6889,2.6889,2.6889,2.6568,2.562,2.6107,2.6312,2.3958,2.3545,2.3545,5.228,5.1675,5.2051,5.1992,5.1636,5.1558,5.1479,5.1221,0.0,0.0,0.0,4.4788,4.4395,4.4046,4.3951,4.352,4.2875,4.3522,4.3415,4.2724,4.3106,4.2174,4.0376,4.191,4.1694,3.9963,4.1551,4.2219,4.188,3.9824,3.879,3.8577,3.6455,3.5275,3.5284,3.5319,3.5231,3.4973,3.5114,3.5328,3.5592,3.5504,3.471,3.3231,3.288,3.1717,2.9652,2.9085,2.8515,2.788,2.769,2.7704,2.7909,2.7943,2.8022,2.8218,2.8306,2.8452,2.8749,2.9164,2.9705,3.0428,3.1432,3.1417,2.9945,3.0434,3.1166,3.1988,3.1678,3.1849,3.2797,3.2838,3.2868,3.2894,3.3515,3.379,3.3572,3.3893,3.406,3.3967,3.4031,3.4079,3.4041,3.4115,3.4224,3.4349,3.4353,3.4549,3.4581,3.34,3.1701,3.0277,2.9899,2.9376,2.9225,2.9103,2.8538,2.882,2.8532,2.822,2.8344,2.8242,2.8186,2.88,2.8257,2.8249,2.815,2.8424,2.7977,2.7656,2.7945,2.8033,2.7692,2.793,2.7865,5.2637,5.2514,5.2598,5.2578,5.25,5.2129,5.1777,5.1358,5.0605,5.0108,4.9824,4.9425,4.8237,4.6646,4.797,4.6627,4.3583,4.6587,4.612,0.0,4.4548,4.427,4.2341,4.2581,4.2523,4.225,4.2519,4.2621,4.2321,4.0314,3.9141,3.887,3.6786,3.5621,3.565,3.5875,3.5944,3.5885,3.5436,3.5225,3.5269,3.4718,3.4028,3.3231,3.269,3.1717,3.0331,3.0393,3.0036,2.9198,2.9643,2.9818,2.9584,2.9549,2.9584,2.9623,2.9886,3.0068,3.0141,3.089,3.1798,3.2639,3.2894,3.2566,3.1593,3.2068,3.2624,3.2975,3.2908,3.3301,3.4205,3.3972,3.4103,3.4912,3.4492,3.4226,3.4573,3.4624,3.4594,3.4556,3.495,3.5034,3.4696,3.499,3.5069,3.4853,3.4857,3.507,3.5044,3.4927,3.4597,3.4267,3.3953,3.3811,3.3341,3.3486,3.2879,3.3004,3.2672,3.2417,3.2481,3.2226,3.2149,3.2774,3.2276,3.2185,3.2234,3.2731,3.1832,3.0581,3.1368,3.2148,3.0514,3.1483,3.1649,5.3119,5.2773,5.2974,5.293,5.2695,5.25,5.2305,5.209,5.168,5.1367,5.1089,5.0703,5.0006,4.9186,4.9656,4.8875,4.7176,4.883,4.8592,4.6922,4.7747,4.7089,4.5334,4.6237,4.608,4.4911,4.5885,4.6271,4.5867,4.3856,4.2206,4.0948,3.765,3.5919,3.5934,3.6041,3.6178,3.6378,3.6085,3.5963,3.5939,3.5661,3.5207,3.4563,3.3934,3.3158,3.2222,3.1812,3.1417,3.0978,3.1087,3.116,3.1189,3.1204,3.1277,3.1474,3.1599,3.1782,3.19,3.2478,3.3092,3.3692,3.3911,3.3934,3.3679,3.343,3.3495,3.3955,3.4013,3.4358,3.5143,3.5041,3.5109,3.5626,3.5381,3.5288,3.5516,3.5847,3.5848,3.5593,3.5621,3.5591,3.5234,3.5159,3.5182,3.5016,3.5137,3.5204,3.5204,3.5204,3.5204,3.5164,3.5084,3.5004,3.5003,3.4776,3.4523,3.4401,3.4229,3.4202,3.4321,3.4108,3.4055,3.4281,3.3988,3.3708,3.3668,3.3774,3.3347,3.2991,3.3251,3.3586,3.3046,3.3599,3.2866,5.3607,5.3022,5.3379,5.3287,5.2871,5.2851,5.2812,5.2676,5.2363,5.2031,5.1655,5.1172,5.0957,5.0898,5.0508,5.0336,5.0336,5.0238,5.0199,5.0199,5.0199,4.9329,4.8092,4.9491,4.918,4.7666,4.892,4.9492,4.8994,4.7005,4.459,4.1941,3.8556,3.6735,3.6334,3.6309,3.6466,3.67,3.6714,3.667,3.6612,3.6587,3.6344,3.5802,3.528,3.4686,3.4066,3.3357,3.2932,3.2844,3.2515,3.2456,3.269,3.2646,3.2742,3.2976,3.3005,3.3158,3.3531,3.3779,3.4101,3.4505,3.4768,3.5017,3.5187,3.4592,3.4358,3.4827,3.49,3.5172,3.5655,3.5758,3.5826,3.5899,3.6168,3.6299,3.6368,3.6861,3.7072,3.6648,3.6461,3.6285,3.5838,3.5494,3.5316,3.5242,3.5204,3.5204,3.5204,3.5204,3.5204,3.5204,3.5204,3.5177,3.5177,3.4976,3.4789,3.4789,3.4496,3.4456,3.4576,3.4496,3.4456,3.4615,3.4322,3.4028,3.3988,3.4068,3.4057,3.3957,3.4312,3.4498,3.4394,3.4366,3.3885,5.3939,5.3881,5.392,5.3711,5.3345,5.3326,5.3111,5.2754,5.2656,5.2637,5.25,5.1714,5.1362,5.1284,5.0937,5.0781,5.0723,5.0375,5.0238,5.0238,5.0199,5.0081,4.9839,5.0124,5.0085,4.9833,5.0046,5.0102,4.9866,4.7591,4.4278,4.0433,3.9544,3.8593,3.7223,3.7067,3.7032,3.7076,3.7036,3.6905,3.6626,3.6587,3.6412,3.6061,3.6012,3.569,3.5055,3.4967,3.4777,3.449,3.4154,3.397,3.4007,3.375,3.3589,3.3633,3.3633,3.3882,3.449,3.4607,3.4871,3.5489,3.5577,3.5636,3.568,3.5592,3.5533,3.5636,3.5636,3.5743,3.6027,3.61,3.6246,3.6534,3.6812,3.7007,3.7022,3.7314,3.7534,3.7508,3.7582,3.7517,3.6582,3.6452,3.6227,3.5362,3.535,3.5283,3.5204,3.5231,3.5217,3.5204,3.5204,3.5204,3.5164,3.4976,3.4856,3.4737,3.451,3.4536,3.467,3.4603,3.4429,3.4762,3.4536,3.4309,3.4336,3.4495,3.4655,3.4615,3.4816,3.5084,3.507,3.4923,3.4396,5.3972,5.3972,5.3972,5.39,5.3769,5.375,5.3652,5.3451,5.3228,5.3111,5.3052,5.2461,5.2026,5.1836,5.1894,5.1655,5.1167,5.1269,5.1172,5.0937,5.0918,5.0894,5.0918,5.0894,5.0801,5.0566,5.0547,5.041,4.9867,4.7928,4.5856,4.4105,4.2899,4.126,3.9445,3.9286,3.8701,3.7448,3.7398,3.7339,3.7178,3.6802,3.6514,3.6407,3.6217,3.6012,3.5734,3.5606,3.5407,3.5289,3.5158,3.5084,3.5084,3.4953,3.4879,3.4879,3.4894,3.4997,3.526,3.5289,3.548,3.5919,3.6114,3.6314,3.6519,3.6695,3.6837,3.6793,3.6461,3.6373,3.6641,3.6861,3.7036,3.7168,3.7339,3.7398,3.7413,3.7691,3.7896,3.7885,3.7865,3.7743,3.7263,3.701,3.657,3.5876,3.5827,3.5788,3.5363,3.5338,3.5364,3.5244,3.5204,3.5204,3.5191,3.5124,3.5017,3.499,3.4923,3.4923,3.4937,3.4937,3.4897,3.5016,3.4789,3.4615,3.4615,3.4669,3.4789,3.4856,3.5016,3.5204,3.5204,3.511,3.491,5.4252,5.4349,5.4349,5.4349,5.4349,5.4232,5.4193,5.4141,5.3756,5.358,5.3541,5.3203,5.2832,5.2525,5.2637,5.2338,5.185,5.2109,5.209,5.1772,5.1753,5.1777,5.1753,5.1753,5.1538,5.1187,5.1172,5.0879,5.0267,4.8933,4.7776,4.699,4.5574,4.3529,4.1198,4.0939,3.9876,3.7938,3.7735,3.7705,3.7559,3.7124,3.6875,3.6846,3.6553,3.6353,3.6353,3.6095,3.5958,3.5934,3.587,3.5802,3.5802,3.5738,3.5718,3.5718,3.5718,3.5782,3.5904,3.5934,3.6109,3.648,3.6744,3.6978,3.7212,3.7471,3.7588,3.7544,3.7212,3.7109,3.7197,3.7457,3.7588,3.7603,3.7662,3.7735,3.7764,3.8028,3.8192,3.8196,3.8097,3.7895,3.7757,3.7366,3.6842,3.6638,3.6641,3.6644,3.6028,3.5989,3.5935,3.5787,3.5732,3.5533,3.527,3.5177,3.5204,3.5204,3.5151,3.5151,3.5204,3.5191,3.5191,3.5084,3.4976,3.4923,3.4909,3.4909,3.4909,3.495,3.5057,3.5204,3.5204,3.5191,3.511,5.4883,5.5189,5.5234,5.5215,5.5215,5.4824,5.4674,5.4629,5.418,5.3978,5.3978,5.392,5.3711,5.3287,5.2949,5.267,5.2612,5.2656,5.2631,5.2578,5.2598,5.2637,5.2631,5.2612,5.2422,5.2017,5.1938,5.1523,5.0796,5.0613,4.9425,4.7268,4.7118,4.5126,4.2122,4.1592,4.0283,3.8544,3.816,3.794,3.7676,3.7588,3.7559,3.753,3.7212,3.7022,3.7007,3.6729,3.6568,3.6568,3.6305,3.6105,3.61,3.589,3.5782,3.5767,3.5753,3.5978,3.648,3.6568,3.6802,3.7383,3.7486,3.7559,3.7574,3.7622,3.7691,3.7632,3.7852,3.7867,3.7662,3.7691,3.7691,3.7691,3.791,3.8057,3.8072,3.8295,3.8459,3.8488,3.8483,3.842,3.8204,3.7651,3.7551,3.7545,3.7462,3.7312,3.7358,3.7092,3.6954,3.6955,3.6805,3.6439,3.548,3.5309,3.5283,3.5204,3.5204,3.5204,3.5204,3.5204,3.5204,3.5204,3.5137,3.5124,3.5164,3.5164,3.5137,3.5137,3.5124,3.5204,3.5204,3.5204,3.511,5.5176,5.5312,5.5312,5.5312,5.5293,5.5137,5.5078,5.5039,5.4629,5.4453,5.4394,5.4134,5.3945,5.3764,5.3607,5.3217,5.2773,5.2988,5.3013,5.2734,5.2715,5.2715,5.2715,5.2715,5.2656,5.248,5.2207,5.1777,5.1245,5.1187,5.077,5.0059,4.9851,4.8403,4.5952,4.4345,4.2621,4.0548,3.9139,3.8309,3.8166,3.8166,3.8192,3.8137,3.768,3.7427,3.7402,3.731,3.7226,3.7226,3.7109,3.7076,3.7051,3.6973,3.6915,3.694,3.69,3.7003,3.7222,3.7226,3.7339,3.7574,3.7793,3.7925,3.7954,3.8061,3.8192,3.8221,3.8254,3.8269,3.8236,3.8166,3.8166,3.8181,3.8269,3.8382,3.8357,3.8444,3.8591,3.8795,3.8985,3.9084,3.8983,3.8829,3.8632,3.8412,3.8417,3.827,3.7904,3.7766,3.7721,3.7389,3.7196,3.6819,3.5875,3.5717,3.5638,3.5336,3.5204,3.5204,3.5217,3.5204,3.5204,3.5204,3.5204,3.5204,3.5191,3.5191,3.5204,3.5204,3.5204,3.5204,3.5204,3.5204,3.511,5.5618,5.5547,5.5664,5.5723,5.5703,5.554,5.5481,5.5449,5.5078,5.4883,5.483,5.4433,5.4271,5.4369,5.4291,5.4023,5.3529,5.3594,5.3418,5.3144,5.31,5.3119,5.3125,5.3119,5.3066,5.2871,5.25,5.2129,5.185,5.1811,5.1811,5.1787,5.1811,5.0736,4.8622,4.6343,4.4126,4.198,3.9674,3.8517,3.8517,3.8517,3.8517,3.8459,3.8079,3.7867,3.7764,3.7662,3.7603,3.7603,3.7603,3.7603,3.7603,3.7603,3.7603,3.7603,3.7588,3.7705,3.7841,3.7823,3.7896,3.8203,3.8295,3.8423,3.854,3.8734,3.881,3.8824,3.8824,3.8824,3.8824,3.8824,3.8754,3.8722,3.8766,3.8824,3.8824,3.8824,3.8941,3.9132,3.9307,3.9497,3.9614,3.9643,3.9541,3.9276,3.9381,3.9108,3.8823,3.8628,3.8642,3.8246,3.8184,3.7817,3.7254,3.7107,3.6267,3.5816,3.5483,3.543,3.5324,3.5297,3.523,3.5204,3.5204,3.5204,3.5204,3.5204,3.5204,3.5204,3.5204,3.5204,3.5204,3.5204,3.5124,5.6335,5.5989,5.6387,5.653,5.6452,5.6067,5.5911,5.5833,5.5462,5.5312,5.5254,5.4863,5.4863,5.5098,5.4824,5.4844,5.4922,5.4369,5.4017,5.3939,5.392,5.39,5.3881,5.3836,5.3672,5.3326,5.291,5.2695,5.2598,5.2553,5.2598,5.2656,5.2573,5.1624,4.957,4.7223,4.4775,4.2644,4.0256,3.8784,3.8532,3.8591,3.8605,3.8591,3.8532,3.8426,3.8159,3.7852,3.7735,3.7705,3.772,3.7647,3.7735,3.7735,3.7651,3.7709,3.7691,3.7958,3.84,3.8321,3.8558,3.9085,3.9132,3.9058,3.9275,3.9366,3.9395,3.9366,3.9395,3.9424,3.9409,3.9424,3.9322,3.9088,3.9219,3.9366,3.9409,3.9468,3.9483,3.9524,3.9582,3.9643,3.9904,4.0007,4.004,4.0201,4.0088,4.0003,4.0011,3.9737,3.9665,3.9694,3.9375,3.8811,3.8692,3.8545,3.7319,3.6354,3.6045,3.5844,3.5683,3.5603,3.5363,3.5283,3.5204,3.5204,3.5204,3.5204,3.5204,3.5204,3.5204,3.5204,3.5204,3.5204,3.5204,5.685,5.6433,5.655,5.6609,5.6589,5.6445,5.6387,5.6328,5.5891,5.5716,5.5664,5.5293,5.5169,5.5254,5.5156,5.5176,5.5273,5.5,5.4765,5.4473,5.4154,5.4037,5.4017,5.3992,5.3764,5.3443,5.3248,5.3013,5.2773,5.2734,5.2715,5.2715,5.2734,5.2371,5.159,4.9421,4.7198,4.4965,4.2705,4.0844,3.9387,3.9202,3.9202,3.9217,3.919,3.9117,3.9056,3.8748,3.8587,3.8558,3.8766,3.8807,3.8617,3.8547,3.8573,3.8602,3.8792,3.8968,3.9117,3.9114,3.9143,3.9436,3.9395,3.9407,3.9468,3.9512,3.9526,3.9512,3.9483,3.9483,3.9512,3.9729,3.9699,3.9366,3.9451,3.9526,3.957,3.9729,3.9831,3.9875,4.0036,4.0226,4.0299,4.0314,4.0343,4.0473,4.0373,4.0414,4.0429,4.0285,4.008,4.0021,3.9821,3.9626,3.9287,3.9074,3.8479,3.7556,3.7067,3.6462,3.622,3.591,3.5642,3.5362,3.5257,3.5257,3.5257,3.5257,3.5309,3.523,3.523,3.523,3.5204,3.5204,3.5204,5.7408,5.6902,5.6902,5.6902,5.6876,5.6689,5.6609,5.6543,5.6308,5.6145,5.6067,5.5696,5.5644,5.5723,5.5625,5.5644,5.5762,5.5625,5.5364,5.5117,5.4681,5.4486,5.4447,5.431,5.4141,5.3893,5.3717,5.3476,5.3197,5.3203,5.3178,5.3178,5.3178,5.3197,5.2938,5.0904,4.8885,4.7327,4.4497,4.2188,4.0899,3.9921,3.9483,3.9483,3.9483,3.9582,3.9656,3.9495,3.9307,3.926,3.9407,3.9366,3.919,3.9161,3.9175,3.9219,3.9377,3.9538,3.9629,3.9512,3.9656,3.9802,3.9875,3.9875,3.9904,3.9948,4.0021,3.989,3.989,3.9875,3.9919,4.0036,4.0065,3.9904,3.989,3.9875,3.9904,4.0051,4.0168,4.0212,4.0343,4.046,4.0502,4.0502,4.0502,4.0502,4.0502,4.0502,4.0502,4.0502,4.0329,4.0226,4.017,3.9932,3.9543,3.948,3.9502,3.8882,3.8263,3.7504,3.6936,3.6433,3.6027,3.5574,3.5362,3.5586,3.5612,3.5586,3.5586,3.5454,3.5401,3.5349,3.5389,3.5257,3.527,5.7992,5.7468,5.7442,5.7481,5.7441,5.6981,5.6794,5.6721,5.6648,5.6582,5.6465,5.6106,5.6172,5.6387,5.6113,5.6152,5.6445,5.6152,5.593,5.5794,5.5547,5.5332,5.5137,5.4844,5.4687,5.4635,5.4297,5.4121,5.4056,5.3998,5.4037,5.3978,5.39,5.3959,5.3491,5.1506,5.0446,4.9388,4.5892,4.3873,4.293,4.1119,3.9787,3.9694,3.9658,3.9831,4.0051,4.0109,3.9948,3.9641,3.9568,3.9524,3.9497,3.9512,3.9538,3.9526,3.9568,3.9816,3.9934,3.9936,4.0007,4.0475,4.0534,4.0534,4.0563,4.0724,4.0768,4.0563,4.0534,4.0534,4.0534,4.0563,4.0563,4.0576,4.0458,4.0402,4.0488,4.0475,4.0502,4.046,4.049,4.0504,4.0504,4.0502,4.0532,4.0561,4.0561,4.0504,4.0548,4.0563,4.0532,4.0446,4.0387,4.0289,3.9938,3.994,3.996,3.9724,3.9184,3.8555,3.7724,3.7134,3.6684,3.6174,3.5839,3.6023,3.6114,3.6169,3.6114,3.6059,3.5928,3.5717,3.5626,3.5626,3.5666,5.8574,5.8098,5.8072,5.8272,5.848,5.7938,5.7696,5.7642,5.7239,5.6975,5.6648,5.6465,5.653,5.6562,5.6484,5.6511,5.6562,5.6484,5.6406,5.6406,5.6328,5.5859,5.541,5.5215,5.5111,5.5117,5.4961,5.4961,5.4915,5.4648,5.4512,5.4518,5.4193,5.4011,5.3774,5.3558,5.2558,5.1251,5.0225,4.7384,4.4404,4.3434,4.2168,4.0391,4.0473,4.0619,4.0766,4.0943,4.0755,4.0241,3.9743,3.9626,3.9875,3.9919,3.9907,3.9977,4.0329,4.0619,4.0694,4.0784,4.0974,4.112,4.112,4.1164,4.1164,4.1237,4.1252,4.1164,4.1164,4.115,4.115,4.1135,4.115,4.1106,4.0797,4.0548,4.059,4.0722,4.0795,4.0563,4.0709,4.0709,4.0607,4.0532,4.0619,4.0766,4.0722,4.0607,4.0738,4.0694,4.0636,4.0519,4.046,4.0475,4.0446,4.046,4.0433,4.0364,4.0029,3.9627,3.8773,3.7961,3.7632,3.7252,3.7074,3.7137,3.7053,3.6984,3.6886,3.6802,3.6406,3.6183,3.6298,3.6349,3.6365,5.944,5.8937,5.8937,5.92,5.9531,5.8987,5.8745,5.8671,5.8374,5.7958,5.758,5.7533,5.7398,5.7136,5.6933,5.6999,5.7117,5.696,5.698,5.7117,5.6933,5.6484,5.5957,5.5677,5.554,5.5521,5.539,5.5293,5.5254,5.5058,5.4961,5.4902,5.4662,5.4544,5.4603,5.4733,5.4376,5.2848,5.1503,4.8803,4.6339,4.4094,4.2522,4.1094,4.1075,4.1177,4.1192,4.1325,4.1223,4.0857,4.0506,4.0389,4.055,4.0579,4.0579,4.0621,4.0987,4.1163,4.1192,4.1325,4.1385,4.1442,4.1515,4.1515,4.1443,4.1515,4.1588,4.1413,4.1427,4.1413,4.1413,4.1413,4.1413,4.1354,4.1076,4.0885,4.0899,4.106,4.1075,4.0973,4.0929,4.0987,4.0855,4.068,4.0753,4.0958,4.0927,4.0973,4.1075,4.0929,4.0782,4.068,4.0636,4.0665,4.059,4.0519,4.0504,4.049,4.0433,4.014,3.9515,3.8672,3.8234,3.8001,3.8079,3.8142,3.7974,3.7875,3.7847,3.763,3.7053,3.6958,3.7209,3.7072,3.7086,6.0462,5.9963,5.9963,6.0229,6.0516,6.0024,5.9753,5.9753,5.9591,5.9279,5.8874,5.884,5.8496,5.805,5.7828,5.7725,5.8066,5.7801,5.7737,5.7795,5.7631,5.7146,5.6609,5.6172,5.5989,5.595,5.5605,5.5547,5.5547,5.5449,5.5371,5.5332,5.5267,5.5273,5.5195,5.5312,5.5345,5.4539,5.2152,4.9808,4.7918,4.5073,4.2942,4.1465,4.1413,4.1501,4.153,4.1574,4.153,4.153,4.1429,4.1283,4.1354,4.1356,4.1326,4.134,4.1384,4.1471,4.1544,4.1632,4.1676,4.1793,4.2011,4.1909,4.1808,4.191,4.1953,4.1661,4.153,4.1603,4.1603,4.1559,4.1603,4.1618,4.153,4.1487,4.1487,4.1486,4.1457,4.1427,4.1192,4.1251,4.1164,4.1018,4.0826,4.1353,4.1251,4.1177,4.1265,4.1193,4.106,4.0899,4.087,4.0885,4.0738,4.0577,4.0534,4.0519,4.049,4.028,3.9835,3.917,3.8675,3.8523,3.8973,3.9048,3.8847,3.879,3.8776,3.8501,3.7998,3.8216,3.8476,3.7999,3.781,6.1082,6.0975,6.0975,6.1243,6.1554,6.1033,6.0815,6.0836,6.0353,5.9981,5.9529,5.9469,5.9381,5.9198,5.9044,5.9132,5.9184,5.9037,5.8936,5.8568,5.8548,5.7887,5.7178,5.666,5.6465,5.6387,5.6348,5.6316,5.6211,5.5937,5.5774,5.5735,5.5521,5.5332,5.541,5.5716,5.5774,5.5648,5.4825,5.2298,4.9261,4.7621,4.5,4.2064,4.172,4.1968,4.2143,4.2187,4.2187,4.207,4.1749,4.1574,4.153,4.1501,4.153,4.1618,4.1734,4.1938,4.2158,4.2392,4.2655,4.2831,4.286,4.2933,4.264,4.2582,4.2523,4.226,4.2187,4.2143,4.2099,4.2158,4.2129,4.2099,4.2114,4.2129,4.2129,4.1953,4.1733,4.1544,4.1574,4.1631,4.1429,4.1312,4.1354,4.1675,4.1616,4.1398,4.1427,4.1501,4.1369,4.1221,4.1221,4.1221,4.1002,4.0855,4.0812,4.0768,4.0709,4.0665,4.0218,3.9992,3.9647,3.9728,4.0069,3.9936,3.9568,3.9606,3.9537,3.9243,3.8979,3.9078,3.9068,3.8728,3.8661,6.1638,6.1611,6.1611,6.1907,6.2252,6.1973,6.1864,6.1858,6.1564,6.1141,6.0713,6.0617,6.0481,6.0195,6.0034,6.0014,6.0113,5.9887,5.9521,5.9093,5.8795,5.823,5.7687,5.7293,5.7058,5.6726,5.6589,5.6609,5.653,5.6387,5.623,5.623,5.6015,5.6113,5.6172,5.6406,5.6633,5.6475,5.5612,5.3347,5.0293,4.8289,4.6374,4.3104,4.2494,4.2713,4.286,4.2874,4.2874,4.2787,4.2509,4.2232,4.2129,4.2085,4.2144,4.2363,4.248,4.2669,4.2904,4.3021,4.3182,4.3372,4.3387,4.3328,4.3167,4.3138,4.2977,4.2743,4.2626,4.2596,4.2407,4.2377,4.2377,4.2377,4.2377,4.2377,4.2363,4.2216,4.2085,4.1909,4.1894,4.1924,4.1808,4.1647,4.172,4.1968,4.185,4.1704,4.1938,4.1982,4.1792,4.166,4.1631,4.1543,4.1281,4.115,4.112,4.1091,4.1062,4.1047,4.0893,4.0818,4.0743,4.0667,4.0477,4.0404,4.0132,4.0226,4.0182,3.9988,3.9793,3.9803,3.9734,3.963,3.9632,6.2114,6.2114,6.2114,6.2348,6.2638,6.2679,6.2631,6.2659,6.2679,6.2262,6.1994,6.1932,6.1569,6.1205,6.0921,6.092,6.0971,6.0756,6.0432,5.9957,5.9414,5.8827,5.8301,5.7961,5.7586,5.6882,5.6902,5.6902,5.6882,5.6804,5.6882,5.6824,5.6824,5.6894,5.7207,5.7305,5.7383,5.7388,5.5968,5.3898,5.1341,4.886,4.6289,4.372,4.3226,4.3241,4.3284,4.3299,4.3343,4.3387,4.3387,4.327,4.3123,4.2992,4.3079,4.3358,4.3255,4.3299,4.3372,4.3446,4.3489,4.3504,4.3563,4.3519,4.3489,4.3446,4.3284,4.3079,4.2904,4.2757,4.2494,4.2407,4.2392,4.2377,4.2377,4.2377,4.2377,4.2377,4.2333,4.2304,4.2158,4.2114,4.2085,4.1968,4.2114,4.2187,4.2055,4.2011,4.2231,4.2319,4.2085,4.1968,4.1924,4.1821,4.1602,4.1325,4.1325,4.1354,4.1326,4.1369,4.1369,4.1237,4.1075,4.0782,4.0607,4.0563,4.049,4.0387,4.0387,4.0502,4.0431,4.0216,4.0274,4.046,4.0473,6.2576,6.2576,6.2576,6.2617,6.2679,6.2679,6.2679,6.2679,6.2679,6.2625,6.2543,6.2515,6.2433,6.231,6.2337,6.2316,6.2166,6.1891,6.1658,6.1164,6.0545,5.9884,5.9091,5.8674,5.818,5.782,5.7664,5.7664,5.7605,5.7683,5.7527,5.7625,5.7605,5.7683,5.7742,5.7808,5.784,5.8016,5.7148,5.5678,5.339,5.0584,4.7326,4.4031,4.3504,4.3475,4.3446,4.3416,4.3387,4.3387,4.3387,4.3504,4.3548,4.346,4.3431,4.3446,4.3489,4.3592,4.3724,4.3753,4.3899,4.4075,4.4089,4.3958,4.3826,4.3709,4.3592,4.3343,4.3079,4.2874,4.2831,4.264,4.2421,4.2392,4.245,4.2421,4.2407,4.2407,4.2407,4.2377,4.2319,4.2275,4.2231,4.2202,4.226,4.2289,4.2231,4.2099,4.2129,4.2246,4.2216,4.2158,4.2143,4.2026,4.188,4.1603,4.1471,4.153,4.1544,4.1544,4.1515,4.1442,4.1237,4.109,4.0927,4.0839,4.0751,4.0621,4.0563,4.0621,4.0563,4.0546,4.0577,4.0651,4.0619,6.2679,6.2679,6.2679,6.2679,6.2679,6.2679,6.2679,6.2679,6.2679,6.2679,6.2679,6.2679,6.2679,6.2679,6.2679,6.2679,6.2625,6.2323,6.2069,6.1684,6.1148,6.0507,5.977,5.9355,5.9027,5.8704,5.8563,5.8289,5.7965,5.7859,5.7937,5.7879,5.7898,5.7996,5.8191,5.8203,5.8367,5.8445,5.821,5.7121,5.4682,5.1401,4.7362,4.4948,4.3841,4.3855,4.3885,4.3855,4.3855,4.387,4.3855,4.3943,4.3972,4.3958,4.387,4.3841,4.3841,4.3899,4.4045,4.406,4.4133,4.428,4.4323,4.4235,4.4103,4.403,4.3914,4.3636,4.3343,4.3079,4.2904,4.2889,4.2743,4.2552,4.2684,4.2713,4.2567,4.2567,4.2552,4.2464,4.2391,4.2348,4.2348,4.2348,4.2363,4.2377,4.2377,4.2275,4.2129,4.2187,4.2289,4.2289,4.226,4.2216,4.2114,4.1953,4.1749,4.1764,4.1778,4.1793,4.1822,4.1793,4.1719,4.1558,4.141,4.122,4.1119,4.1047,4.0929,4.0797,4.0899,4.0943,4.0855,4.0812,4.0797,6.2679,6.2679,6.2679,6.2679,6.2679,6.2679,6.2679,6.2679,6.2679,6.2679,6.2679,6.2679,6.2679,6.2679,6.2679,6.2679,6.2652,6.2186,6.2069,6.1905,6.1251,6.0595,6.029,5.9865,5.952,5.9099,5.909,5.8856,5.8387,5.827,5.8191,5.827,5.8191,5.8309,5.8594,5.8652,5.8926,5.8945,5.8803,5.7508,5.4362,5.0597,4.6977,4.4711,4.4411,4.4367,4.425,4.4236,4.425,4.425,4.4265,4.4309,4.4323,4.4323,4.4323,4.4367,4.4323,4.4323,4.4279,4.4264,4.425,4.4323,4.4323,4.4294,4.4279,4.422,4.4177,4.3899,4.3636,4.3402,4.3241,4.327,4.3109,4.2918,4.305,4.3226,4.2889,4.2757,4.2699,4.2626,4.2494,4.245,4.2464,4.2377,4.2377,4.2377,4.2377,4.2377,4.226,4.2289,4.2348,4.2363,4.2363,4.2363,4.2319,4.2289,4.2172,4.2143,4.2143,4.2158,4.2216,4.2275,4.2114,4.1924,4.1865,4.169,4.1588,4.1427,4.1208,4.115,4.1296,4.1296,4.115,4.1106,4.1135,6.2679,6.2679,6.2679,6.2679,6.2679,6.2679,6.2679,6.2679,6.2679,6.2679,6.2679,6.2679,6.2679,6.2679,6.2679,6.2679,6.2652,6.257,6.2488,6.2323,6.1554,6.1002,6.0642,5.969,5.9523,5.9291,5.9235,5.916,5.8934,5.8914,5.8993,5.8953,5.8914,5.9071,5.8984,5.9004,5.9168,5.918,5.916,5.709,5.316,5.0322,4.7757,4.5516,4.4733,4.4601,4.4396,4.4352,4.4367,4.4323,4.4323,4.4323,4.4323,4.4323,4.4499,4.4572,4.4514,4.4338,4.4382,4.4397,4.4382,4.4352,4.4308,4.4323,4.4323,4.4323,4.4294,4.428,4.3972,4.3738,4.3577,4.3519,4.3372,4.3314,4.3358,4.3416,4.3226,4.3094,4.3006,4.2874,4.2772,4.2611,4.2538,4.2464,4.2377,4.2377,4.2377,4.2392,4.2377,4.2377,4.2377,4.2377,4.2377,4.2377,4.2377,4.2377,4.2377,4.2377,4.2377,4.2377,4.2377,4.2377,4.2377,4.2216,4.2172,4.2026,4.1807,4.1603,4.1457,4.1471,4.1574,4.1515,4.1398,4.1385,4.1487,6.2679,6.2679,6.2679,6.2679,6.2679,6.2679,6.2679,6.2679,6.2679,6.2679,6.2679,6.2679,6.2679,6.2679,6.2679,6.2679,6.2679,6.2679,6.2679,6.27,6.2124,6.1712,6.1298,6.0579,6.0052,5.9693,5.9375,5.9227,5.9227,5.9247,5.9227,5.9199,5.9227,5.9168,5.9277,5.9227,5.9336,5.9531,5.9379,5.7338,5.3649,5.1444,4.9195,4.5358,4.5115,4.4894,4.4675,4.4601,4.4484,4.4382,4.4323,4.4396,4.4454,4.4454,4.4498,4.5011,4.4777,4.4704,4.4821,4.4704,4.4616,4.4498,4.4411,4.4323,4.4323,4.4323,4.4323,4.4309,4.4192,4.4016,4.3899,4.3884,4.3694,4.3607,4.3694,4.3592,4.3548,4.3519,4.3416,4.3211,4.305,4.2918,4.2816,4.2787,4.267,4.2567,4.2567,4.2596,4.2508,4.2377,4.2377,4.2377,4.2377,4.2377,4.2377,4.2377,4.2377,4.2377,4.2377,4.2377,4.2377,4.2377,4.2377,4.2377,4.2304,4.2143,4.1953,4.1924,4.1894,4.1865,4.1822,4.1764,4.1734,4.1895,4.1925,6.2576,6.2679,6.2679,6.2679,6.2679,6.2679,6.2679,6.2679,6.2679,6.2679,6.2679,6.2679,6.2679,6.2679,6.2679,6.2679,6.2679,6.2679,6.2679,6.2673,6.2612,6.2337,6.1922,6.1395,6.1015,6.0553,6.02,5.9975,5.9823,5.9644,5.9531,5.9355,5.957,5.957,5.9531,5.959,5.9746,5.9904,5.9475,5.7049,5.3684,5.2272,4.9438,4.6813,4.5408,4.5291,4.4982,4.4923,4.4777,4.4675,4.4631,4.4748,4.485,4.4792,4.4909,4.526,4.5187,4.5245,4.5304,4.5216,4.4997,4.4821,4.4645,4.4484,4.4455,4.4411,4.4323,4.4323,4.4309,4.4133,4.4045,4.4147,4.4031,4.3958,4.4002,4.3855,4.3738,4.3724,4.365,4.3504,4.3343,4.3284,4.3211,4.3197,4.3021,4.2787,4.2728,4.2757,4.2684,4.2582,4.2596,4.2655,4.2611,4.2552,4.2392,4.2392,4.2392,4.2421,4.2421,4.2407,4.2407,4.2392,4.2377,4.2377,4.2377,4.2319,4.2158,4.2274,4.2347,4.2202,4.2114,4.2129,4.2172,4.2319,4.2319,6.2307,6.2679,6.2679,6.2679,6.2679,6.2679,6.2679,6.2679,6.2679,6.2679,6.2679,6.2679,6.2679,6.2679,6.2679,6.27,6.2727,6.2679,6.2762,6.2742,6.2597,6.2616,6.2433,6.2301,6.2102,6.1933,6.1346,6.1111,6.1052,6.0499,6.0172,5.9863,6.0011,6.0225,6.0264,6.0186,6.0273,6.0068,5.9263,5.6817,5.3824,5.1718,4.9138,4.6667,4.5759,4.5627,4.5289,4.526,4.5187,4.5114,4.5084,4.5173,4.5201,4.5128,4.5289,4.5597,4.5657,4.5744,4.5862,4.5582,4.5304,4.5158,4.4982,4.4748,4.4675,4.4455,4.4367,4.4338,4.4323,4.4309,4.4235,4.425,4.4221,4.4206,4.4192,4.4148,4.4016,4.3884,4.3826,4.3723,4.368,4.3651,4.3651,4.3606,4.3387,4.3109,4.2962,4.2977,4.3021,4.2962,4.2962,4.2977,4.2904,4.2757,4.2494,4.2494,4.2611,4.2655,4.264,4.2524,4.2465,4.2436,4.2523,4.2377,4.2377,4.2377,4.2377,4.2391,4.2391,4.2377,4.2348,4.2289,4.2275,4.2348,4.2377,6.2534,6.2679,6.2679,6.2679,6.2679,6.2679,6.2679,6.2679,6.2679,6.2679,6.2679,6.2679,6.2679,6.2679,6.27,6.2872,6.3059,6.281,6.3079,6.33,6.3265,6.3264,6.3226,6.3095,6.2839,6.2759,6.2287,6.1709,6.1341,6.1333,6.1048,6.0759,6.0566,6.0381,6.044,6.0694,6.082,6.0765,5.9925,5.8092,5.4271,5.2936,5.0462,4.6467,4.6111,4.5935,4.5686,4.5627,4.5479,4.5362,4.5333,4.5436,4.5554,4.5436,4.5611,4.5979,4.5935,4.6008,4.6169,4.5845,4.5538,4.5304,4.5158,4.5026,4.488,4.4675,4.4469,4.4381,4.4323,4.4323,4.4323,4.4294,4.4309,4.4323,4.4323,4.4323,4.4235,4.4089,4.4045,4.3972,4.4031,4.4045,4.4045,4.403,4.3738,4.3446,4.3314,4.3211,4.327,4.3328,4.3343,4.3299,4.3226,4.305,4.2787,4.2816,4.2904,4.2874,4.2845,4.2801,4.2714,4.2728,4.2728,4.2567,4.2407,4.2407,4.2407,4.2392,4.2377,4.2377,4.2377,4.2363,4.2377,4.2377,4.2377,6.2452,6.2686,6.2534,6.2555,6.2679,6.2679,6.2679,6.2679,6.2679,6.2679,6.2679,6.2679,6.2679,6.2679,6.27,6.2948,6.3183,6.3162,6.3473,6.3714,6.3901,6.3991,6.4071,6.4073,6.3955,6.3719,6.3266,6.2767,6.2571,6.2324,6.1952,6.1527,6.1082,6.0898,6.0909,6.1045,6.1269,6.1367,6.1126,5.9757,5.5676,5.4112,5.2173,4.7906,4.6865,4.6184,4.6008,4.5949,4.5876,4.5744,4.5686,4.5728,4.5803,4.5832,4.5891,4.6052,4.614,4.6081,4.6154,4.6096,4.5862,4.573,4.5525,4.5289,4.504,4.4865,4.4631,4.4367,4.4323,4.4338,4.4338,4.4323,4.4323,4.4323,4.4323,4.4323,4.4323,4.4206,4.4265,4.425,4.4265,4.425,4.4236,4.4177,4.3943,4.3767,4.3767,4.3636,4.3548,4.3606,4.3665,4.3606,4.3504,4.3328,4.3123,4.3153,4.3182,4.3138,4.3109,4.3138,4.3094,4.3065,4.2933,4.2743,4.2611,4.2523,4.2464,4.2435,4.2421,4.2377,4.2377,4.2377,4.2377,4.2377,4.2377,6.1886,6.2597,6.2245,6.2327,6.2679,6.2679,6.2679,6.2679,6.2679,6.2679,6.2679,6.2679,6.2679,6.2679,6.2679,6.299,6.339,6.3411,6.368,6.4177,6.4397,6.4576,6.4783,6.4877,6.4874,6.5101,6.4598,6.4145,6.4124,6.329,6.2801,6.2309,6.1765,6.1475,6.164,6.168,6.167,6.167,6.167,5.9934,5.7562,5.5136,5.2355,4.9774,4.7316,4.6274,4.6213,4.6198,4.614,4.6096,4.6096,4.614,4.6169,4.6184,4.6213,4.6257,4.6272,4.6272,4.6286,4.6286,4.6213,4.6125,4.5891,4.5657,4.5304,4.504,4.4748,4.4528,4.4455,4.4367,4.4337,4.4382,4.4426,4.4397,4.4411,4.4353,4.4367,4.4323,4.4323,4.4441,4.4367,4.4294,4.4294,4.425,4.4103,4.403,4.4147,4.4074,4.3884,4.3884,4.3943,4.3914,4.3811,4.3621,4.3475,4.3446,4.3446,4.3402,4.3431,4.3489,4.346,4.3387,4.3211,4.2962,4.2801,4.2713,4.2582,4.245,4.2464,4.2436,4.2392,4.2377,4.2377,4.2392,4.2421,6.1949,6.2265,6.239,6.2555,6.2679,6.2679,6.2679,6.2679,6.2679,6.2679,6.2679,6.2679,6.2679,6.2679,6.2783,6.3121,6.3701,6.3514,6.3784,6.4853,6.4825,6.4928,6.5114,6.5259,6.5383,6.5375,6.5118,6.4803,6.4389,6.3883,6.3306,6.2785,6.2126,6.1748,6.1719,6.1719,6.1719,6.1719,6.1466,6.0452,5.7888,5.5303,5.2676,5.0128,4.7656,4.6378,4.6301,4.6301,4.6301,4.6301,4.6301,4.6301,4.6301,4.6301,4.6301,4.6301,4.6301,4.6301,4.6301,4.6286,4.6301,4.6242,4.6169,4.5949,4.564,4.5538,4.5172,4.4836,4.4806,4.4777,4.4719,4.4894,4.4923,4.4719,4.4631,4.4499,4.4411,4.4337,4.4337,4.4587,4.4645,4.4616,4.4571,4.4425,4.4264,4.4162,4.4235,4.425,4.4133,4.4148,4.4192,4.4192,4.4089,4.3943,4.3811,4.3782,4.3724,4.3694,4.3782,4.3914,4.3855,4.3709,4.3519,4.3284,4.3094,4.2918,4.2874,4.2787,4.2596,4.2494,4.2567,4.2523,4.2494,4.2508,4.2523,6.1949,6.2265,6.2383,6.2555,6.2679,6.2679,6.2679,6.2679,6.27,6.279,6.2866,6.281,6.2831,6.2886,6.3017,6.3307,6.4032,6.4011,6.4211,6.528,6.5114,6.5156,6.5329,6.5383,6.5383,6.5383,6.5355,6.5155,6.484,6.4602,6.3797,6.2843,6.2262,6.1952,6.1835,6.1719,6.1719,6.1437,6.0833,5.9557,5.7308,5.488,5.2007,5.0025,4.8103,4.6418,4.633,4.6301,4.6301,4.6301,4.6301,4.6301,4.6301,4.6301,4.6301,4.6301,4.6301,4.6301,4.6301,4.6301,4.6301,4.6286,4.6301,4.614,4.5891,4.5759,4.545,4.5216,4.5245,4.5143,4.507,4.5305,4.5216,4.4997,4.4923,4.4792,4.4733,4.4659,4.4704,4.4909,4.4967,4.4938,4.4836,4.463,4.444,4.4367,4.4323,4.4323,4.4323,4.4323,4.4323,4.4279,4.4279,4.4163,4.406,4.4103,4.4045,4.3986,4.406,4.4162,4.4133,4.3987,4.3797,4.3636,4.346,4.3343,4.3284,4.3167,4.2992,4.2889,4.2889,4.2787,4.2626,4.2669,4.2757,6.1824,6.2562,6.2203,6.2307,6.2638,6.2679,6.2679,6.2679,6.2679,6.2935,6.3307,6.2831,6.2872,6.3266,6.3349,6.3639,6.4094,6.4418,6.4866,6.5238,6.528,6.5391,6.5391,6.5383,6.5383,6.5383,6.5383,6.5355,6.5298,6.4774,6.3855,6.3037,6.264,6.2233,6.1864,6.1719,6.1719,6.1261,6.0593,5.936,5.7621,5.4078,5.1917,5.0076,4.8175,4.6784,4.6445,4.6357,4.6345,4.633,4.633,4.6316,4.6301,4.6301,4.6301,4.6301,4.6301,4.6301,4.6301,4.6301,4.6301,4.6301,4.6301,4.6111,4.5979,4.5906,4.5701,4.5509,4.545,4.5392,4.5378,4.5392,4.5421,4.5348,4.5349,4.5245,4.5201,4.5187,4.5201,4.5275,4.5304,4.5245,4.5055,4.4865,4.466,4.4514,4.4411,4.4323,4.4323,4.4323,4.4323,4.4323,4.4323,4.4323,4.4309,4.4264,4.4235,4.4118,4.4162,4.428,4.4265,4.4206,4.406,4.3914,4.387,4.3738,4.3475,4.3402,4.3387,4.3299,4.3211,4.3123,4.2992,4.3079,4.3182,6.1396,6.2155,6.2052,6.2259,6.2659,6.2679,6.2679,6.2679,6.2679,6.281,6.2893,6.2769,6.2831,6.2914,6.3245,6.368,6.4094,6.4522,6.4928,6.5238,6.5383,6.5383,6.5383,6.5383,6.5383,6.5383,6.5383,6.5383,6.5269,6.4803,6.42,6.3431,6.2959,6.2379,6.1923,6.1719,6.1738,6.1495,6.0922,5.9488,5.7724,5.4629,5.245,5.0171,4.8013,4.6824,4.6531,4.6502,4.646,4.633,4.6489,4.6518,4.6301,4.6301,4.6301,4.6301,4.6301,4.6301,4.6301,4.6301,4.6301,4.6301,4.6301,4.6286,4.6184,4.6096,4.5964,4.5832,4.5772,4.5788,4.5744,4.5759,4.5744,4.5701,4.5671,4.5613,4.5538,4.5479,4.5509,4.5642,4.564,4.5553,4.5362,4.507,4.4865,4.4675,4.4514,4.4411,4.4323,4.4323,4.4323,4.4323,4.4323,4.4323,4.4323,4.4279,4.4309,4.4309,4.4323,4.4323,4.4309,4.428,4.425,4.4162,4.4074,4.3811,4.346,4.3504,4.3665,4.3577,4.3475,4.3416,4.3402,4.3489,4.3577,6.121,6.1969,6.2011,6.2286,6.2638,6.2679,6.2679,6.2679,6.2679,6.279,6.2955,6.279,6.281,6.3079,6.3494,6.3846,6.4136,6.4749,6.5176,6.53,6.5383,6.5383,6.5383,6.5383,6.5383,6.5383,6.5383,6.5383,6.5318,6.5061,6.4516,6.3575,6.3162,6.2524,6.204,6.1875,6.1875,6.1523,6.0757,5.9276,5.7151,5.4636,5.1912,4.9656,4.7379,4.6883,4.6575,4.6592,4.6445,4.633,4.6504,4.6475,4.6301,4.6301,4.6301,4.6301,4.6301,4.6301,4.6301,4.6301,4.6301,4.6301,4.6301,4.6286,4.6286,4.6228,4.6154,4.6067,4.6169,4.6228,4.6184,4.614,4.6081,4.6023,4.5964,4.592,4.5832,4.5759,4.5832,4.5964,4.5964,4.5875,4.567,4.5348,4.504,4.4821,4.4631,4.4499,4.4397,4.4323,4.4323,4.4323,4.4323,4.4323,4.4323,4.4323,4.4323,4.4323,4.4323,4.4323,4.4323,4.4309,4.4294,4.4294,4.4294,4.4002,4.3768,4.3855,4.3987,4.3855,4.3797,4.3811,4.3826,4.3899,4.3943,6.1148,6.1949,6.199,6.2218,6.2597,6.2659,6.2679,6.2679,6.2679,6.2935,6.3162,6.2893,6.2893,6.3183,6.3618,6.3908,6.426,6.4811,6.5176,6.5383,6.5383,6.5383,6.5383,6.5383,6.5383,6.5383,6.5383,6.5383,6.5383,6.5204,6.4717,6.3719,6.3546,6.2968,6.2156,6.2031,6.1953,6.1563,6.0105,5.829,5.5409,5.2471,4.9765,4.7713,4.6916,4.6665,4.6491,4.6389,4.6345,4.6345,4.6359,4.6389,4.6316,4.6301,4.6301,4.6301,4.6301,4.6301,4.6301,4.6301,4.6301,4.6301,4.6301,4.6301,4.6301,4.6301,4.6228,4.6213,4.6272,4.6286,4.6242,4.6228,4.6198,4.6169,4.6154,4.6125,4.6081,4.6037,4.6067,4.6169,4.6154,4.6096,4.5979,4.5657,4.5406,4.507,4.4732,4.4616,4.4514,4.4397,4.4338,4.4338,4.4323,4.4323,4.4323,4.4323,4.4323,4.4323,4.4323,4.4323,4.4323,4.4323,4.4323,4.4323,4.4323,4.4323,4.4206,4.4191,4.4177,4.4192,4.4163,4.425,4.428,4.4206,4.4192,6.0692,6.1487,6.1866,6.2073,6.2197,6.2555,6.2679,6.2679,6.2679,6.2741,6.2852,6.2762,6.2741,6.2976,6.3473,6.3804,6.4218,6.4749,6.5052,6.53,6.5383,6.5383,6.5383,6.5383,6.5383,6.5383,6.5383,6.5383,6.5383,6.5318,6.5061,6.4315,6.3941,6.3219,6.2408,6.2284,6.1894,6.1631,6.0813,5.8039,5.4542,5.3749,5.2201,4.8666,4.6677,4.6765,4.6694,4.6679,4.665,4.6589,4.6621,4.6504,4.6316,4.6301,4.6301,4.6301,4.6301,4.6301,4.6301,4.6301,4.6301,4.6301,4.6301,4.6301,4.6301,4.6301,4.6301,4.6301,4.6301,4.6301,4.6301,4.6301,4.6301,4.6301,4.6301,4.6301,4.6301,4.6301,4.6301,4.6301,4.6301,4.6228,4.6125,4.5979,4.5774,4.5406,4.4982,4.4748,4.4645,4.4528,4.4337,4.4338,4.4323,4.4323,4.4323,4.4323,4.4323,4.4323,4.4323,4.4323,4.4323,4.4323,4.4323,4.4323,4.4323,4.4323,4.4323,4.4309,4.4309,4.4323,4.4323,4.4323,4.4323,4.4265,4.4294,6.0402,6.108,6.1742,6.2011,6.2093,6.2493,6.2679,6.2679,6.2679,6.2679,6.2679,6.2679,6.2679,6.2824,6.339,6.3763,6.4177,6.477,6.5114,6.5342,6.5383,6.5383,6.5383,6.5383,6.5383,6.5383,6.5383,6.5383,6.5383,6.5347,6.5089,6.4574,6.4085,6.3566,6.2834,6.232,6.1952,6.1699,6.1719,5.8884,5.4702,5.3881,5.1956,4.8268,4.6633,4.6723,4.665,4.6606,4.6562,4.6518,4.6489,4.6445,4.633,4.6301,4.6301,4.6301,4.6301,4.6301,4.6301,4.6301,4.6301,4.6301,4.6301,4.6301,4.6301,4.6301,4.6301,4.6301,4.6301,4.6301,4.6301,4.6301,4.6301,4.6301,4.6301,4.6301,4.6301,4.6301,4.6301,4.6301,4.6301,4.6286,4.6213,4.6198,4.5979,4.5759,4.5304,4.4982,4.485,4.466,4.4499,4.4337,4.4323,4.4338,4.4323,4.4323,4.4323,4.4323,4.4323,4.4323,4.4323,4.4323,4.4323,4.4323,4.4323,4.4323,4.4323,4.4323,4.4323,4.4323,4.4323,4.4323,4.4338,4.4353,4.4338,6.0216,6.0713,6.1535,6.1928,6.199,6.2472,6.2679,6.2679,6.2679,6.2679,6.2679,6.2679,6.2679,6.299,6.3452,6.3825,6.4218,6.4604,6.506,6.5363,6.5383,6.5383,6.5383,6.5383,6.5383,6.5383,6.5383,6.5383,6.5383,6.5375,6.5175,6.4688,6.4344,6.397,6.319,6.2669,6.2408,6.201,6.1232,5.9069,5.6429,5.3948,5.0933,4.8351,4.6431,4.633,4.6345,4.6299,4.633,4.6359,4.6389,4.633,4.6316,4.6301,4.6301,4.6301,4.6301,4.6301,4.6301,4.6301,4.6301,4.6301,4.6301,4.6301,4.6301,4.6301,4.6301,4.6301,4.6301,4.6301,4.6301,4.6301,4.6301,4.6301,4.6301,4.6301,4.6301,4.6301,4.6301,4.6301,4.6301,4.6301,4.6301,4.6286,4.6169,4.5935,4.5701,4.5392,4.5114,4.4865,4.4645,4.4484,4.4367,4.4337,4.4338,4.4323,4.4323,4.4323,4.4323,4.4323,4.4323,4.4323,4.4323,4.4323,4.4323,4.4323,4.4323,4.4323,4.4323,4.4397,4.4455,4.4514,4.4499,4.4499,4.4411,6.0056,6.0195,6.108,6.1425,6.1576,6.2348,6.2679,6.2679,6.2679,6.2679,6.2679,6.2679,6.2679,6.2727,6.2831,6.3307,6.4136,6.4529,6.4936,6.528,6.5383,6.5383,6.5383,6.5383,6.5383,6.5383,6.5383,6.5383,6.5383,6.5383,6.5355,6.5175,6.466,6.4344,6.4114,6.3479,6.2727,6.2379,6.1699,6.0088,5.7698,5.4772,5.1001,4.8479,4.633,4.6431,4.6504,4.6387,4.646,4.6489,4.6447,4.633,4.6301,4.6301,4.6301,4.6301,4.6301,4.6301,4.6301,4.6301,4.6301,4.6301,4.6301,4.6301,4.6301,4.6301,4.6301,4.6301,4.6301,4.6301,4.6301,4.6301,4.6301,4.6301,4.6301,4.6301,4.6301,4.6301,4.6301,4.6301,4.6301,4.6301,4.6301,4.6301,4.6286,4.6096,4.5935,4.564,4.5479,4.5158,4.4836,4.4675,4.4498,4.4352,4.4323,4.4323,4.4323,4.4323,4.4382,4.447,4.447,4.4338,4.4338,4.4396,4.4337,4.4308,4.4294,4.4382,4.4528,4.4631,4.4689,4.4733,4.4719,4.4675,4.4631]}]]